[[[{"header":{"parameterUnit":"kt","parameterCategory":2,"dx":1,"dy":1,"la1":29.587661999999998,"la2":31.0,"lo1":-88.76705300000003,"lo2":-86.6583820000003,"nx":115,"ny":88,"refTime":"2022-10-11T12:00:00:Z","depth":0,"parameterNumber":1,"parameterNumberName":"U-component_of_WINDS"},"data":[-5.5012,-5.5012,-5.5012,-5.5012,-5.5012,-5.5012,-5.5012,-5.5012,-5.5012,-5.5012,-5.5012,-5.5012,-5.5012,-5.5012,-5.5012,-5.5012,-5.5012,-5.5012,-5.5012,-5.5012,-5.5012,-5.5012,-5.5012,-5.5012,-5.5012,-5.5012,-5.5012,-5.5012,-5.5012,-5.5012,-5.5012,-5.5012,-5.5012,-5.5012,-5.5012,-5.5012,-5.5012,-5.5012,-5.5012,-5.5012,-5.5012,-5.5012,-5.5012,-5.5012,-5.5012,-5.5012,-5.5012,-5.5012,-5.5012,-5.4123,-5.1933,-4.9317,-4.7478,-4.5763,-4.2952,-4.0783,-4.0449,-3.992,-3.8518,-3.7869,-3.7756,-3.7756,-3.7756,-3.7756,-3.7756,-3.7756,-3.7756,-3.7756,-3.7756,-3.7756,-3.7756,-3.7756,-3.7756,-3.7756,-3.7756,-3.7756,-3.7756,-3.7678,-3.7358,-3.6981,-3.6657,-3.6306,-3.5839,-3.554,-3.5228,-3.5085,-3.4826,-3.4553,-3.4527,-3.4332,-3.419,-3.419,-3.419,-3.419,-3.419,-3.419,-3.419,-3.419,-3.419,-3.419,-3.419,-3.419,-3.419,-3.419,-3.419,-3.419,-3.419,-3.419,-3.419,-3.419,-3.419,-3.419,-3.419,-3.419,-3.419,-5.5012,-5.5012,-5.5012,-5.5012,-5.5012,-5.5012,-5.5012,-5.5012,-5.5012,-5.5012,-5.5012,-5.5012,-5.5012,-5.5012,-5.5012,-5.5012,-5.5012,-5.5012,-5.5012,-5.5012,-5.5012,-5.5012,-5.5012,-5.5012,-5.5012,-5.5012,-5.5012,-5.5012,-5.5012,-5.5012,-5.5012,-5.5012,-5.5012,-5.5012,-5.5012,-5.5012,-5.5012,-5.5012,-5.5012,-5.5012,-5.5012,-5.5012,-5.5012,-5.5012,-5.5012,-5.5012,-5.5012,-5.5012,-5.5012,-5.4018,-5.2583,-5.084,-4.9547,-4.8247,-4.5002,-4.2937,-4.2607,-4.1435,-3.9164,-3.863,-3.8293,-3.7969,-3.7756,-3.7756,-3.7869,-3.7869,-3.7756,-3.7756,-3.7756,-3.7756,-3.7756,-3.7756,-3.7756,-3.7756,-3.7756,-3.7756,-3.7756,-3.7743,-3.728,-3.6903,-3.6696,-3.654,-3.6215,-3.5955,-3.5774,-3.5696,-3.5475,-3.5071,-3.4826,-3.4423,-3.419,-3.419,-3.419,-3.419,-3.419,-3.419,-3.419,-3.419,-3.419,-3.419,-3.419,-3.419,-3.419,-3.419,-3.419,-3.419,-3.419,-3.419,-3.419,-3.419,-3.419,-3.419,-3.419,-3.419,-3.419,-5.5012,-5.5012,-5.5012,-5.5012,-5.5012,-5.5012,-5.5012,-5.5012,-5.5012,-5.5012,-5.5012,-5.5012,-5.5012,-5.5012,-5.5012,-5.5012,-5.5012,-5.5012,-5.5012,-5.5012,-5.5012,-5.5012,-5.5012,-5.5012,-5.5012,-5.5012,-5.5012,-5.5012,-5.5012,-5.5012,-5.5012,-5.5012,-5.5012,-5.5012,-5.5012,-5.5012,-5.5012,-5.5012,-5.5012,-5.5012,-5.5012,-5.5012,-5.5012,-5.5012,-5.5012,-5.5012,-5.5012,-5.5012,-5.5012,-5.435,-5.3791,-5.2688,-5.1052,-5.0752,-4.8568,-4.6073,-4.5313,-4.5546,-4.3062,-4.1656,-4.1102,-4.0908,-4.0589,-3.9263,-3.9164,-3.8306,-3.8194,-3.8081,-3.8081,-3.7756,-3.7756,-3.7756,-3.7756,-3.7756,-3.7756,-3.7756,-3.7756,-3.7756,-3.7436,-3.715,-3.7098,-3.6942,-3.6787,-3.6527,-3.6046,-3.593,-3.5021,-3.4553,-3.4488,-3.4241,-3.4203,-3.419,-3.419,-3.419,-3.419,-3.419,-3.419,-3.419,-3.419,-3.419,-3.419,-3.419,-3.419,-3.419,-3.419,-3.419,-3.419,-3.419,-3.419,-3.419,-3.419,-3.419,-3.419,-3.419,-3.419,-5.5012,-5.5012,-5.5012,-5.5012,-5.5012,-5.5012,-5.5012,-5.5012,-5.5012,-5.5012,-5.5012,-5.5012,-5.5012,-5.5012,-5.5012,-5.5012,-5.5012,-5.5012,-5.5012,-5.5012,-5.5012,-5.5012,-5.5012,-5.5012,-5.5012,-5.5012,-5.5012,-5.5012,-5.5012,-5.5012,-5.5012,-5.5012,-5.5012,-5.5012,-5.5012,-5.5012,-5.5012,-5.5012,-5.5012,-5.5012,-5.5012,-5.5012,-5.5012,-5.5012,-5.5012,-5.5012,-5.5012,-5.5012,-5.5012,-5.5012,-5.5012,-5.3895,-5.1933,-5.3791,-5.2056,-4.8906,-4.8996,-4.7924,-4.5996,-4.4019,-4.38,-4.3721,-4.2526,-4.1435,-4.0561,-3.9487,-3.8842,-3.8617,-3.8406,-3.7969,-3.7756,-3.7756,-3.7756,-3.7756,-3.7756,-3.7756,-3.7756,-3.7756,-3.7756,-3.7717,-3.7717,-3.7626,-3.7509,-3.702,-3.6449,-3.5761,-3.4995,-3.4501,-3.4566,-3.4319,-3.4306,-3.419,-3.419,-3.419,-3.419,-3.419,-3.419,-3.419,-3.419,-3.419,-3.419,-3.419,-3.419,-3.419,-3.419,-3.419,-3.419,-3.419,-3.419,-3.419,-3.419,-3.419,-3.419,-3.419,-3.419,-5.4993,-5.4974,-5.5012,-5.5012,-5.5012,-5.5012,-5.5012,-5.5012,-5.5012,-5.5012,-5.5012,-5.5012,-5.5012,-5.5012,-5.5012,-5.5012,-5.5012,-5.5012,-5.5012,-5.5012,-5.5012,-5.5012,-5.5012,-5.5012,-5.5012,-5.5012,-5.5012,-5.5012,-5.5012,-5.5012,-5.5012,-5.5012,-5.5012,-5.5012,-5.5012,-5.5012,-5.5012,-5.5012,-5.5012,-5.5012,-5.5012,-5.5012,-5.5012,-5.5012,-5.5012,-5.5012,-5.5012,-5.5012,-5.5012,-5.5012,-5.5012,-5.5012,-5.435,-5.4889,-5.3458,-5.1704,-5.107,-4.9884,-4.8247,-4.6614,-4.663,-4.5748,-4.3581,-4.2937,-4.2827,-4.229,-4.1102,-4.0672,-3.9375,-3.8842,-3.7969,-3.7756,-3.7756,-3.7756,-3.7756,-3.7756,-3.7756,-3.7756,-3.7756,-3.7756,-3.7756,-3.7743,-3.7626,-3.7241,-3.6644,-3.6462,-3.5891,-3.5267,-3.4995,-3.4514,-3.4345,-3.419,-3.419,-3.419,-3.419,-3.419,-3.419,-3.419,-3.419,-3.419,-3.419,-3.419,-3.419,-3.419,-3.419,-3.419,-3.419,-3.419,-3.419,-3.419,-3.419,-3.419,-3.419,-3.419,-3.419,-5.4355,-5.4329,-5.4765,-5.5012,-5.5012,-5.5012,-5.5012,-5.5012,-5.5012,-5.5012,-5.5012,-5.5012,-5.5012,-5.5012,-5.5012,-5.5012,-5.5012,-5.5012,-5.5012,-5.5012,-5.5012,-5.5012,-5.5012,-5.5012,-5.5012,-5.5012,-5.5012,-5.5012,-5.5012,-5.5012,-5.5012,-5.5012,-5.5012,-5.5012,-5.5012,-5.5012,-5.5012,-5.5012,-5.5012,-5.5012,-5.5012,-5.5012,-5.5012,-5.5012,-5.5012,-5.5012,-5.5012,-5.5012,-5.5012,-5.5012,-5.5012,-5.5012,-5.5012,-5.5012,-5.3895,-5.3686,-5.3144,-5.2162,-5.1088,-4.9884,-5.0203,-4.9884,-4.751,-4.6306,-4.5965,-4.5422,-4.4019,-4.2607,-4.1102,-3.971,-3.863,-3.7756,-3.7756,-3.7756,-3.7756,-3.7756,-3.7756,-3.7756,-3.7756,-3.7756,-3.7756,-3.7756,-3.7613,-3.7241,-3.6942,-3.6514,-3.602,-3.5475,-3.5008,-3.4683,-3.4553,-3.4241,-3.419,-3.419,-3.419,-3.419,-3.419,-3.419,-3.419,-3.419,-3.419,-3.419,-3.419,-3.419,-3.419,-3.419,-3.419,-3.419,-3.419,-3.419,-3.419,-3.419,-3.419,-3.419,-3.419,-5.3671,-5.3937,-5.4405,-5.4803,-5.4955,-5.4727,-5.4803,-5.4974,-5.5012,-5.5012,-5.5012,-5.5012,-5.5012,-5.5012,-5.5012,-5.5012,-5.5012,-5.5012,-5.5012,-5.5012,-5.5012,-5.5012,-5.5012,-5.5012,-5.5012,-5.5012,-5.5012,-5.5012,-5.5012,-5.5012,-5.5012,-5.5012,-5.5012,-5.5012,-5.5012,-5.5012,-5.5012,-5.5012,-5.5012,-5.5012,-5.5012,-5.5012,-5.5012,-5.5012,-5.5012,-5.5012,-5.5012,-5.5012,-5.5012,-5.5012,-5.5012,-5.5012,-5.5012,-5.5012,-5.5012,-5.5012,-5.5012,-5.4993,-5.4681,-5.3144,-5.2601,-5.2916,-5.1299,-5.054,-5.031,-4.9334,-4.6847,-4.5095,-4.3376,-4.1531,-4.0129,-3.8617,-3.7756,-3.7756,-3.7756,-3.7756,-3.7756,-3.7756,-3.7756,-3.7756,-3.7756,-3.7756,-3.773,-3.7371,-3.7046,-3.6397,-3.5826,-3.5358,-3.4877,-3.4851,-3.4683,-3.4319,-3.419,-3.419,-3.419,-3.419,-3.419,-3.419,-3.419,-3.419,-3.419,-3.419,-3.419,-3.419,-3.419,-3.419,-3.419,-3.419,-3.419,-3.419,-3.419,-3.419,-3.419,-3.419,-3.419,-5.3019,-5.3842,-5.3899,-5.4355,-5.4746,-5.4101,-5.4253,-5.4936,-5.4974,-5.5012,-5.5012,-5.5012,-5.5012,-5.5012,-5.5012,-5.5012,-5.5012,-5.5012,-5.5012,-5.5012,-5.5012,-5.5012,-5.5012,-5.5012,-5.5012,-5.5012,-5.5012,-5.5012,-5.5012,-5.5012,-5.5012,-5.5012,-5.5012,-5.5012,-5.5012,-5.5012,-5.5012,-5.5012,-5.5012,-5.5012,-5.5012,-5.5012,-5.5012,-5.5012,-5.5012,-5.5012,-5.5012,-5.5012,-5.5012,-5.5012,-5.5012,-5.5012,-5.5012,-5.5012,-5.5012,-5.5012,-5.5012,-5.5012,-5.4889,-5.4889,-5.4889,-5.4662,-5.4018,-5.4558,-5.3809,-5.1951,-4.9991,-4.8139,-4.5965,-4.38,-4.1959,-4.0463,-3.8954,-3.8954,-3.8954,-3.8842,-3.8729,-3.8743,-3.8743,-3.8729,-3.8842,-3.7856,-3.783,-3.7665,-3.728,-3.6787,-3.6436,-3.5917,-3.5524,-3.5446,-3.5073,-3.4592,-3.4306,-3.4254,-3.419,-3.419,-3.419,-3.419,-3.419,-3.419,-3.419,-3.419,-3.419,-3.419,-3.419,-3.419,-3.419,-3.419,-3.419,-3.419,-3.419,-3.419,-3.419,-3.419,-3.419,-5.188,-5.2203,-5.2734,-5.3437,-5.3987,-5.3304,-5.3437,-5.4196,-5.4765,-5.5012,-5.5012,-5.5012,-5.5012,-5.5012,-5.5012,-5.5012,-5.5012,-5.5012,-5.5012,-5.5012,-5.5012,-5.5012,-5.5012,-5.5012,-5.5012,-5.5012,-5.5012,-5.5012,-5.5012,-5.5012,-5.5012,-5.5012,-5.5012,-5.5012,-5.5012,-5.5012,-5.5012,-5.5012,-5.5012,-5.5012,-5.5012,-5.5012,-5.5012,-5.5012,-5.5012,-5.5012,-5.5012,-5.5012,-5.5012,-5.5012,-5.5012,-5.5012,-5.5012,-5.5012,-5.5012,-5.5012,-5.5012,-5.5012,-5.5012,-5.5012,-5.5012,-5.5012,-5.4993,-5.5012,-5.4662,-5.3914,-5.2706,-5.1052,-4.921,-4.7046,-4.522,-4.4799,-4.383,-4.3706,-4.3611,-4.3501,-4.3391,-4.3297,-4.3187,-4.2731,-4.2415,-3.9822,-3.828,-3.8088,-3.7811,-3.7503,-3.7085,-3.6748,-3.641,-3.5994,-3.5527,-3.4969,-3.4592,-3.4423,-3.4293,-3.4228,-3.419,-3.419,-3.419,-3.419,-3.419,-3.419,-3.419,-3.419,-3.419,-3.419,-3.419,-3.419,-3.419,-3.419,-3.419,-3.419,-3.419,-3.419,-3.419,-5.1045,-5.133,-5.1861,-5.2431,-5.281,-5.2317,-5.2582,-5.35,-5.4196,-5.4727,-5.4936,-5.5012,-5.5012,-5.5012,-5.5012,-5.5012,-5.5012,-5.5012,-5.5012,-5.5012,-5.5012,-5.5012,-5.5012,-5.5012,-5.5012,-5.5012,-5.5012,-5.5012,-5.5012,-5.5012,-5.5012,-5.5012,-5.5012,-5.5012,-5.5012,-5.5012,-5.5012,-5.5012,-5.5012,-5.5012,-5.5012,-5.5012,-5.5012,-5.5012,-5.5012,-5.5012,-5.5012,-5.5012,-5.5012,-5.5012,-5.5012,-5.5012,-5.5012,-5.5012,-5.5012,-5.5012,-5.5012,-5.5012,-5.5012,-5.5012,-5.5012,-5.5012,-5.5012,-5.5012,-5.5012,-5.5012,-5.4123,-5.2477,-5.0946,-4.9423,-4.7924,-4.7171,-4.663,-4.6739,-4.6847,-4.6847,-4.6955,-4.6863,-4.6322,-4.5546,-4.5002,-4.2526,-4.0352,-4.0074,-3.8944,-3.835,-3.7595,-3.7137,-3.6761,-3.6319,-3.5968,-3.5397,-3.4786,-3.4631,-3.4371,-3.4254,-3.4203,-3.419,-3.419,-3.419,-3.419,-3.419,-3.419,-3.419,-3.419,-3.419,-3.419,-3.419,-3.419,-3.419,-3.419,-3.419,-3.419,-3.419,-3.419,-5.0513,-5.1235,-5.1254,-5.1292,-5.1349,-5.1273,-5.1728,-5.2563,-5.3304,-5.4063,-5.4803,-5.486,-5.4879,-5.5012,-5.5012,-5.5012,-5.5012,-5.5012,-5.5012,-5.5012,-5.5012,-5.5012,-5.5012,-5.5012,-5.5012,-5.5012,-5.5012,-5.5012,-5.5012,-5.5012,-5.5012,-5.5012,-5.5012,-5.5012,-5.5012,-5.5012,-5.5012,-5.5012,-5.5012,-5.5012,-5.5012,-5.5012,-5.5012,-5.5012,-5.5012,-5.5012,-5.5012,-5.5012,-5.5012,-5.5012,-5.5012,-5.5012,-5.5012,-5.5012,-5.5012,-5.5012,-5.5012,-5.5012,-5.5012,-5.5012,-5.5012,-5.5012,-5.5012,-5.5012,-5.5012,-5.5012,-5.4558,-5.4018,-5.2706,-5.1264,-5.008,-4.8782,-4.8032,-4.7817,-4.8032,-4.8139,-4.8371,-4.8478,-4.7278,-4.629,-4.5981,-4.5235,-4.3267,-4.1295,-3.9865,-3.8886,-3.8068,-3.741,-3.6994,-3.6657,-3.641,-3.577,-3.5319,-3.5021,-3.4696,-3.4436,-3.4203,-3.419,-3.419,-3.419,-3.419,-3.419,-3.419,-3.419,-3.419,-3.419,-3.419,-3.419,-3.419,-3.419,-3.419,-3.419,-3.419,-3.419,-3.419,-5.0077,-5.0304,-5.0323,-5.0323,-5.0323,-5.0418,-5.0874,-5.1614,-5.1975,-5.2772,-5.4222,-5.4158,-5.4424,-5.4879,-5.4974,-5.4955,-5.4993,-5.5012,-5.5012,-5.5012,-5.5012,-5.5012,-5.5012,-5.5012,-5.5012,-5.5012,-5.5012,-5.5012,-5.5012,-5.5012,-5.5012,-5.5012,-5.5012,-5.5012,-5.5012,-5.5012,-5.5012,-5.5012,-5.5012,-5.5012,-5.5012,-5.5012,-5.5012,-5.5012,-5.5012,-5.5012,-5.5012,-5.5012,-5.5012,-5.5012,-5.5012,-5.5012,-5.5012,-5.5012,-5.5012,-5.5012,-5.5012,-5.5012,-5.5012,-5.5012,-5.5012,-5.5012,-5.5012,-5.5012,-5.5012,-5.5012,-5.5012,-5.4889,-5.4331,-5.3791,-5.3667,-5.2583,-5.1616,-5.0858,-5.107,-5.0858,-5.0964,-5.0646,-4.9227,-4.737,-4.629,-4.5546,-4.3376,-4.0991,-3.999,-3.9669,-3.8617,-3.76,-3.7163,-3.6955,-3.6735,-3.6254,-3.5631,-3.528,-3.5008,-3.4566,-3.419,-3.419,-3.419,-3.419,-3.419,-3.419,-3.419,-3.419,-3.419,-3.419,-3.419,-3.419,-3.419,-3.419,-3.419,-3.419,-3.419,-3.419,-3.419,-4.9925,-4.9925,-4.9925,-4.9925,-4.9925,-4.9925,-5.0323,-5.0798,-5.1159,-5.1937,-5.291,-5.319,-5.3759,-5.4329,-5.4519,-5.4671,-5.4974,-5.4993,-5.5012,-5.5012,-5.4993,-5.5012,-5.5012,-5.5012,-5.5012,-5.5012,-5.5012,-5.5012,-5.5012,-5.5012,-5.5012,-5.5012,-5.5012,-5.5012,-5.5012,-5.5012,-5.5012,-5.5012,-5.5012,-5.5012,-5.5012,-5.5012,-5.5012,-5.5012,-5.5012,-5.5012,-5.5012,-5.5012,-5.5012,-5.5012,-5.5012,-5.5012,-5.5012,-5.5012,-5.5012,-5.5012,-5.5012,-5.5012,-5.5012,-5.5012,-5.5012,-5.5012,-5.5012,-5.5012,-5.5012,-5.5012,-5.5012,-5.5012,-5.4785,-5.4558,-5.4889,-5.4889,-5.5012,-5.5012,-5.4681,-5.4454,-5.4123,-5.3686,-5.2372,-4.9423,-4.78,-4.5872,-4.3267,-4.0672,-4.0463,-4.0241,-3.8842,-3.7704,-3.7384,-3.7176,-3.6877,-3.6353,-3.555,-3.5097,-3.5034,-3.4644,-3.4203,-3.419,-3.419,-3.419,-3.419,-3.419,-3.419,-3.419,-3.419,-3.419,-3.419,-3.419,-3.419,-3.419,-3.419,-3.419,-3.419,-3.419,-3.419,-4.9925,-4.9925,-4.9925,-4.9925,-4.9925,-4.9925,-4.9925,-5.0096,-5.0874,-5.1197,-5.1443,-5.2089,-5.2905,-5.3532,-5.374,-5.4044,-5.4727,-5.4879,-5.4803,-5.4822,-5.4974,-5.4993,-5.5012,-5.5012,-5.5012,-5.5012,-5.5012,-5.5012,-5.5012,-5.5012,-5.5012,-5.5012,-5.5012,-5.5012,-5.5012,-5.5012,-5.5012,-5.5012,-5.5012,-5.5012,-5.5012,-5.5012,-5.5012,-5.5012,-5.5012,-5.5012,-5.5012,-5.5012,-5.5012,-5.5012,-5.5012,-5.5012,-5.5012,-5.5012,-5.5012,-5.5012,-5.5012,-5.5012,-5.5012,-5.5012,-5.5012,-5.5012,-5.5012,-5.5012,-5.5012,-5.5012,-5.5012,-5.5012,-5.5012,-5.5012,-5.5012,-5.5012,-5.5012,-5.5012,-5.5012,-5.5012,-5.5012,-5.4993,-5.3791,-5.1387,-4.8782,-4.6197,-4.3501,-4.0686,-3.9808,-3.9052,-3.7756,-3.7756,-3.7462,-3.7371,-3.7072,-3.643,-3.5602,-3.5136,-3.5085,-3.4722,-3.4319,-3.419,-3.419,-3.419,-3.419,-3.419,-3.419,-3.419,-3.419,-3.419,-3.419,-3.419,-3.419,-3.419,-3.419,-3.419,-3.419,-3.419,-3.419,-4.9925,-4.9925,-4.9925,-4.9925,-4.9925,-4.9925,-4.9925,-4.9944,-5.019,-5.0266,-5.057,-5.1235,-5.2051,-5.2696,-5.2829,-5.3,-5.3228,-5.3797,-5.4127,-5.4431,-5.4633,-5.4879,-5.4898,-5.4955,-5.4955,-5.5012,-5.5012,-5.4955,-5.4974,-5.5012,-5.5012,-5.5012,-5.5012,-5.5012,-5.5012,-5.5012,-5.5012,-5.5012,-5.5012,-5.5012,-5.5012,-5.5012,-5.5012,-5.5012,-5.5012,-5.5012,-5.5012,-5.5012,-5.5012,-5.5012,-5.5012,-5.5012,-5.5012,-5.5012,-5.5012,-5.5012,-5.5012,-5.5012,-5.5012,-5.5012,-5.5012,-5.5012,-5.5012,-5.5012,-5.5012,-5.5012,-5.5012,-5.5012,-5.5012,-5.5012,-5.5012,-5.5012,-5.5012,-5.5012,-5.5012,-5.5012,-5.4993,-5.4785,-5.3809,-5.0964,-4.8032,-4.5779,-4.2636,-4.0143,-3.8842,-3.7969,-3.7756,-3.7756,-3.7717,-3.7691,-3.7189,-3.6644,-3.5917,-3.541,-3.5073,-3.4644,-3.4384,-3.419,-3.419,-3.419,-3.419,-3.419,-3.419,-3.419,-3.419,-3.419,-3.419,-3.419,-3.419,-3.419,-3.419,-3.419,-3.419,-3.419,-3.419,-4.9925,-4.9925,-4.9925,-4.9925,-4.9925,-4.9925,-4.9925,-4.9925,-4.9925,-4.9925,-5.0039,-5.057,-5.0969,-5.1424,-5.1861,-5.2146,-5.2563,-5.3019,-5.3228,-5.338,-5.3645,-5.4082,-5.4386,-5.4481,-5.4765,-5.486,-5.4993,-5.4841,-5.4671,-5.4727,-5.5012,-5.5012,-5.5012,-5.4974,-5.5012,-5.5012,-5.5012,-5.5012,-5.5012,-5.5012,-5.5012,-5.5012,-5.5012,-5.5012,-5.5012,-5.5012,-5.5012,-5.5012,-5.5012,-5.5012,-5.5012,-5.5012,-5.5012,-5.5012,-5.5012,-5.5012,-5.5012,-5.5012,-5.5012,-5.5012,-5.5012,-5.5012,-5.5012,-5.5012,-5.5012,-5.5012,-5.5012,-5.5012,-5.5012,-5.5012,-5.5012,-5.5012,-5.5012,-5.5012,-5.5012,-5.5012,-5.4889,-5.4785,-5.3477,-5.0221,-4.6955,-4.3501,-4.0143,-3.8842,-3.8194,-3.7756,-3.7756,-3.7756,-3.7756,-3.7756,-3.7267,-3.6722,-3.615,-3.5527,-3.5008,-3.4527,-3.4267,-3.419,-3.419,-3.419,-3.419,-3.419,-3.419,-3.419,-3.419,-3.419,-3.419,-3.419,-3.419,-3.419,-3.419,-3.419,-3.419,-3.419,-3.419,-4.9925,-4.9925,-4.9925,-4.9925,-4.9925,-4.9925,-4.9925,-4.9925,-4.9925,-4.9925,-4.9944,-4.9982,-5.002,-5.0228,-5.0912,-5.1519,-5.1994,-5.226,-5.2374,-5.2431,-5.2677,-5.3133,-5.3551,-5.3607,-5.3949,-5.4272,-5.4633,-5.4386,-5.3911,-5.4215,-5.4595,-5.4746,-5.4727,-5.4917,-5.4955,-5.5012,-5.5012,-5.5012,-5.5012,-5.5012,-5.5012,-5.5012,-5.5012,-5.5012,-5.5012,-5.5012,-5.5012,-5.5012,-5.5012,-5.5012,-5.5012,-5.5012,-5.5012,-5.5012,-5.5012,-5.5012,-5.5012,-5.5012,-5.5012,-5.5012,-5.5012,-5.5012,-5.5012,-5.5012,-5.5012,-5.5012,-5.5012,-5.5012,-5.5012,-5.5012,-5.5012,-5.5012,-5.5012,-5.5012,-5.5012,-5.5012,-5.4993,-5.4785,-5.2934,-4.9778,-4.5872,-4.1974,-3.9598,-3.8617,-3.7756,-3.7756,-3.7756,-3.7756,-3.7756,-3.7756,-3.7496,-3.6838,-3.6267,-3.5514,-3.493,-3.4462,-3.4241,-3.419,-3.419,-3.419,-3.419,-3.419,-3.419,-3.419,-3.419,-3.419,-3.419,-3.419,-3.419,-3.419,-3.419,-3.419,-3.419,-3.419,-3.419,-4.9925,-4.9925,-4.9925,-4.9925,-4.9925,-4.9925,-4.9925,-4.9925,-4.9925,-4.9925,-4.9925,-4.9925,-4.9925,-4.9982,-5.0153,-5.0304,-5.0551,-5.1311,-5.15,-5.1633,-5.207,-5.2506,-5.2734,-5.2791,-5.2924,-5.3361,-5.3626,-5.3569,-5.2981,-5.3095,-5.3456,-5.3835,-5.4025,-5.4291,-5.4746,-5.4727,-5.4993,-5.5012,-5.5012,-5.5012,-5.5012,-5.5012,-5.5012,-5.5012,-5.5012,-5.5012,-5.5012,-5.5012,-5.5012,-5.5012,-5.5012,-5.5012,-5.5012,-5.5012,-5.5012,-5.5012,-5.5012,-5.5012,-5.5012,-5.5012,-5.5012,-5.5012,-5.5012,-5.5012,-5.5012,-5.5012,-5.5012,-5.5012,-5.5012,-5.5012,-5.5012,-5.5012,-5.5012,-5.5012,-5.5012,-5.5012,-5.5012,-5.4123,-5.2267,-4.912,-4.4784,-4.2401,-4.1531,-4.0561,-3.8954,-3.8729,-3.7969,-3.7969,-3.7756,-3.7756,-3.7613,-3.6955,-3.6332,-3.5553,-3.4813,-3.4332,-3.4228,-3.419,-3.419,-3.419,-3.419,-3.419,-3.419,-3.419,-3.419,-3.419,-3.419,-3.419,-3.419,-3.419,-3.419,-3.419,-3.419,-3.419,-3.419,-4.9925,-4.9925,-4.9925,-4.9925,-4.9925,-4.9925,-4.9925,-4.9925,-4.9925,-4.9925,-4.9925,-4.9925,-4.9925,-4.9925,-4.9925,-4.9925,-5.0039,-5.0551,-5.0665,-5.0722,-5.1121,-5.1365,-5.1918,-5.1937,-5.2127,-5.245,-5.2487,-5.2298,-5.1994,-5.226,-5.2791,-5.3114,-5.3171,-5.3361,-5.3721,-5.3873,-5.3759,-5.3892,-5.4158,-5.4386,-5.4386,-5.486,-5.4974,-5.5012,-5.5012,-5.5012,-5.5012,-5.5012,-5.4993,-5.4993,-5.5012,-5.5012,-5.5012,-5.5012,-5.5012,-5.5012,-5.5012,-5.5012,-5.5012,-5.5012,-5.5012,-5.5012,-5.5012,-5.5012,-5.5012,-5.5012,-5.5012,-5.5012,-5.5012,-5.5012,-5.5012,-5.5012,-5.5012,-5.5012,-5.5012,-5.5012,-5.4681,-5.3581,-5.1722,-4.9334,-4.683,-4.5204,-4.391,-4.1863,-4.0241,-3.9164,-3.8406,-3.8081,-3.7756,-3.7756,-3.7743,-3.7085,-3.6527,-3.5592,-3.4579,-3.4306,-3.419,-3.419,-3.419,-3.419,-3.419,-3.419,-3.419,-3.419,-3.419,-3.419,-3.419,-3.419,-3.419,-3.419,-3.419,-3.419,-3.419,-3.419,-3.419,-4.9925,-4.9925,-4.9925,-4.9925,-4.9925,-4.9925,-4.9925,-4.9925,-4.9925,-4.9925,-4.9925,-4.9925,-4.9925,-4.9925,-4.9925,-4.9925,-4.9925,-5.002,-5.0039,-5.0039,-5.0115,-5.0399,-5.1026,-5.1102,-5.1386,-5.1747,-5.1519,-5.1197,-5.1273,-5.1747,-5.1975,-5.226,-5.2317,-5.2487,-5.262,-5.2544,-5.2753,-5.2924,-5.3285,-5.3551,-5.3664,-5.4044,-5.4329,-5.431,-5.4272,-5.4462,-5.4633,-5.4765,-5.4879,-5.4974,-5.4993,-5.4803,-5.4481,-5.4405,-5.4519,-5.4633,-5.4671,-5.4784,-5.4974,-5.5012,-5.5012,-5.5012,-5.5012,-5.5012,-5.5012,-5.5012,-5.5012,-5.5012,-5.5012,-5.5012,-5.5012,-5.5012,-5.5012,-5.5012,-5.5012,-5.5012,-5.4454,-5.3039,-5.0964,-5.1176,-4.9973,-4.8337,-4.553,-4.3157,-4.0894,-3.9066,-3.8406,-3.7869,-3.7756,-3.7756,-3.7691,-3.7261,-3.6618,-3.5514,-3.4527,-3.4436,-3.419,-3.419,-3.419,-3.419,-3.419,-3.419,-3.419,-3.419,-3.419,-3.419,-3.419,-3.419,-3.419,-3.419,-3.419,-3.419,-3.419,-3.419,-3.419,-4.9925,-4.9925,-4.9925,-4.9925,-4.9925,-4.9925,-4.9925,-4.9925,-4.9925,-4.9925,-4.9925,-4.9925,-4.9925,-4.9925,-4.9925,-4.9925,-4.9925,-4.9925,-4.9925,-4.9925,-4.9925,-5.0077,-5.0171,-5.0342,-5.0456,-5.0361,-5.0361,-5.0304,-5.0228,-5.0304,-5.0988,-5.1405,-5.1481,-5.1709,-5.2298,-5.2468,-5.2298,-5.226,-5.2525,-5.2715,-5.2791,-5.2924,-5.3095,-5.3114,-5.3133,-5.3399,-5.3835,-5.4006,-5.4253,-5.4936,-5.5012,-5.4234,-5.3342,-5.2924,-5.3152,-5.4032,-5.3968,-5.4196,-5.4576,-5.4803,-5.4841,-5.5012,-5.4936,-5.4936,-5.4936,-5.4898,-5.4917,-5.4955,-5.5012,-5.5012,-5.5012,-5.5012,-5.5012,-5.5012,-5.5012,-5.5012,-5.4454,-5.2477,-5.2209,-5.2751,-5.0558,-4.8432,-4.6184,-4.3575,-4.1099,-3.8954,-3.8194,-3.7756,-3.7756,-3.7717,-3.7522,-3.7157,-3.6371,-3.5384,-3.5021,-3.4865,-3.4267,-3.419,-3.419,-3.419,-3.419,-3.419,-3.419,-3.419,-3.419,-3.419,-3.419,-3.419,-3.419,-3.419,-3.419,-3.419,-3.419,-3.419,-3.419,-4.9925,-4.9925,-4.9925,-4.9925,-4.9925,-4.9925,-4.9925,-4.9925,-4.9925,-4.9925,-4.9925,-4.9925,-4.9925,-4.9925,-4.9925,-4.9925,-4.9925,-4.9925,-4.9925,-4.9925,-4.9925,-4.9925,-4.9925,-4.9925,-4.9925,-4.9944,-4.9925,-4.9925,-4.9925,-5.0001,-5.0153,-5.0608,-5.0627,-5.095,-5.1043,-5.1043,-5.1157,-5.1292,-5.1595,-5.1861,-5.1975,-5.2241,-5.2506,-5.2506,-5.2544,-5.2658,-5.3057,-5.3114,-5.3342,-5.3551,-5.3645,-5.3266,-5.262,-5.2525,-5.2696,-5.3038,-5.3114,-5.3361,-5.3551,-5.3664,-5.3721,-5.3645,-5.3664,-5.3911,-5.4253,-5.4367,-5.4519,-5.4879,-5.4974,-5.4993,-5.5012,-5.4974,-5.5012,-5.5012,-5.5012,-5.5012,-5.4634,-5.3094,-5.2387,-5.2285,-5.0042,-4.8119,-4.5937,-4.3102,-4.0698,-3.8941,-3.823,-3.6761,-3.6813,-3.6618,-3.6618,-3.6527,-3.5943,-3.5488,-3.5228,-3.4774,-3.4086,-3.3943,-3.3969,-3.4162,-3.3982,-3.4034,-3.4125,-3.4177,-3.4164,-3.4177,-3.419,-3.419,-3.419,-3.419,-3.419,-3.419,-3.419,-3.419,-3.419,-4.9925,-4.9925,-4.9925,-4.9925,-4.9925,-4.9925,-4.9925,-4.9925,-4.9925,-4.9925,-4.9925,-4.9925,-4.9925,-4.9925,-4.9925,-4.9925,-4.9925,-4.9925,-4.9925,-4.9925,-4.9925,-4.9925,-4.9925,-4.9925,-4.9925,-4.9925,-4.9925,-4.9925,-4.9925,-4.9925,-4.9944,-4.9982,-5.0058,-4.9963,-5.0039,-5.0153,-4.9944,-5.0039,-5.0684,-5.1007,-5.114,-5.1576,-5.1823,-5.1823,-5.1842,-5.2013,-5.2184,-5.226,-5.2165,-5.2013,-5.1975,-5.1956,-5.1823,-5.1823,-5.1975,-5.2165,-5.226,-5.2355,-5.2525,-5.2658,-5.2544,-5.2677,-5.2753,-5.2791,-5.3475,-5.3494,-5.3816,-5.4253,-5.4462,-5.431,-5.4272,-5.4424,-5.431,-5.4234,-5.4291,-5.4329,-5.4234,-5.3222,-5.2435,-5.2104,-5.0227,-4.8248,-4.735,-4.2802,-4.0489,-3.9253,-3.7658,-3.6095,-3.5579,-3.5345,-3.541,-3.5527,-3.4969,-3.4475,-3.4228,-3.393,-3.3514,-3.3384,-3.3745,-3.3914,-3.3644,-3.3631,-3.3748,-3.3891,-3.4034,-3.4177,-3.419,-3.419,-3.4164,-3.4177,-3.419,-3.419,-3.419,-3.419,-3.419,-4.9925,-4.9925,-4.9925,-4.9925,-4.9925,-4.9925,-4.9925,-4.9925,-4.9925,-4.9925,-4.9925,-4.9925,-4.9925,-4.9925,-4.9925,-4.9925,-4.9925,-4.9925,-4.9925,-4.9925,-4.9925,-4.9925,-4.9925,-4.9925,-4.9925,-4.9925,-4.9925,-4.9925,-4.9925,-4.9925,-4.9925,-4.9925,-4.9925,-4.9925,-4.9925,-4.9925,-4.9925,-4.9963,-5.0153,-5.0209,-5.038,-5.038,-5.0531,-5.0513,-5.0494,-5.0874,-5.1273,-5.1386,-5.1121,-5.0266,-5.0209,-5.0342,-5.0285,-5.0247,-5.0665,-5.1254,-5.1443,-5.1709,-5.2279,-5.226,-5.2374,-5.2298,-5.2336,-5.2582,-5.2601,-5.2639,-5.2753,-5.3057,-5.2791,-5.2981,-5.3,-5.2886,-5.2962,-5.3038,-5.2829,-5.2791,-5.2734,-5.262,-5.2506,-5.2289,-5.0063,-4.7401,-4.4926,-4.2036,-3.9274,-3.7181,-3.6097,-3.5047,-3.4813,-3.4293,-3.4099,-3.4267,-3.3943,-3.355,-3.3294,-3.3125,-3.2995,-3.2943,-3.338,-3.3393,-3.3125,-3.3138,-3.3406,-3.3576,-3.3566,-3.3722,-3.3917,-3.4086,-3.4138,-3.4151,-3.4177,-3.419,-3.419,-3.419,-3.419,-4.9925,-4.9925,-4.9925,-4.9925,-4.9925,-4.9925,-4.9925,-4.9925,-4.9925,-4.9925,-4.9925,-4.9925,-4.9925,-4.9925,-4.9925,-4.9925,-4.9925,-4.9925,-4.9925,-4.9925,-4.9925,-4.9925,-4.9925,-4.9925,-4.9925,-4.9925,-4.9925,-4.9925,-4.9925,-4.9925,-4.9925,-4.9925,-4.9925,-4.9925,-4.9925,-4.9925,-4.9925,-4.9925,-4.9925,-4.9925,-4.9925,-4.9925,-4.9925,-4.9925,-4.9944,-5.0058,-5.038,-5.057,-5.0418,-5.0039,-4.9925,-4.9925,-4.9925,-4.9925,-5.0077,-5.038,-5.0475,-5.0703,-5.0929,-5.0967,-5.0967,-5.1083,-5.0986,-5.1292,-5.169,-5.1804,-5.2089,-5.2355,-5.2487,-5.2506,-5.2506,-5.2506,-5.2506,-5.2336,-5.1536,-5.0986,-5.0967,-5.0831,-5.0368,-4.864,-4.6506,-4.3771,-4.0963,-3.8321,-3.6414,-3.523,-3.4475,-3.419,-3.3982,-3.319,-3.2722,-3.2891,-3.2748,-3.2657,-3.254,-3.2579,-3.2514,-3.2579,-3.2761,-3.2618,-3.2514,-3.2501,-3.2683,-3.2865,-3.3034,-3.3216,-3.3537,-3.3732,-3.3862,-3.393,-3.4151,-3.419,-3.419,-3.419,-3.419,-4.9678,-4.9716,-4.9849,-4.9925,-4.9925,-4.9925,-4.9925,-4.9925,-4.9925,-4.9925,-4.9925,-4.9925,-4.9925,-4.9925,-4.9925,-4.9925,-4.9925,-4.9925,-4.9925,-4.9925,-4.9925,-4.9925,-4.9925,-4.9925,-4.9925,-4.9925,-4.9925,-4.9925,-4.9925,-4.9925,-4.9925,-4.9925,-4.9925,-4.9925,-4.9925,-4.9925,-4.9925,-4.9925,-4.9925,-4.9925,-4.9925,-4.9925,-4.9925,-4.9925,-4.9925,-4.9944,-4.9925,-4.9925,-4.9925,-4.9925,-4.9925,-4.9925,-4.9925,-4.9925,-4.9944,-5.0001,-4.9963,-4.9963,-4.9982,-5.0001,-4.9963,-4.9925,-5.0096,-5.019,-5.0931,-5.0969,-5.1254,-5.1652,-5.1861,-5.1804,-5.1823,-5.1785,-5.1804,-5.1593,-4.9932,-4.8574,-4.7945,-4.7835,-4.7243,-4.5245,-4.2741,-4.0712,-3.8512,-3.6236,-3.43,-3.3979,-3.3524,-3.2977,-3.2735,-3.2164,-3.1709,-3.1787,-3.1891,-3.1865,-3.1904,-3.2021,-3.2099,-3.2151,-3.206,-3.1904,-3.1852,-3.1826,-3.1982,-3.2281,-3.2488,-3.2774,-3.3081,-3.3198,-3.3406,-3.3449,-3.3657,-3.3927,-3.4018,-3.406,-3.4034,-4.8878,-4.89,-4.9659,-4.9793,-4.9793,-4.9849,-4.983,-4.9887,-4.9925,-4.9925,-4.9925,-4.9925,-4.9925,-4.9925,-4.9925,-4.9925,-4.9925,-4.9925,-4.9925,-4.9925,-4.9925,-4.9925,-4.9925,-4.9925,-4.9925,-4.9925,-4.9925,-4.9925,-4.9925,-4.9925,-4.9925,-4.9925,-4.9925,-4.9925,-4.9925,-4.9925,-4.9925,-4.9925,-4.9925,-4.9925,-4.9925,-4.9925,-4.9925,-4.9925,-4.9925,-4.9925,-4.9925,-4.9925,-4.9925,-4.9925,-4.9925,-4.9925,-4.9925,-4.9925,-4.9925,-4.9925,-4.9925,-4.9925,-4.9925,-4.9925,-4.9925,-4.9925,-4.9925,-4.9982,-5.0096,-5.0266,-5.0247,-5.0342,-5.0304,-5.0228,-5.0247,-5.0266,-5.0266,-4.9925,-4.8574,-4.6263,-4.3362,-4.3476,-4.3994,-4.2823,-4.0206,-3.8209,-3.7949,-3.5284,-3.3824,-3.3302,-3.2625,-3.2169,-3.18,-3.1554,-3.1008,-3.0956,-3.1125,-3.1164,-3.1294,-3.1385,-3.1398,-3.1411,-3.1307,-3.119,-3.1112,-3.1099,-3.119,-3.1631,-3.1982,-3.2294,-3.2514,-3.2527,-3.2644,-3.293,-3.3151,-3.3419,-3.3589,-3.3696,-3.3774,-4.7932,-4.797,-4.8273,-4.8425,-4.8372,-4.9014,-4.9222,-4.9279,-4.9698,-4.9925,-4.9906,-4.9925,-4.9925,-4.9925,-4.9925,-4.9925,-4.9925,-4.9925,-4.9925,-4.9925,-4.9925,-4.9925,-4.9925,-4.9925,-4.9925,-4.9925,-4.9925,-4.9925,-4.9925,-4.9925,-4.9925,-4.9925,-4.9925,-4.9925,-4.9925,-4.9925,-4.9925,-4.9925,-4.9925,-4.9925,-4.9925,-4.9925,-4.9925,-4.9925,-4.9925,-4.9925,-4.9925,-4.9925,-4.9925,-4.9925,-4.9925,-4.9925,-4.9925,-4.9925,-4.9925,-4.9925,-4.9925,-4.9925,-4.9925,-4.9925,-4.9925,-4.9925,-4.9925,-4.9925,-4.9925,-4.9925,-4.9925,-4.9925,-4.9925,-4.9925,-4.9925,-4.9925,-4.9925,-4.9925,-4.8939,-4.814,-4.7435,-4.7051,-4.6166,-4.3457,-4.1315,-3.9153,-3.698,-3.4395,-3.2911,-3.2709,-3.2125,-3.1631,-3.1528,-3.1125,-3.093,-3.0787,-3.0761,-3.0761,-3.0761,-3.0761,-3.0761,-3.0761,-3.0761,-3.0761,-3.0761,-3.0774,-3.0695,-3.1255,-3.1385,-3.1683,-3.193,-3.1943,-3.2021,-3.2385,-3.2696,-3.2787,-3.2951,-3.3125,-3.3358,-4.7679,-4.7096,-4.7343,-4.7476,-4.7552,-4.8083,-4.833,-4.8425,-4.8938,-4.9129,-4.9186,-4.9507,-4.9621,-4.9659,-4.9849,-4.9925,-4.9906,-4.9754,-4.9773,-4.9887,-4.9925,-4.9925,-4.9925,-4.9925,-4.9925,-4.9925,-4.9925,-4.9925,-4.9925,-4.9925,-4.9925,-4.9925,-4.9925,-4.9925,-4.9925,-4.9925,-4.9925,-4.9925,-4.9925,-4.9925,-4.9925,-4.9925,-4.9925,-4.9925,-4.9925,-4.9925,-4.9925,-4.9925,-4.9925,-4.9925,-4.9925,-4.9925,-4.9925,-4.9925,-4.9925,-4.9925,-4.9925,-4.9925,-4.9925,-4.9925,-4.9925,-4.9925,-4.9925,-4.9925,-4.9925,-4.9925,-4.9925,-4.9925,-4.9925,-4.9925,-4.9925,-4.9925,-4.9925,-4.9925,-4.9243,-4.8445,-4.7931,-4.7313,-4.5921,-4.3369,-4.0992,-3.88,-3.627,-3.3769,-3.2312,-3.2164,-3.1709,-3.1333,-3.1307,-3.0982,-3.0682,-3.0761,-3.0761,-3.0761,-3.0761,-3.0761,-3.0761,-3.0761,-3.0761,-3.0761,-3.0761,-3.0761,-3.0761,-3.0891,-3.0878,-3.1008,-3.1255,-3.1398,-3.1476,-3.1735,-3.2073,-3.2203,-3.2229,-3.2424,-3.2696,-4.8158,-4.6687,-4.7096,-4.7465,-4.7267,-4.74,-4.7457,-4.7495,-4.7609,-4.7761,-4.7913,-4.8425,-4.8748,-4.8881,-4.9431,-4.9793,-4.9584,-4.9052,-4.9109,-4.9641,-4.9774,-4.983,-4.983,-4.9868,-4.9925,-4.9925,-4.9925,-4.9925,-4.9925,-4.9925,-4.9925,-4.9925,-4.9925,-4.9925,-4.9925,-4.9925,-4.9925,-4.9925,-4.9925,-4.9925,-4.9925,-4.9925,-4.9925,-4.9925,-4.9925,-4.9925,-4.9925,-4.9925,-4.9925,-4.9925,-4.9925,-4.9925,-4.9925,-4.9925,-4.9925,-4.9925,-4.9925,-4.9925,-4.9925,-4.9925,-4.9925,-4.9925,-4.9925,-4.9925,-4.9925,-4.9925,-4.9925,-4.9925,-4.9925,-4.9925,-4.9925,-4.9925,-4.9887,-4.9717,-4.8089,-4.6854,-4.5964,-4.326,-4.077,-4.0241,-3.815,-3.6264,-3.5438,-3.3443,-3.1739,-3.1554,-3.1203,-3.0891,-3.0891,-3.0839,-3.0761,-3.0761,-3.0761,-3.0761,-3.0761,-3.0761,-3.0761,-3.0761,-3.0761,-3.0761,-3.0761,-3.0761,-3.0761,-3.0761,-3.0761,-3.0774,-3.1047,-3.106,-3.1099,-3.1164,-3.1385,-3.1726,-3.1709,-3.1826,-3.2073,-4.8151,-4.7688,-4.7798,-4.7085,-4.5843,-4.6375,-4.6641,-4.6698,-4.721,-4.7476,-4.7495,-4.7742,-4.7875,-4.7932,-4.8159,-4.8201,-4.8144,-4.8008,-4.8008,-4.8239,-4.8881,-4.9146,-4.9241,-4.966,-4.9925,-4.9925,-4.9925,-4.9925,-4.9925,-4.9925,-4.9925,-4.9925,-4.9925,-4.9925,-4.9925,-4.9925,-4.9925,-4.9925,-4.9925,-4.9925,-4.9925,-4.9925,-4.9925,-4.9925,-4.9925,-4.9925,-4.9925,-4.9925,-4.9925,-4.9925,-4.9925,-4.9925,-4.9925,-4.9925,-4.9925,-4.9925,-4.9925,-4.9925,-4.9925,-4.9925,-4.9925,-4.9925,-4.9925,-4.9925,-4.9925,-4.9925,-4.9925,-4.9925,-4.9925,-4.9925,-4.9925,-4.9906,-4.9679,-4.9148,-4.8458,-4.7675,-4.7009,-4.5852,-4.4444,-4.2307,-3.867,-3.5902,-3.4703,-3.2547,-3.1365,-3.1047,-3.0825,-3.0774,-3.0761,-3.0761,-3.0761,-3.0761,-3.0761,-3.0761,-3.0761,-3.0761,-3.0761,-3.0761,-3.0761,-3.0761,-3.0761,-3.0761,-3.0761,-3.0761,-3.0761,-3.0761,-3.0774,-3.0774,-3.0787,-3.0721,-3.1021,-3.1216,-3.1216,-3.1294,-3.1359,-4.8203,-4.8182,-4.7374,-4.6264,-4.5027,-4.5473,-4.5787,-4.5843,-4.6356,-4.6565,-4.6622,-4.6888,-4.702,-4.7001,-4.6717,-4.6736,-4.702,-4.702,-4.7191,-4.7514,-4.8008,-4.8273,-4.833,-4.8805,-4.9129,-4.9507,-4.9545,-4.9622,-4.9887,-4.9925,-4.9925,-4.9925,-4.9925,-4.9925,-4.9925,-4.9925,-4.9925,-4.9925,-4.9925,-4.9925,-4.9925,-4.9925,-4.9925,-4.9925,-4.9925,-4.9925,-4.9925,-4.9925,-4.9925,-4.9925,-4.9925,-4.9925,-4.9925,-4.9925,-4.9925,-4.9925,-4.9925,-4.9925,-4.9925,-4.9925,-4.9925,-4.9925,-4.9925,-4.9925,-4.9925,-4.9925,-4.9925,-4.9925,-4.9925,-4.9736,-4.9697,-4.9564,-4.9222,-4.8463,-4.8273,-4.7955,-4.7571,-4.7102,-4.6111,-4.3592,-4.0385,-3.6727,-3.4898,-3.231,-3.0761,-3.0761,-3.0761,-3.0761,-3.0761,-3.0761,-3.0761,-3.0761,-3.0761,-3.0761,-3.0761,-3.0761,-3.0761,-3.0761,-3.0761,-3.0761,-3.0761,-3.0761,-3.0761,-3.0761,-3.0761,-3.0761,-3.0761,-3.0761,-3.0761,-3.0774,-3.0774,-3.0891,-3.0761,-3.0956,-3.0904,-4.8203,-4.7955,-4.5947,-4.5225,-4.4904,-4.4942,-4.4923,-4.4999,-4.4961,-4.4942,-4.5132,-4.5862,-4.6185,-4.6128,-4.5464,-4.5359,-4.6128,-4.6185,-4.6546,-4.7172,-4.7362,-4.74,-4.7329,-4.7367,-4.7913,-4.8634,-4.8764,-4.9052,-4.9773,-4.9793,-4.9887,-4.9849,-4.9906,-4.9925,-4.9925,-4.9925,-4.9925,-4.9925,-4.9925,-4.9925,-4.9925,-4.9811,-4.9679,-4.9565,-4.9736,-4.9641,-4.9641,-4.9755,-4.9774,-4.9793,-4.9698,-4.9736,-4.9755,-4.9736,-4.9698,-4.9717,-4.9736,-4.9755,-4.9698,-4.966,-4.9679,-4.9736,-4.9603,-4.9755,-4.9717,-4.9736,-4.9887,-4.9906,-4.966,-4.9222,-4.8539,-4.8364,-4.8027,-4.7343,-4.7305,-4.7107,-4.698,-4.598,-4.4958,-4.2477,-4.061,-3.8099,-3.448,-3.2113,-3.0946,-3.0761,-3.0761,-3.0761,-3.0761,-3.0761,-3.0761,-3.0761,-3.0761,-3.0761,-3.0761,-3.0761,-3.0761,-3.0761,-3.0761,-3.0761,-3.0761,-3.0761,-3.0761,-3.0761,-3.0761,-3.0761,-3.0761,-3.0761,-3.0761,-3.0761,-3.0761,-3.0761,-3.0761,-3.0761,-3.0761,-4.8203,-4.81,-4.7541,-4.6329,-4.497,-4.4904,-4.4904,-4.4904,-4.4904,-4.4904,-4.4923,-4.5132,-4.5245,-4.5207,-4.4999,-4.4999,-4.5226,-4.5226,-4.5359,-4.5605,-4.6318,-4.6584,-4.666,-4.7153,-4.759,-4.778,-4.7799,-4.7932,-4.8197,-4.8748,-4.909,-4.9184,-4.9716,-4.9925,-4.9925,-4.9925,-4.9925,-4.9906,-4.9925,-4.9925,-4.9736,-4.8732,-4.7875,-4.74,-4.7856,-4.7875,-4.7343,-4.7856,-4.8068,-4.8178,-4.8159,-4.8178,-4.8159,-4.8159,-4.8159,-4.8159,-4.8087,-4.8159,-4.8087,-4.8159,-4.8087,-4.8159,-4.8068,-4.8334,-4.8938,-4.909,-4.9355,-4.9603,-4.8349,-4.7001,-4.6272,-4.612,-4.5957,-4.5711,-4.5654,-4.4838,-4.339,-4.2966,-4.1268,-3.7502,-3.6862,-3.5068,-3.2465,-3.1182,-3.071,-3.0723,-3.0749,-3.0761,-3.0761,-3.0761,-3.0761,-3.0761,-3.0761,-3.0761,-3.0761,-3.0761,-3.0761,-3.0761,-3.0761,-3.0761,-3.0761,-3.0761,-3.0761,-3.0761,-3.0761,-3.0761,-3.0761,-3.0761,-3.0761,-3.0761,-3.0761,-3.0761,-3.0761,-3.0761,-3.0761,-4.6831,-4.6914,-4.6895,-4.6096,-4.497,-4.4904,-4.4904,-4.4904,-4.4904,-4.4904,-4.4904,-4.4904,-4.4904,-4.4904,-4.4904,-4.4904,-4.4904,-4.4904,-4.4904,-4.4942,-4.5483,-4.573,-4.5768,-4.6242,-4.6553,-4.6944,-4.6963,-4.7134,-4.7476,-4.7951,-4.8216,-4.8273,-4.8691,-4.8883,-4.8883,-4.8883,-4.8995,-4.8976,-4.8883,-4.8883,-4.8824,-4.7647,-4.6736,-4.6318,-4.6375,-4.6204,-4.5843,-4.6185,-4.6363,-4.6451,-4.6451,-4.6451,-4.647,-4.6451,-4.6451,-4.647,-4.647,-4.647,-4.647,-4.6451,-4.6363,-4.6432,-4.647,-4.6831,-4.7609,-4.7813,-4.8003,-4.8178,-4.6742,-4.5388,-4.4686,-4.4496,-4.4363,-4.3957,-4.39,-4.3094,-4.0799,-4.0545,-3.8739,-3.4531,-3.3664,-3.2779,-3.0703,-3.0086,-3.0177,-3.0411,-3.0566,-3.0749,-3.0761,-3.0761,-3.0761,-3.0761,-3.0761,-3.0761,-3.0761,-3.0761,-3.0761,-3.0761,-3.0761,-3.0761,-3.0761,-3.0761,-3.0761,-3.0761,-3.0761,-3.0761,-3.0761,-3.0761,-3.0761,-3.0761,-3.0761,-3.0761,-3.0761,-3.0761,-3.0761,-4.4724,-4.4677,-4.478,-4.4791,-4.4772,-4.4847,-4.4904,-4.4904,-4.4904,-4.4866,-4.4753,-4.4772,-4.4791,-4.4885,-4.4904,-4.4904,-4.4904,-4.4904,-4.4904,-4.4904,-4.4904,-4.4904,-4.4942,-4.4942,-4.5388,-4.6052,-4.6128,-4.647,-4.7077,-4.7083,-4.7267,-4.7343,-4.7348,-4.7533,-4.7514,-4.7514,-4.7495,-4.7476,-4.7159,-4.7077,-4.6963,-4.628,-4.5862,-4.5787,-4.5122,-4.4761,-4.445,-4.462,-4.4677,-4.4677,-4.478,-4.4884,-4.4799,-4.4761,-4.4761,-4.4799,-4.4884,-4.4884,-4.4865,-4.478,-4.4677,-4.4677,-4.4875,-4.5293,-4.6071,-4.6071,-4.6033,-4.5919,-4.5188,-4.4279,-4.3578,-4.3376,-4.3034,-4.2559,-4.2503,-4.1604,-3.9772,-3.9111,-3.7346,-3.3081,-3.2416,-3.1615,-2.9728,-2.933,-2.9447,-2.9801,-3.0164,-3.045,-3.0554,-3.0593,-3.0593,-3.0554,-3.0658,-3.0645,-3.0658,-3.0697,-3.0761,-3.0761,-3.0761,-3.0761,-3.0761,-3.0761,-3.0761,-3.0761,-3.0761,-3.0761,-3.0761,-3.0761,-3.0761,-3.0761,-3.0761,-3.0761,-3.0761,-3.0761,-3.0761,-4.311,-4.3167,-4.3774,-4.4021,-4.4078,-4.462,-4.4904,-4.4904,-4.4885,-4.4544,-4.4014,-4.404,-4.4382,-4.4866,-4.4904,-4.4885,-4.4904,-4.4904,-4.4885,-4.4904,-4.4904,-4.4904,-4.4904,-4.4904,-4.4999,-4.5151,-4.5188,-4.5264,-4.5435,-4.5454,-4.5862,-4.6527,-4.7153,-4.7476,-4.7476,-4.7476,-4.7476,-4.7343,-4.5492,-4.4287,-4.3679,-4.3471,-4.3072,-4.2422,-4.2863,-4.2787,-4.2119,-4.2749,-4.3091,-4.3091,-4.3091,-4.3191,-4.311,-4.3091,-4.3091,-4.311,-4.311,-4.3091,-4.3091,-4.3091,-4.3091,-4.311,-4.366,-4.4401,-4.5207,-4.4705,-4.4306,-4.423,-4.3547,-4.273,-4.1873,-4.1288,-4.1041,-4.1437,-4.1475,-4.0775,-3.9151,-3.7446,-3.5445,-3.284,-3.0926,-2.9816,-2.9348,-2.9187,-2.9213,-2.9317,-2.9372,-2.9658,-3.0021,-3.0112,-2.9904,-2.9697,-2.984,-3.0099,-3.0138,-3.0437,-3.0671,-3.0761,-3.0736,-3.071,-3.063,-3.0749,-3.0761,-3.0761,-3.0761,-3.0761,-3.0761,-3.0761,-3.0761,-3.0761,-3.0761,-3.0761,-3.0761,-3.0761,-3.0761,-4.3363,-4.2678,-4.3034,-4.3205,-4.3243,-4.3679,-4.3869,-4.385,-4.385,-4.3604,-4.3224,-4.3205,-4.3452,-4.385,-4.385,-4.3869,-4.3888,-4.4165,-4.4336,-4.4355,-4.4715,-4.4904,-4.4904,-4.4904,-4.4904,-4.4904,-4.4904,-4.4904,-4.4904,-4.4904,-4.5132,-4.5654,-4.6003,-4.6249,-4.6231,-4.6231,-4.6128,-4.5749,-4.4458,-4.3547,-4.3129,-4.273,-4.2522,-4.2327,-4.1667,-4.1307,-4.121,-4.1326,-4.1553,-4.1952,-4.1591,-4.1461,-4.1442,-4.0984,-4.0623,-4.0263,-4.0301,-4.0225,-4.0225,-4.0566,-4.0794,-4.0832,-4.1914,-4.2844,-4.3281,-4.2901,-4.2446,-4.2066,-4.1648,-4.1022,-4.0187,-4.0016,-4.0243,-4.0642,-4.068,-3.998,-3.8245,-3.6875,-3.498,-3.1957,-3.0431,-2.9451,-2.8477,-2.8392,-2.8457,-2.8744,-2.8684,-2.8918,-2.945,-2.932,-2.9112,-2.9226,-2.9434,-2.9616,-2.9642,-2.9814,-2.9969,-2.9995,-3.0203,-3.0372,-3.0385,-3.0553,-3.0736,-3.0761,-3.0761,-3.0761,-3.0761,-3.0761,-3.0761,-3.0761,-3.0761,-3.0761,-3.0761,-3.0761,-3.0761,-4.3861,-4.2199,-4.2313,-4.2511,-4.283,-4.2644,-4.2701,-4.2884,-4.2434,-4.2259,-4.218,-4.2313,-4.2351,-4.237,-4.2484,-4.264,-4.2597,-4.3262,-4.3585,-4.3623,-4.4241,-4.4563,-4.4563,-4.4677,-4.4658,-4.4582,-4.4791,-4.4772,-4.4582,-4.4639,-4.4715,-4.4715,-4.4715,-4.4753,-4.4715,-4.462,-4.4146,-4.3351,-4.3414,-4.3357,-4.3224,-4.254,-4.2578,-4.3262,-4.1174,-4.0415,-4.106,-4.0263,-4.0149,-4.0774,-4.0187,-3.9882,-3.9844,-3.9275,-3.8535,-3.7757,-3.7776,-3.7852,-3.789,-3.8478,-3.8877,-3.8972,-4.0281,-4.1153,-4.1039,-4.1229,-4.1136,-4.051,-4.0301,-3.973,-3.9048,-3.9388,-3.9597,-3.9673,-3.9787,-3.9185,-3.757,-3.7081,-3.5442,-3.1722,-3.0766,-2.9709,-2.797,-2.7463,-2.7658,-2.7983,-2.81,-2.8281,-2.8606,-2.8411,-2.8359,-2.8809,-2.8991,-2.9056,-2.8983,-2.9108,-2.9278,-2.9187,-2.9616,-2.9814,-2.9814,-3.0125,-3.0372,-3.0489,-3.0411,-3.0437,-3.0463,-3.0488,-3.0593,-3.0593,-3.0617,-3.0761,-3.0761,-3.0554,-3.0489,-4.2154,-4.0567,-4.1193,-4.2356,-4.3746,-4.2914,-4.3424,-4.4569,0.0,0.0,0.0,-4.1193,-4.1496,-4.1456,-4.2218,-4.264,-4.2559,-4.2692,-4.2768,-4.2787,-4.2901,-4.2977,-4.2996,-4.3641,-4.354,-4.3072,-4.4325,-4.4203,-4.3053,-4.3641,-4.3983,-4.3983,-4.3983,-4.3964,-4.3926,-4.33,-4.2559,-4.1683,-4.1626,-4.1364,-4.0661,-4.0586,-4.0832,-4.1607,-4.0566,-4.0129,-4.0282,-3.9389,-3.901,-3.9143,-3.9029,-3.8934,-3.8953,-3.9446,-3.9389,-3.8592,-3.9143,-3.9541,-3.9616,-3.9749,-3.9825,-3.9825,-4.0699,-4.0906,-4.0263,-4.1496,-4.2256,-4.2104,-4.0871,-3.9977,-3.9844,-3.8779,-3.7928,-3.8018,-3.8535,-3.8768,-3.8362,-3.7529,-3.5895,-3.3458,-3.1507,-2.9719,-2.7674,-2.7372,-2.7437,-2.7515,-2.758,-2.7593,-2.7645,-2.7645,-2.7632,-2.7801,-2.8152,-2.8372,-2.8437,-2.871,-2.9161,-2.9082,-2.9213,-2.933,-2.933,-2.9408,-2.946,-2.9577,-2.9473,-2.9512,-2.9525,-2.9788,-3.006,-3.0073,-3.045,-3.0761,-3.0684,-3.006,-2.9593,-4.1678,0.0,-4.0433,-4.1197,0.0,-4.1505,-4.2081,-4.3301,-4.0997,-4.0072,-4.0072,-4.0433,-4.0623,-4.0642,-4.1041,-4.1003,-4.0623,-4.1137,-4.108,-4.0642,-4.1041,-4.1309,-4.1347,-4.1648,-4.1648,-4.1288,-4.2066,-4.2009,-4.1366,-4.1648,-4.1857,-4.1917,-4.2294,-4.273,-4.311,-4.2749,-4.1686,-3.9921,-4.0755,-4.0982,-4.0661,-4.0642,-4.0832,-4.1134,-4.0016,0.0,0.0,0.0,0.0,0.0,0.0,0.0,0.0,0.0,0.0,-3.6922,-3.7225,-3.7524,-3.7472,-3.7833,-3.8099,-3.8099,-3.8877,-3.9181,-3.8763,-3.9484,-3.9997,-3.9959,-3.9237,-3.8706,-3.8706,-3.7985,-3.7472,-3.751,-3.7852,-3.8099,-3.7901,-3.674,-3.4983,-3.2864,-3.108,-2.9346,-2.7254,-2.7191,-2.7372,-2.7385,-2.7385,-2.7398,-2.7385,-2.7385,-2.7385,-2.7398,-2.7658,-2.7801,-2.784,-2.8087,-2.8301,-2.8353,-2.8463,-2.8619,-2.8645,-2.8978,-2.9187,-2.9187,-2.9187,-2.9187,-2.92,-2.9294,-2.9502,-2.9528,-2.9723,-2.9904,-2.9891,-2.9489,-2.9278,-4.1275,-3.9578,-3.9597,-3.9801,-4.008,-3.9727,-4.0042,-4.0761,-3.9918,-3.9578,-3.9578,-3.9597,-3.9502,-3.9331,-3.935,-3.8972,-3.8535,-3.9029,-3.8991,-3.8516,-3.9181,-3.9578,-3.9597,-3.973,-3.973,-3.9597,-3.9901,-3.9901,-3.9578,-3.9749,-3.9825,-3.9825,-4.0433,-4.1058,-4.1781,0.0,0.0,0.0,-3.994,-4.0566,-4.049,-4.049,-4.0546,-4.0679,-3.9275,0.0,-3.8459,-3.77,-3.751,-3.7966,-3.7529,0.0,0.0,0.0,0.0,0.0,0.0,0.0,0.0,0.0,0.0,0.0,-3.6795,-3.7263,-3.7263,-3.7415,-3.7472,-3.7472,-3.7277,-3.7035,-3.7016,-3.6884,-3.6789,-3.6808,-3.7054,-3.7244,-3.7263,-3.617,-3.448,-3.2297,-3.1246,-2.9701,-2.7462,-2.7416,-2.7679,-2.7272,-2.7307,-2.7333,-2.723,-2.7294,-2.7372,-2.7385,-2.7398,-2.7398,-2.7385,-2.7411,-2.7489,-2.7437,-2.7788,-2.8035,-2.81,-2.8535,-2.8835,-2.8809,-2.8861,-2.8822,-2.8822,-2.8853,-2.9004,-2.8931,-2.9108,-2.9108,-2.89,-2.8861,-2.8887,-3.9596,-3.7885,-3.7814,-3.8841,-4.0205,-3.8578,-3.788,-3.7998,-3.7899,-3.7814,-3.7814,-3.7814,-3.7396,-3.6643,-3.6624,-3.7054,-3.7605,-3.6998,-3.7054,-3.7643,-3.7757,-3.7814,-3.7833,-3.8516,-3.8516,-3.7961,-3.9369,-3.9312,-3.7923,-3.8535,-3.8858,-3.8877,-3.8917,-3.9086,-3.9181,-3.8497,-3.8326,-3.8687,-3.8231,-3.7985,-3.7985,-3.7966,-3.8307,-3.8953,-3.8136,-3.7643,-3.7643,-3.6827,-3.6056,-3.5555,-3.5999,-3.5999,-3.5403,-3.6599,-3.696,0.0,-3.6751,0.0,0.0,0.0,0.0,0.0,0.0,0.0,0.0,-3.7073,-3.7472,-3.7472,-3.6162,-3.5327,-3.5327,-3.4682,-3.4329,-3.4302,-3.5517,-3.6321,-3.6359,-3.6844,-3.6387,-3.4263,-3.3912,-3.233,-2.8615,-2.87,-2.8404,-2.6978,-2.7009,-2.7113,-2.6695,-2.7035,-2.7333,-2.7385,-2.7385,-2.7385,-2.7385,-2.7385,-2.7385,-2.7385,-2.7476,-2.7476,-2.7528,-2.7593,-2.7645,-2.7715,-2.7767,-2.7658,-2.7606,-2.8035,-2.832,-2.8333,-2.8658,-2.8744,-2.7892,-2.7671,-2.7775,-3.8318,-3.7562,-3.7472,-3.7478,-3.7326,-3.6994,-3.6789,-3.6827,-3.7301,-3.7472,-3.7472,-3.7472,-3.7016,-3.6151,-3.6151,-3.6181,-3.6086,-3.5658,-3.5498,-3.5422,-3.4947,-3.4673,-3.4758,-3.5593,-3.5783,-3.5498,-3.6637,-3.6827,-3.6162,-3.6466,-3.6884,-3.725,-3.725,-3.7041,-3.6675,-3.6681,-3.696,-3.725,-3.6979,-3.7035,-3.7472,-3.7472,-3.7434,-3.725,-3.6909,-3.658,-3.6124,-3.5308,-3.472,-3.4424,-3.4682,-3.472,-3.4378,-3.546,-3.5953,0.0,0.0,0.0,0.0,0.0,0.0,0.0,0.0,0.0,0.0,0.0,-3.6105,-3.6105,-3.5441,-3.5147,-3.5563,-3.4947,-3.4283,-3.3827,-3.4833,-3.5384,-3.4928,-3.4678,-3.3881,-3.1924,-3.1062,-2.9557,-2.6864,-2.6948,-2.6956,-2.6126,-2.6282,-2.6334,-2.6152,-2.6541,-2.6837,-2.685,-2.7178,-2.7385,-2.7385,-2.7385,-2.7385,-2.7385,-2.7385,-2.7385,-2.7385,-2.7385,-2.7385,-2.7385,-2.7385,-2.7385,-2.7385,-2.7606,-2.7762,-2.7749,-2.7723,-2.7476,-2.7009,-2.7152,-2.7437,-3.749,-3.7559,-3.7973,-3.7413,-3.6273,-3.6816,-3.6842,-3.6582,-3.7219,-3.7301,-3.6922,-3.6903,-3.6749,-3.6438,-3.6694,-3.6343,-3.554,-3.5154,-3.4556,-3.3815,-3.2916,-3.2456,-3.2494,-3.3182,-3.3486,-3.3543,-3.4321,-3.4606,-3.4435,-3.4625,-3.5042,-3.5544,-3.5582,-3.5355,-3.5042,-3.5563,-3.5772,-3.5563,-3.5772,-3.617,-3.6884,-3.6903,-3.6599,-3.5885,-3.5677,-3.5365,-3.4739,-3.3922,-3.3486,-3.3486,-3.3739,-3.3853,-3.3853,-3.4568,0.0,0.0,0.0,0.0,0.0,0.0,0.0,0.0,0.0,-3.3682,-3.4644,0.0,-3.4587,0.0,-3.4833,-3.489,-3.5241,-3.49,0.0,0.0,-3.4416,-3.4758,-3.415,-3.2855,-3.1521,-3.0103,-2.8723,-2.7141,-2.5293,-2.5669,-2.5931,-2.5269,-2.5373,-2.5464,-2.5477,-2.5957,-2.6255,-2.6281,-2.6671,-2.697,-2.6944,-2.6983,-2.6957,-2.6983,-2.697,-2.6983,-2.697,-2.6983,-2.697,-2.697,-2.6983,-2.6983,-2.6944,-2.697,-2.697,-2.6944,-2.6552,-2.6242,-2.6255,-2.6645,-2.697,-3.7479,-3.7673,-3.9191,-3.9738,-3.965,-3.9736,-3.8831,-3.7442,-3.7524,-3.6653,-3.5194,-3.5147,-3.6043,-3.7446,-3.8152,0.0,-3.726,-3.5698,-3.4637,-3.3815,-3.2854,-3.2456,-3.2456,-3.2532,-3.257,-3.2589,-3.3486,-3.3486,-3.2759,-3.3505,-3.4005,-3.3979,-3.3998,-3.4321,-3.4966,-3.508,-3.4739,-3.3998,-3.4739,-3.5071,-3.5213,-3.5213,-3.5109,-3.5099,-3.4378,-3.396,-3.3865,-3.3068,-3.2551,-3.2589,-3.3372,-3.3853,-3.3872,0.0,0.0,0.0,0.0,0.0,0.0,0.0,0.0,0.0,0.0,0.0,0.0,0.0,0.0,-3.4871,-3.434,0.0,-3.2835,-3.3467,0.0,0.0,0.0,-3.4919,-3.4909,-3.2823,-3.133,-3.12,0.0,0.0,-2.6002,-2.6724,-2.6615,-2.4343,-2.4589,-2.5002,-2.4928,-2.5436,-2.5749,-2.5736,-2.5801,-2.5827,-2.5931,-2.5905,-2.5918,-2.5918,-2.5801,-2.5879,-2.5879,-2.5879,-2.584,-2.5892,-2.5827,-2.5853,-2.5827,-2.584,-2.5814,-2.5814,-2.5762,-2.5672,-2.5749,-2.584,-2.5918,-3.8705,-4.0522,-4.0149,-3.9614,-3.9075,-3.9785,-3.8702,-3.6696,-3.8347,-3.809,-3.6565,-3.7578,-3.8095,-3.8274,-3.8559,0.0,0.0,0.0,-3.5017,-3.3796,-3.2385,-3.2024,-3.2399,-3.1986,-3.2005,-3.2494,-3.3391,-3.3353,-3.2456,-3.3372,-3.3853,-3.3789,0.0,0.0,-3.4985,-3.5004,-3.4606,-3.3846,-3.4112,-3.4264,-3.4264,-3.4758,-3.4777,-3.4283,-3.396,-3.3543,-3.2968,-3.2195,-3.1967,-3.2437,-3.2778,-3.303,0.0,0.0,0.0,0.0,0.0,0.0,0.0,0.0,0.0,0.0,0.0,-3.0297,-3.1379,0.0,0.0,0.0,-3.3138,-3.3296,-3.3896,-3.4321,0.0,0.0,0.0,0.0,0.0,0.0,0.0,-3.0578,-3.0167,-2.888,-2.6045,-2.6624,-2.7068,-2.6589,-2.5813,-2.5419,-2.5923,0.0,-2.5214,-2.5214,-2.5438,-2.5671,-2.5671,-2.5671,-2.5671,-2.5671,-2.5671,-2.5671,-2.5671,-2.5671,-2.5671,-2.5671,-2.5671,-2.5671,-2.5671,-2.5074,-2.462,-2.462,-2.4892,-2.5188,-2.5214,-2.5425,-2.5671,-4.0336,0.0,0.0,0.0,0.0,-4.107,-4.0064,-3.8025,-3.9927,-3.9837,-3.8324,-3.9161,0.0,0.0,0.0,0.0,0.0,0.0,-3.6064,-3.4417,-3.2514,-3.1796,-3.2138,-3.1777,-3.1777,-3.2176,-3.303,-3.3106,-3.2513,-3.3372,-3.3853,-3.3853,0.0,0.0,0.0,0.0,-3.4131,-3.3207,-3.3315,-3.3429,-3.3429,-3.3998,-3.4017,-3.3448,-3.3182,-3.2783,-3.2176,-3.1628,-3.1625,-3.2418,-3.2456,0.0,0.0,0.0,0.0,0.0,0.0,0.0,0.0,0.0,0.0,0.0,0.0,0.0,0.0,0.0,0.0,0.0,0.0,0.0,-3.3448,-3.377,-3.3694,0.0,0.0,0.0,0.0,0.0,0.0,0.0,0.0,0.0,-2.5436,-2.5647,-2.6169,0.0,0.0,-2.4989,-2.5562,-2.5091,-2.4602,-2.4602,-2.4892,0.0,-2.5178,-2.5165,-2.5178,-2.5178,-2.5178,-2.5102,-2.5178,-2.5165,-2.5178,-2.5165,-2.5165,-2.5061,-2.4736,-2.3983,-2.3477,-2.3451,-2.375,-2.4094,-2.4146,-2.4503,-2.4905,0.0,0.0,0.0,0.0,0.0,0.0,0.0,0.0,-4.235,-4.1394,0.0,-3.8793,0.0,0.0,0.0,0.0,0.0,-3.9705,0.0,0.0,-3.3582,-3.2043,-3.1457,-3.21,-3.2062,-3.14,-3.2195,-3.2513,-3.2494,-3.3372,0.0,0.0,0.0,0.0,0.0,0.0,-3.3054,-3.1476,-3.2138,-3.2494,-3.2494,-3.2551,-3.2532,-3.2494,-3.1837,-3.14,-3.1343,-3.1305,-3.1685,-3.2418,-3.2456,0.0,0.0,0.0,0.0,0.0,0.0,0.0,0.0,0.0,0.0,0.0,0.0,0.0,0.0,0.0,0.0,0.0,0.0,0.0,0.0,-3.0905,0.0,0.0,0.0,0.0,0.0,0.0,0.0,0.0,0.0,0.0,-2.424,-2.3919,-2.3453,-2.2603,0.0,0.0,0.0,0.0,-2.3931,-2.3944,-2.3957,-2.397,-2.3983,-2.3983,-2.397,-2.397,0.0,0.0,-2.397,-2.397,-2.397,-2.397,-2.397,-2.3633,-2.2526,-2.2384,-2.2293,-2.2267,-2.2345,-2.2254,-2.2347,-2.2906,-2.3313,0.0,0.0,0.0,0.0,0.0,0.0,0.0,0.0,0.0,-3.9019,-3.7656,-3.8112,0.0,0.0,0.0,0.0,0.0,0.0,0.0,0.0,-3.5738,-3.5079,-3.5299,-3.3355,-3.2589,0.0,-3.3201,-3.3006,0.0,0.0,0.0,0.0,0.0,0.0,0.0,0.0,-3.2404,-3.1343,-3.1571,-3.1742,-3.1701,-3.2172,-3.2456,-3.2456,-3.1742,-3.1345,-3.1345,-3.1345,-3.1932,0.0,0.0,0.0,0.0,0.0,0.0,0.0,0.0,0.0,0.0,0.0,0.0,0.0,0.0,0.0,0.0,0.0,0.0,0.0,0.0,0.0,0.0,0.0,-3.041,0.0,0.0,0.0,0.0,0.0,0.0,0.0,0.0,0.0,-2.6304,-2.6265,-2.5925,-2.5085,-2.4094,-2.3758,-2.431,0.0,0.0,0.0,0.0,0.0,0.0,0.0,-2.343,-2.343,-2.3048,-2.2802,-2.2802,-2.2733,-2.2733,-2.2802,0.0,0.0,-2.2776,-2.3074,-2.3217,-2.2854,-2.2844,-2.2659,-2.2215,-2.2306,-2.2503,0.0,0.0,0.0,0.0,0.0,0.0,0.0,0.0,0.0,-3.7908,-3.707,0.0,0.0,0.0,0.0,0.0,0.0,0.0,0.0,0.0,0.0,0.0,-3.5359,-3.3663,0.0,0.0,0.0,0.0,0.0,0.0,0.0,0.0,0.0,0.0,0.0,0.0,-3.1663,-3.0905,-3.0848,-3.0867,-3.0867,-3.136,-3.1603,-3.1603,-3.1113,-3.1,-3.1286,0.0,0.0,0.0,0.0,0.0,0.0,0.0,0.0,0.0,0.0,0.0,0.0,0.0,0.0,0.0,0.0,0.0,0.0,0.0,0.0,0.0,0.0,0.0,0.0,0.0,-2.8702,0.0,0.0,0.0,0.0,0.0,0.0,0.0,0.0,0.0,0.0,0.0,-2.5847,-2.5274,-2.4366,-2.4099,-2.5208,-2.4033,-2.3136,0.0,0.0,0.0,0.0,0.0,0.0,0.0,0.0,0.0,0.0,0.0,0.0,0.0,0.0,-2.1763,-2.2219,-2.2583,-2.2727,-2.2362,0.0,0.0,0.0,0.0,0.0,0.0,0.0,0.0,0.0,0.0,0.0,0.0,0.0,0.0,0.0,-3.8216,0.0,0.0,-3.8021,0.0,0.0,0.0,0.0,0.0,0.0,0.0,0.0,0.0,0.0,0.0,0.0,0.0,0.0,0.0,0.0,0.0,0.0,0.0,0.0,0.0,0.0,-3.0886,-2.9993,-2.9993,-2.9974,-2.9974,-2.9974,-3.0012,-3.0012,-2.9974,-3.0411,-3.121,0.0,0.0,0.0,0.0,0.0,0.0,0.0,0.0,0.0,0.0,0.0,0.0,0.0,0.0,0.0,0.0,0.0,0.0,0.0,0.0,0.0,0.0,0.0,0.0,0.0,0.0,-2.6348,-2.8364,-2.9518,0.0,0.0,0.0,0.0,0.0,0.0,0.0,0.0,0.0,0.0,-2.3283,-2.4174,-2.5635,-2.5133,-2.438,-2.4488,-2.3186,-2.2138,-2.2177,-2.2151,-2.2191,0.0,0.0,0.0,0.0,0.0,0.0,0.0,0.0,0.0,0.0,0.0,0.0,0.0,0.0,0.0,0.0,0.0,0.0,0.0,0.0,0.0,0.0,0.0,0.0,0.0,0.0,0.0,0.0,0.0,0.0,0.0,0.0,0.0,0.0,0.0,0.0,0.0,0.0,0.0,0.0,0.0,0.0,0.0,0.0,0.0,0.0,0.0,0.0,0.0,0.0,0.0,0.0,0.0,0.0,-3.0809,-2.9974,-2.9974,-2.9974,-2.9974,-2.9974,-2.9974,-2.9974,-2.9974,-3.0088,0.0,0.0,0.0,0.0,0.0,0.0,0.0,0.0,0.0,0.0,0.0,0.0,0.0,0.0,0.0,0.0,0.0,0.0,0.0,0.0,0.0,0.0,0.0,0.0,0.0,0.0,0.0,0.0,-2.6386,-2.6633,-2.6975,0.0,0.0,0.0,0.0,0.0,0.0,0.0,0.0,0.0,0.0,-2.168,-2.216,-2.203,-2.1938,-2.2342,-2.1931,-2.1763,-2.2152,-2.1867,-2.162,-2.162,0.0,0.0,0.0,0.0,0.0,0.0,0.0,0.0,0.0,0.0,0.0,0.0,0.0,0.0,0.0,0.0,0.0,0.0,0.0,0.0,0.0,0.0,0.0,0.0,0.0,0.0,0.0,0.0,0.0,0.0,0.0,0.0,0.0,0.0,0.0,0.0,0.0,0.0,0.0,0.0,0.0,0.0,0.0,0.0,0.0,0.0,0.0,0.0,0.0,0.0,0.0,0.0,0.0,-3.0467,-2.9974,-2.9974,-2.9974,-2.9974,-2.9974,-2.9974,-2.9974,-2.9974,-3.0107,0.0,0.0,0.0,0.0,0.0,0.0,0.0,0.0,0.0,0.0,0.0,0.0,0.0,0.0,0.0,0.0,0.0,0.0,0.0,0.0,0.0,0.0,0.0,0.0,0.0,0.0,0.0,0.0,-2.5342,-2.5361,-2.6158,0.0,0.0,0.0,0.0,0.0,0.0,0.0,0.0,0.0,0.0,-2.2382,-2.2368,-2.1896,0.0,0.0,-2.1476,-2.1229,-2.1516,-2.1269,-2.1049,-2.1112,-2.0825,0.0,0.0,0.0,0.0,0.0,0.0,0.0,0.0,0.0,0.0,0.0,0.0,0.0,0.0,0.0,0.0,0.0,0.0,0.0,0.0,0.0,0.0,0.0,0.0,0.0,0.0,0.0,0.0,0.0,0.0,0.0,0.0,0.0,0.0,0.0,0.0,0.0,0.0,0.0,0.0,0.0,0.0,0.0,0.0,0.0,0.0,0.0,0.0,0.0,0.0,0.0,0.0,-2.9974,-2.9974,-2.9974,-2.9974,-2.9974,-2.9974,-2.9974,-2.9974,-2.9974,-3.0335,0.0,0.0,0.0,0.0,0.0,0.0,0.0,0.0,0.0,0.0,0.0,0.0,0.0,0.0,0.0,0.0,0.0,0.0,0.0,0.0,0.0,0.0,0.0,0.0,0.0,0.0,0.0,0.0,0.0,0.0,0.0,0.0,0.0,0.0,0.0,0.0,0.0,0.0,0.0,0.0,0.0,-2.5287,-2.5287,-2.3963,-2.2943,0.0,-2.1714,-2.0714,-2.0652,-2.0714,-2.0701,-2.0652,0.0,0.0,0.0,0.0,0.0,0.0,0.0,0.0,0.0,0.0,0.0,0.0,0.0,0.0,0.0,0.0,0.0,0.0,0.0,0.0,0.0,0.0,0.0,0.0,0.0,0.0,0.0,0.0,0.0,0.0,0.0,0.0,0.0,0.0,0.0,0.0,0.0,0.0,0.0,0.0,0.0,0.0,0.0,0.0,0.0,0.0,0.0,0.0,0.0,0.0,0.0,0.0,0.0,0.0,-2.9974,-2.9974,-2.9974,-2.9974,-2.9974,-2.9974,-2.9974,-2.9974,0.0,0.0,0.0,0.0,0.0,0.0,0.0,0.0,0.0,0.0,0.0,0.0,0.0,0.0,0.0,0.0,0.0,0.0,0.0,0.0,0.0,0.0,0.0,0.0,0.0,0.0,0.0,-2.3816,0.0,0.0,0.0,0.0,0.0,0.0,0.0,0.0,0.0,0.0,0.0,0.0,0.0,0.0,-2.5287,-2.5287,-2.3903,-2.2943,0.0,0.0,-2.1943,-2.0762,-2.1592,-2.1943,0.0,0.0,0.0,0.0,0.0,0.0,0.0,0.0,0.0,0.0,0.0,0.0,0.0,0.0,0.0,0.0,0.0,0.0,0.0,0.0,0.0,0.0,0.0,0.0,0.0,0.0,0.0,0.0,0.0,0.0,0.0,0.0,0.0,0.0,0.0,0.0,0.0,0.0,0.0,0.0,0.0,0.0,0.0,0.0,0.0,0.0,0.0,0.0,0.0,0.0,0.0,0.0,0.0,0.0,-2.9974,-2.9974,-2.9974,-2.9974,-2.9974,-2.9974,-2.9974,-2.9974,-2.9974,-2.9974,0.0,0.0,0.0,0.0,0.0,0.0,0.0,0.0,0.0,0.0,0.0,0.0,0.0,0.0,0.0,0.0,0.0,0.0,0.0,0.0,0.0,0.0,0.0,0.0,0.0,0.0,0.0,0.0,0.0,0.0,0.0,0.0,0.0,0.0,0.0,0.0,0.0,0.0,0.0,0.0,0.0,0.0,-2.5346,-2.3963,0.0,0.0,0.0,-2.2414,-2.0823,0.0,0.0,0.0,0.0,0.0,0.0,0.0,0.0,0.0,0.0,0.0,0.0,0.0,0.0,0.0,0.0,0.0,0.0,0.0,0.0,0.0,0.0,0.0,0.0,0.0,0.0,0.0,0.0,0.0,0.0,0.0,0.0,0.0,0.0,0.0,0.0,0.0,0.0,0.0,0.0,0.0,0.0,0.0,0.0,0.0,0.0,0.0,0.0,0.0,0.0,0.0,0.0,0.0,0.0,0.0,0.0,0.0,-2.9974,-2.9974,-2.9974,-2.9974,-2.9974,-2.9974,-2.9974,-2.9974,-2.9974,0.0,0.0,0.0,0.0,0.0,0.0,0.0,0.0,0.0,0.0,0.0,0.0,0.0,0.0,0.0,0.0,0.0,0.0,0.0,0.0,0.0,0.0,0.0,0.0,0.0,0.0,0.0,0.0,0.0,0.0,0.0,0.0,0.0,0.0,0.0,0.0,0.0,0.0,0.0,0.0,0.0,-2.7292,-2.5978,-2.4484,-2.3454,0.0,0.0,-2.2883,-2.1117,-2.2186,0.0,0.0,0.0,0.0,0.0,0.0,0.0,0.0,0.0,0.0,0.0,0.0,0.0,0.0,0.0,0.0,0.0,0.0,0.0,0.0,0.0,0.0,0.0,0.0,0.0,0.0,0.0,0.0,0.0,0.0,0.0,0.0,0.0,0.0,0.0,0.0,0.0,0.0,0.0,0.0,0.0,0.0,0.0,0.0,0.0,0.0,0.0,0.0,0.0,0.0,0.0,0.0,0.0,0.0,0.0,0.0,-2.9974,-2.9974,-2.9974,-2.9974,-2.9974,-2.9974,-2.9974,-2.9974,-2.9974,0.0,0.0,0.0,0.0,0.0,0.0,0.0,0.0,0.0,0.0,0.0,0.0,0.0,0.0,0.0,0.0,0.0,0.0,0.0,0.0,0.0,0.0,0.0,0.0,0.0,0.0,0.0,0.0,0.0,0.0,0.0,0.0,0.0,0.0,0.0,0.0,0.0,0.0,0.0,0.0,0.0,-2.8661,-2.8934,-2.7668,0.0,0.0,0.0,0.0,-2.2883,-2.3799,0.0,0.0,0.0,0.0,0.0,0.0,0.0,0.0,0.0,0.0,0.0,0.0,0.0,0.0,0.0,0.0,0.0,0.0,0.0,0.0,0.0,0.0,0.0,0.0,0.0,0.0,0.0,0.0,0.0,0.0,0.0,0.0,0.0,0.0,0.0,0.0,0.0,0.0,0.0,0.0,0.0,0.0,0.0,0.0,0.0,0.0,0.0,0.0,0.0,0.0,0.0,0.0,0.0,0.0,0.0,0.0,-2.9974,-2.9974,-2.9974,-2.9974,-2.9974,-2.9974,-2.9974,-2.9974,-2.9974,0.0,0.0,0.0,0.0,0.0,0.0,0.0,0.0,0.0,0.0,0.0,0.0,0.0,0.0,0.0,0.0,0.0,0.0,0.0,0.0,0.0,0.0,0.0,0.0,0.0,0.0,0.0,0.0,0.0,0.0,0.0,0.0,0.0,0.0,0.0,0.0,0.0,0.0,0.0,0.0,-2.874,-2.9044,-2.9841,0.0,0.0,0.0,0.0,0.0,0.0,-2.3866,-2.3124,0.0,0.0,0.0,0.0,0.0,0.0,0.0,0.0,0.0,0.0,0.0,0.0,0.0,0.0,0.0,0.0,0.0,0.0,0.0,0.0,0.0,0.0,0.0,0.0,0.0,0.0,0.0,0.0,0.0,0.0,0.0,0.0,0.0,0.0,0.0,0.0,0.0,0.0,0.0,0.0,0.0,0.0,0.0,0.0,0.0,0.0,0.0,0.0,0.0,0.0,0.0,0.0,0.0,0.0,0.0,-3.0294,-3.0068,-2.9974,-2.9974,-2.9974,-2.9974,-2.9974,-2.9974,-2.9935,-3.0025,0.0,0.0,0.0,0.0,0.0,0.0,0.0,0.0,0.0,0.0,0.0,0.0,0.0,0.0,0.0,0.0,0.0,0.0,0.0,0.0,0.0,0.0,0.0,0.0,0.0,0.0,0.0,0.0,0.0,0.0,0.0,0.0,0.0,0.0,0.0,0.0,0.0,0.0,0.0,-2.83,-2.8626,0.0,0.0,0.0,0.0,0.0,0.0,0.0,0.0,-2.2063,0.0,0.0,0.0,0.0,0.0,0.0,0.0,0.0,0.0,0.0,0.0,0.0,0.0,0.0,0.0,0.0,0.0,0.0,0.0,0.0,0.0,0.0,0.0,0.0,0.0,0.0,0.0,0.0,0.0,0.0,0.0,0.0,0.0,0.0,0.0,0.0,0.0,0.0,0.0,0.0,0.0,0.0,0.0,0.0,0.0,0.0,0.0,0.0,0.0,0.0,0.0,0.0,0.0,0.0,0.0,0.0,-3.0556,-2.9974,-2.9974,-2.9974,-2.9974,-2.9974,-2.9974,-3.006,-3.0373,0.0,0.0,0.0,0.0,0.0,0.0,0.0,0.0,0.0,0.0,0.0,0.0,0.0,0.0,0.0,0.0,0.0,0.0,0.0,0.0,0.0,0.0,0.0,0.0,0.0,0.0,0.0,0.0,0.0,0.0,0.0,0.0,0.0,0.0,0.0,0.0,0.0,0.0,-2.5637,-2.6196,0.0,0.0,0.0,0.0,0.0,0.0,0.0,0.0,-2.3143,0.0,0.0,0.0,0.0,0.0,0.0,0.0,0.0,0.0,0.0,0.0,0.0,0.0,0.0,0.0,0.0,0.0,0.0,0.0,0.0,0.0,0.0,0.0,0.0,0.0,0.0,0.0,0.0,0.0,0.0,0.0,0.0,0.0,0.0,0.0,0.0,0.0,0.0,0.0,0.0,0.0,0.0,0.0,0.0,0.0,0.0,0.0,0.0,0.0,0.0,0.0,0.0,0.0,0.0,0.0,0.0,0.0,0.0,-3.0668,-2.9955,-2.9974,-2.9974,-2.9955,-3.0668,-3.0866,0.0,0.0,0.0,0.0,0.0,0.0,0.0,0.0,0.0,0.0,0.0,0.0,0.0,0.0,0.0,0.0,0.0,0.0,0.0,0.0,0.0,0.0,0.0,0.0,0.0,0.0,0.0,0.0,0.0,0.0,0.0,0.0,0.0,0.0,0.0,0.0,0.0,0.0,0.0,0.0,0.0,0.0,0.0,0.0,0.0,0.0,0.0,0.0,0.0,0.0,0.0,0.0,0.0,0.0,0.0,0.0,0.0,0.0,0.0,0.0,0.0,0.0,0.0,0.0,0.0,0.0,0.0,0.0,0.0,0.0,0.0,0.0,0.0,0.0,0.0,0.0,0.0,0.0,0.0,0.0,0.0,0.0,0.0,0.0,0.0,0.0,0.0,0.0,0.0,0.0,0.0,0.0,0.0,0.0,0.0,0.0,0.0,0.0,0.0,0.0,0.0,0.0,0.0,0.0,0.0,0.0,0.0,0.0,-3.106,-2.9974,-2.9974,-2.9974,-2.9974,-3.1085,-3.1299,0.0,0.0,0.0,0.0,0.0,0.0,0.0,0.0,0.0,0.0,0.0,0.0,0.0,0.0,0.0,0.0,0.0,0.0,0.0,0.0,0.0,0.0,0.0,0.0,0.0,0.0,0.0,0.0,0.0,0.0,0.0,0.0,0.0,0.0,0.0,0.0,0.0,0.0,0.0,0.0,0.0,0.0,0.0,0.0,0.0,0.0,0.0,0.0,-2.4927,0.0,0.0,0.0,0.0,0.0,0.0,0.0,0.0,0.0,0.0,0.0,0.0,0.0,0.0,0.0,0.0,0.0,0.0,0.0,0.0,0.0,0.0,0.0,0.0,0.0,0.0,0.0,0.0,0.0,0.0,0.0,0.0,0.0,0.0,0.0,0.0,0.0,0.0,0.0,0.0,0.0,0.0,0.0,0.0,0.0,0.0,0.0,0.0,0.0,0.0,0.0,0.0,0.0,0.0,0.0,0.0,0.0,0.0,0.0,-3.0125,-2.9974,-2.9974,-2.9955,-2.9955,-3.042,-3.0407,0.0,0.0,0.0,0.0,0.0,0.0,0.0,0.0,0.0,0.0,0.0,0.0,0.0,0.0,0.0,0.0,0.0,0.0,0.0,0.0,0.0,0.0,0.0,0.0,0.0,0.0,0.0,0.0,0.0,0.0,0.0,0.0,0.0,0.0,0.0,0.0,0.0,0.0,0.0,0.0,0.0,0.0,0.0,0.0,0.0,0.0,0.0,0.0,0.0,0.0,0.0,0.0,0.0,0.0,0.0,0.0,0.0,0.0,0.0,0.0,0.0,0.0,0.0,0.0,0.0,0.0,0.0,0.0,0.0,0.0,0.0,0.0,0.0,0.0,0.0,0.0,0.0,0.0,0.0,0.0,0.0,0.0,0.0,0.0,0.0,0.0,0.0,0.0,0.0,0.0,0.0,0.0,0.0,0.0,0.0,0.0,0.0,0.0,0.0,0.0,0.0,0.0,0.0,0.0,0.0,0.0,0.0,0.0,-3.2018,-3.1171,-3.0407,-3.0182,-3.0598,-3.1573,-3.1721,0.0,0.0,0.0,0.0,0.0,0.0,0.0,0.0,0.0,0.0,0.0,0.0,0.0,0.0,0.0,0.0,0.0,0.0,0.0,0.0,0.0,0.0,0.0,0.0,0.0,0.0,0.0,0.0,0.0,0.0,0.0,0.0,0.0,0.0,0.0,0.0,0.0,0.0,0.0,0.0,0.0,0.0,0.0,0.0,0.0,0.0,0.0,0.0,0.0,0.0,0.0,0.0,0.0,0.0,0.0,0.0,0.0,0.0,0.0,0.0,0.0,0.0,0.0,0.0,0.0,0.0,0.0,0.0,0.0,0.0,0.0,0.0,0.0,0.0,0.0,0.0,0.0,0.0,0.0,0.0,0.0,0.0,0.0,0.0,0.0,0.0,0.0,0.0,0.0,0.0,0.0,0.0,0.0,0.0,0.0,0.0,0.0,0.0,0.0,0.0,0.0,0.0,0.0,0.0,0.0,0.0,0.0,0.0,0.0,-3.2195,-3.096,-3.0364,-3.0778,-3.2108,-3.2357,0.0,0.0,0.0,0.0,0.0,0.0,0.0,0.0,0.0,0.0,0.0,0.0,0.0,0.0,0.0,0.0,0.0,0.0,0.0,0.0,0.0,0.0,0.0,0.0,0.0,0.0,0.0,0.0,0.0,0.0,0.0,0.0,0.0,0.0,0.0,0.0,0.0,0.0,0.0,0.0,0.0,0.0,0.0,0.0,0.0,0.0,0.0,0.0,0.0,0.0,0.0,0.0,0.0,0.0,0.0,0.0,0.0,0.0,0.0,0.0,0.0,0.0,0.0,0.0,0.0,0.0,0.0,0.0,0.0,0.0,0.0,0.0,0.0,0.0,0.0,0.0,0.0,0.0,0.0,0.0,0.0,0.0,0.0,0.0,0.0,0.0,0.0,0.0,0.0,0.0,0.0,0.0,0.0,0.0,0.0,0.0,0.0,0.0,0.0,0.0,0.0,0.0,0.0,0.0,0.0,0.0,0.0,0.0,0.0,-3.2596,-3.1582,-3.0637,-2.9954,-3.1071,-3.1367,0.0,0.0,0.0,0.0,0.0,0.0,0.0,0.0,0.0,0.0,0.0,0.0,0.0,0.0,0.0,0.0,0.0,0.0,0.0,0.0,0.0,0.0,0.0,0.0,0.0,0.0,0.0,0.0,0.0,0.0,0.0,0.0,0.0,0.0,0.0,0.0,0.0,0.0,0.0,0.0,0.0,0.0,0.0,0.0,0.0,0.0,0.0,0.0,0.0,0.0,0.0,0.0,0.0,0.0,0.0,0.0,0.0,0.0,0.0,0.0,0.0,0.0,0.0,0.0,0.0,0.0,0.0,0.0,0.0,0.0,0.0,0.0,0.0,0.0,0.0,0.0,0.0,0.0,0.0,0.0,0.0,0.0,0.0,0.0,0.0,0.0,0.0,0.0,0.0,0.0,0.0,0.0,0.0,0.0,0.0,0.0,0.0,0.0,0.0,0.0,0.0,0.0,0.0,0.0,0.0,0.0,0.0,0.0,0.0,-3.3331,-3.2282,-3.156,-3.1207,-3.1666,-3.1758,-3.1437,0.0,0.0,0.0,0.0,0.0,0.0,0.0,0.0,0.0,0.0,0.0,0.0,0.0,0.0,0.0,0.0,0.0,0.0,0.0,0.0,0.0,0.0,0.0,0.0,0.0,0.0,0.0,0.0,0.0,0.0,0.0,0.0,0.0,0.0,0.0,0.0,0.0,0.0,0.0,0.0,0.0,0.0,0.0,0.0,0.0,0.0,0.0,0.0,0.0,0.0,0.0,0.0,0.0,0.0,0.0,0.0,0.0,0.0,0.0,0.0,0.0,0.0,0.0,0.0,0.0,0.0,0.0,0.0,0.0,0.0,0.0,0.0,0.0,0.0,0.0,0.0,0.0,0.0,0.0,0.0,0.0,0.0,0.0,0.0,0.0,0.0,0.0,0.0,0.0,0.0,0.0,0.0,0.0,0.0,0.0,0.0,0.0,0.0,0.0,0.0,0.0,0.0,0.0,0.0,0.0,0.0,0.0,0.0,-3.3262,-3.2506,-3.2098,-3.2098,-3.2098,-3.2098,0.0,0.0,0.0,0.0,0.0,0.0,0.0,0.0,0.0,0.0,0.0,0.0,0.0,0.0,0.0,0.0,0.0,0.0,0.0,0.0,0.0,0.0,0.0,0.0,0.0,0.0,0.0,0.0,0.0,0.0,0.0,0.0,0.0,0.0,0.0,0.0,0.0,0.0,0.0,0.0,0.0,0.0,0.0,0.0,0.0,0.0,0.0,0.0,0.0,0.0,0.0,0.0,0.0,0.0,0.0,0.0,0.0,0.0,0.0,0.0,0.0,0.0,0.0,0.0,0.0,0.0,0.0,0.0,0.0,0.0,0.0,0.0,0.0,0.0,0.0,0.0,0.0,0.0,0.0,0.0,0.0,0.0,0.0,0.0,0.0,0.0,0.0,0.0,0.0,0.0,0.0,0.0,0.0,0.0,0.0,0.0,0.0,0.0,0.0,0.0,0.0,0.0,0.0,0.0,0.0,0.0,0.0,0.0,-3.3147,-3.2182,-3.2098,-3.2098,-3.2098,-3.2098,-3.2098,0.0,0.0,0.0,0.0,0.0,0.0,0.0,0.0,0.0,0.0,0.0,0.0,0.0,0.0,0.0,0.0,0.0,0.0,0.0,0.0,0.0,0.0,0.0,0.0,0.0,0.0,0.0,0.0,0.0,0.0,0.0,0.0,0.0,0.0,0.0,0.0,0.0,0.0,0.0,0.0,0.0,0.0,0.0,0.0,0.0,0.0,0.0,0.0,0.0,0.0,0.0,0.0,0.0,0.0,0.0,0.0,0.0,0.0,0.0,0.0,0.0,0.0,0.0,0.0,0.0,0.0,0.0,0.0,0.0,0.0,0.0,0.0,0.0,0.0,0.0,0.0,0.0,0.0,0.0,0.0,0.0,0.0,0.0,0.0,0.0,0.0,0.0,0.0,0.0,0.0,0.0,0.0,0.0,0.0,0.0,0.0,0.0,0.0,0.0,0.0,0.0,0.0,0.0,0.0,0.0,0.0,0.0,0.0,0.0,-3.2115,0.0,-3.2098,0.0,-3.2098,-3.2098,0.0,0.0,0.0,0.0,0.0,0.0,0.0,0.0,0.0,0.0,0.0,0.0,0.0,0.0,0.0,0.0,0.0,0.0,0.0,0.0,0.0,0.0,0.0,0.0,0.0,0.0,0.0,0.0,0.0,0.0,0.0,0.0,0.0,0.0,0.0,0.0,0.0,0.0,0.0,0.0,0.0,0.0,0.0,0.0,0.0,0.0,0.0,0.0,0.0,0.0,0.0,0.0,0.0,0.0,0.0,0.0,0.0,0.0,0.0,0.0,0.0,0.0,0.0,0.0,0.0,0.0,0.0,0.0,0.0,0.0,0.0,0.0,0.0,0.0,0.0,0.0,0.0,0.0,0.0,0.0,0.0,0.0,0.0,0.0,0.0,0.0,0.0,0.0,0.0,0.0,0.0,0.0,0.0,0.0,0.0,0.0,0.0,0.0,0.0,0.0,0.0,0.0,0.0,0.0,0.0,0.0,0.0,0.0,0.0,-3.2646,-3.2258,-3.2098,-3.2098,-3.2098,-3.2098,0.0,0.0,0.0,0.0,0.0,0.0,0.0,0.0,0.0,0.0,0.0,0.0,0.0,0.0,0.0,0.0,0.0,0.0,0.0,0.0,0.0,0.0,0.0,0.0,0.0,0.0,0.0,0.0,0.0,0.0,0.0,0.0,0.0,0.0,0.0,0.0,0.0,0.0,0.0,0.0,0.0,0.0,0.0,0.0,0.0,0.0,0.0,0.0,0.0,0.0,0.0,0.0,0.0,0.0,0.0,0.0,0.0,0.0,0.0,0.0,0.0,0.0,0.0,0.0,0.0,0.0,0.0,0.0,0.0,0.0,0.0,0.0,0.0,0.0,0.0,0.0,0.0,0.0,0.0,0.0,0.0,0.0,0.0,0.0,0.0,0.0,0.0,0.0,0.0,0.0,0.0,0.0,0.0,0.0,0.0,0.0,0.0,0.0,0.0,0.0,0.0,0.0,0.0,0.0,0.0,0.0,0.0,0.0,0.0,0.0,-3.277,-3.2241,-3.2282,-3.2133,-3.2133,0.0,0.0,0.0,0.0,0.0,0.0,0.0,0.0,0.0,0.0,0.0,0.0,0.0,0.0,0.0,0.0,0.0,0.0,0.0,0.0,0.0,0.0,0.0,0.0,0.0,0.0,0.0,0.0,0.0,0.0,0.0,0.0,0.0,0.0,0.0,0.0,0.0,0.0,0.0,0.0,0.0,0.0,0.0,0.0,0.0,0.0,0.0,0.0,0.0,0.0,0.0,0.0,0.0,0.0,0.0,0.0,0.0,0.0,0.0,0.0,0.0,0.0,0.0,0.0,0.0,0.0,0.0,0.0,0.0,0.0,0.0,0.0,0.0,0.0,0.0,0.0,0.0,0.0,0.0,0.0,0.0,0.0,0.0,0.0,0.0,0.0,0.0,0.0,0.0,0.0,0.0,0.0,0.0,0.0,0.0,0.0,0.0,0.0,0.0,0.0,0.0,0.0,0.0,0.0,0.0,0.0,0.0,0.0,0.0,0.0,-3.4497,-3.434,-3.4327,-3.3612,-3.3193,-3.3168,0.0,0.0,0.0,0.0,0.0,0.0,0.0,0.0,0.0,0.0,0.0,0.0,0.0,0.0,0.0,0.0,0.0,0.0,0.0,0.0,0.0,0.0,0.0,0.0,0.0,0.0,0.0,0.0,0.0,0.0,0.0,0.0,0.0,0.0,0.0,0.0,0.0,0.0,0.0,0.0,0.0,0.0,0.0,0.0,0.0,0.0,0.0,0.0,0.0,0.0,0.0,0.0,0.0,0.0,0.0,0.0,0.0,0.0,0.0,0.0,0.0,0.0,0.0,0.0,0.0,0.0,0.0,0.0,0.0,0.0,0.0,0.0,0.0,0.0,0.0,0.0,0.0,0.0,0.0,0.0,0.0,0.0,0.0,0.0,0.0,0.0,0.0,0.0,0.0,0.0,0.0,0.0,0.0,0.0,0.0,0.0,0.0,0.0,0.0,0.0,0.0,0.0,0.0,0.0,0.0,0.0,0.0,0.0,0.0,0.0,-3.5168,-3.5168,-3.4575,-3.4261,0.0,0.0,0.0,0.0,0.0,0.0,0.0,0.0,0.0,0.0,0.0,0.0,0.0,0.0,0.0,0.0,0.0,0.0,0.0,0.0,0.0,0.0,0.0,0.0,0.0,0.0,0.0,0.0,0.0,0.0,0.0,0.0,0.0,0.0,0.0,0.0,0.0,0.0,0.0,0.0,0.0,0.0,0.0,0.0,0.0,0.0,0.0,0.0,0.0,0.0,0.0,0.0,0.0,0.0,0.0,0.0,0.0,0.0,0.0,0.0,0.0,0.0,0.0,0.0,0.0,0.0,0.0,0.0,0.0,0.0,0.0,0.0,0.0,0.0,0.0,0.0,0.0,0.0,0.0,0.0,0.0,0.0,0.0,0.0,0.0,0.0,0.0,0.0,0.0,0.0,0.0,0.0,0.0,0.0,0.0,0.0,0.0,0.0,0.0,0.0,0.0,0.0,0.0,0.0,0.0,0.0,0.0,0.0,0.0,0.0,0.0,-3.5462,-3.5435,-3.5386,0.0,-3.5283,0.0,0.0,0.0,0.0,0.0,0.0,0.0,0.0,0.0,0.0,0.0,0.0,0.0,0.0,0.0,0.0,0.0,0.0,0.0,0.0,0.0,0.0,0.0,0.0,0.0,0.0,0.0,0.0,0.0,0.0,0.0,0.0,0.0,0.0,0.0,0.0,0.0,0.0,0.0,0.0,0.0,0.0,0.0,0.0,0.0,0.0,0.0,0.0,0.0,0.0,0.0,0.0,0.0,0.0,0.0,0.0,0.0,0.0,0.0,0.0,0.0,0.0,0.0,0.0,0.0,0.0,0.0,0.0,0.0,0.0,0.0,0.0,0.0,0.0,0.0,0.0,0.0,0.0,0.0,0.0,0.0,0.0,0.0,0.0,0.0,0.0,0.0,0.0,0.0,0.0,0.0,0.0,0.0,0.0,0.0,0.0,0.0,0.0,0.0,0.0,0.0,0.0,0.0,0.0,0.0,0.0,0.0,0.0,0.0,0.0,0.0,0.0,-3.6798,-3.6365,-3.6392,0.0,0.0,0.0,0.0,0.0,0.0,0.0,0.0,0.0,0.0,0.0,0.0,0.0,0.0,0.0,0.0,0.0,0.0,0.0,0.0,0.0,0.0,0.0,0.0,0.0,0.0,0.0,0.0,0.0,0.0,0.0,0.0,0.0,0.0,0.0,0.0,0.0,0.0,0.0,0.0,0.0,0.0,0.0,0.0,0.0,0.0,0.0,0.0,0.0,0.0,0.0,0.0,0.0,0.0,0.0,0.0,0.0,0.0,0.0,0.0,0.0,0.0,0.0,0.0,0.0,0.0,0.0,0.0,0.0,0.0,0.0,0.0,0.0,0.0,0.0,0.0,0.0,0.0,0.0,0.0,0.0,0.0,0.0,0.0,0.0,0.0,0.0,0.0,0.0,0.0,0.0,0.0,0.0,0.0,0.0,0.0,0.0,0.0,0.0,0.0,0.0,0.0,0.0,0.0,0.0,0.0,0.0,0.0,0.0,0.0,-3.8338,-3.8338,-3.7757,-3.7442,-3.7407,0.0,0.0,0.0,0.0,0.0,0.0,0.0,0.0,0.0,0.0,0.0,0.0,0.0,0.0,0.0,0.0,0.0,0.0,0.0,0.0,0.0,0.0,0.0,0.0,0.0,0.0,0.0,0.0,0.0,0.0,0.0,0.0,0.0,0.0,0.0,0.0,0.0,0.0,0.0,0.0,0.0,0.0,0.0,0.0,0.0,0.0,0.0,0.0,0.0,0.0,0.0,0.0,0.0,0.0,0.0,0.0,0.0,0.0,0.0,0.0,0.0,0.0,0.0,0.0,0.0,0.0,0.0,0.0,0.0,0.0,0.0,0.0,0.0,0.0,0.0,0.0,0.0,0.0,0.0,0.0,0.0,0.0,0.0,0.0,0.0,0.0,0.0,0.0,0.0,0.0,0.0,0.0,0.0,0.0,0.0,0.0,0.0,0.0,0.0,0.0,0.0,0.0,0.0,0.0,0.0,0.0,0.0,0.0,0.0,0.0,0.0,0.0,0.0,0.0,-3.8338,0.0,0.0,0.0,0.0,0.0,0.0,0.0,0.0,0.0,0.0,0.0,0.0,0.0,0.0,0.0,0.0,0.0,0.0,0.0,0.0,0.0,0.0,0.0,0.0,0.0,0.0,0.0,0.0,0.0,0.0,0.0,0.0,0.0,0.0,0.0,0.0,0.0,0.0,0.0,0.0,0.0,0.0,0.0,0.0,0.0,0.0,0.0,0.0,0.0,0.0,0.0,0.0,0.0,0.0,0.0,0.0,0.0,0.0,0.0,0.0,0.0,0.0,0.0,0.0,0.0,0.0,0.0,0.0,0.0,0.0,0.0,0.0,0.0,0.0,0.0,0.0,0.0,0.0,0.0,0.0,0.0,0.0,0.0,0.0,0.0,0.0,0.0,0.0,0.0,0.0,0.0,0.0,0.0,0.0,0.0,0.0,0.0,0.0,0.0,0.0,0.0,0.0,0.0,0.0,0.0,0.0,0.0,0.0,0.0,0.0,0.0,0.0,0.0,0.0,0.0,0.0,0.0,0.0,0.0,0.0,0.0,0.0,0.0,0.0,0.0,0.0,0.0,0.0,0.0,0.0,0.0,0.0,0.0,0.0,0.0,0.0,0.0,0.0,0.0,0.0,0.0,0.0,0.0,0.0,0.0,0.0,0.0,0.0,0.0,0.0,0.0,0.0,0.0,0.0,0.0,0.0,0.0,0.0,0.0,0.0,0.0,0.0,0.0,0.0,0.0,0.0,0.0,0.0,0.0,0.0,0.0,0.0,0.0,0.0,0.0,0.0,0.0,0.0,0.0,0.0,0.0,0.0,0.0,0.0,0.0,0.0,0.0,0.0,0.0,0.0,0.0,0.0,0.0,0.0,0.0,0.0,0.0,0.0,0.0,0.0,0.0,0.0,0.0,0.0,0.0,0.0,0.0,0.0,0.0,0.0,0.0,0.0,0.0,0.0,0.0,0.0,0.0,0.0,0.0,0.0,0.0,0.0,0.0,0.0,0.0,0.0,0.0,0.0,0.0,0.0,0.0,0.0,0.0,0.0,0.0,0.0,0.0,0.0,0.0,0.0,0.0,0.0,0.0,0.0,0.0,0.0,0.0,0.0,0.0,0.0,0.0,0.0,0.0,0.0,0.0,0.0,0.0,0.0,0.0,0.0,0.0,0.0,0.0,0.0,0.0,0.0,0.0,0.0,0.0,0.0,0.0,0.0,0.0,0.0,0.0,0.0,0.0,0.0,0.0,0.0,0.0,0.0,0.0,0.0,0.0,0.0,0.0,0.0,0.0,0.0,0.0,0.0,0.0,0.0,0.0,0.0,0.0,0.0,0.0,0.0,0.0,0.0,0.0,0.0,0.0,0.0,0.0,0.0,0.0,0.0,0.0,0.0,0.0,0.0,0.0,0.0,0.0,0.0,0.0,0.0,0.0,0.0,0.0,0.0,0.0,0.0,0.0,0.0,0.0,0.0,0.0,0.0,0.0,0.0,0.0,0.0,0.0,0.0,0.0,0.0,0.0,0.0,0.0,0.0,0.0,0.0,0.0,0.0,0.0,0.0,0.0,0.0,0.0,0.0,0.0,0.0,0.0,0.0,0.0,0.0,0.0,0.0,0.0,0.0,0.0,0.0,0.0,0.0,0.0,0.0,0.0,0.0,0.0,0.0,0.0,0.0,0.0,0.0,0.0,0.0,0.0,0.0,0.0,0.0,0.0,0.0,0.0,0.0,0.0,0.0,0.0,0.0,0.0,0.0,0.0,0.0,0.0,0.0,0.0,0.0,0.0,0.0,0.0,0.0,0.0,0.0,0.0,0.0,0.0,0.0,0.0,0.0,0.0,0.0,0.0,0.0,0.0,0.0,0.0,0.0,0.0,0.0,0.0,0.0,0.0,0.0,0.0,0.0,0.0,0.0,0.0,0.0,0.0,0.0,0.0,0.0,0.0,0.0,0.0,0.0,0.0,0.0,0.0,0.0,0.0,0.0,0.0,0.0,0.0,0.0,0.0,0.0,0.0,0.0,0.0,0.0,0.0,0.0,0.0,0.0,0.0,0.0,0.0,0.0,0.0,0.0,0.0,0.0,0.0,0.0,0.0,0.0,0.0,0.0,0.0,0.0,0.0,0.0,0.0,0.0,0.0,0.0,0.0,0.0,0.0,0.0,0.0,0.0,0.0,0.0,0.0,0.0,0.0,0.0,0.0,0.0,0.0,0.0,0.0,0.0,0.0,0.0,0.0,0.0,0.0,0.0,0.0,0.0,0.0,0.0,0.0,0.0,0.0,0.0,0.0,0.0,0.0,0.0,0.0,0.0,0.0,0.0,0.0,0.0,0.0,0.0,0.0,0.0,0.0,0.0,0.0,0.0,0.0,0.0,0.0,0.0,0.0,0.0,0.0,0.0,0.0,0.0,0.0,0.0,0.0,0.0,0.0,0.0,0.0,0.0,0.0,0.0,0.0,0.0,0.0,0.0,0.0,0.0,0.0,0.0,0.0,0.0,0.0,0.0,0.0,0.0,0.0,0.0,0.0,0.0,0.0,0.0,0.0,0.0,0.0,0.0,0.0,0.0,0.0,0.0,0.0,0.0,0.0,0.0,0.0,0.0,0.0,0.0,0.0,0.0,0.0,0.0,0.0,0.0,0.0,0.0,0.0,0.0,0.0,0.0,0.0,0.0,0.0,0.0,0.0,0.0,0.0,0.0,0.0,0.0,0.0,0.0,0.0,0.0,0.0,0.0,0.0,0.0,0.0,0.0,0.0,0.0,0.0,0.0,0.0,0.0,0.0,0.0,0.0,0.0,0.0,0.0,0.0,0.0,0.0,0.0,0.0,0.0,0.0,0.0,0.0,0.0,0.0,0.0,0.0,0.0,0.0,0.0,0.0,0.0,0.0,0.0,0.0,0.0,0.0,0.0,0.0,0.0,0.0,0.0,0.0,0.0,0.0,0.0,0.0,0.0,0.0,0.0,0.0,0.0,0.0,0.0,0.0,0.0,0.0,0.0,0.0,0.0,0.0,0.0,0.0,0.0,0.0,0.0,0.0,0.0,0.0,0.0,0.0,0.0,0.0,0.0,0.0,0.0,0.0,0.0,0.0,0.0,0.0,0.0,0.0,0.0,0.0,0.0,0.0,0.0,0.0,0.0,0.0,0.0,0.0,0.0,0.0,0.0,0.0,0.0,0.0,0.0,0.0,0.0,0.0,0.0,0.0,0.0,0.0,0.0,0.0,0.0,0.0,0.0,0.0,0.0,0.0,0.0,0.0,0.0,0.0,0.0,0.0,0.0,0.0,0.0,0.0,0.0,0.0,0.0,0.0,0.0,0.0,0.0,0.0,0.0,0.0,0.0,0.0,0.0,0.0,0.0,0.0,0.0,0.0,0.0,0.0,0.0,0.0,0.0,0.0,0.0,0.0,0.0,0.0,0.0,0.0,0.0,0.0,0.0,0.0,0.0,0.0,0.0,0.0,0.0,0.0,0.0,0.0,0.0,0.0,0.0,0.0,0.0,0.0,0.0,0.0,0.0,0.0,0.0,0.0,0.0,0.0,0.0,0.0,0.0,0.0,0.0,0.0,0.0,0.0,0.0,0.0,0.0,0.0,0.0,0.0,0.0,0.0,0.0,0.0,0.0,0.0,0.0,0.0,0.0,0.0,0.0,0.0,0.0,0.0,0.0,0.0,0.0,0.0,0.0,0.0,0.0,0.0,0.0,0.0,0.0,0.0,0.0,0.0,0.0,0.0,0.0,0.0,0.0,0.0,0.0,0.0,0.0,0.0,0.0,0.0,0.0,0.0,0.0,0.0,0.0,0.0,0.0,0.0,0.0,0.0,0.0,0.0,0.0,0.0,0.0,0.0,0.0,0.0,0.0,0.0,0.0,0.0,0.0,0.0,0.0,0.0,0.0,0.0,0.0,0.0,0.0,0.0,0.0,0.0,0.0,0.0,0.0,0.0,0.0,0.0,0.0,0.0,0.0,0.0,0.0,0.0,0.0,0.0,0.0,0.0,0.0,0.0,0.0,0.0,0.0,0.0,0.0,0.0,0.0,0.0,0.0,0.0,0.0,0.0,0.0,0.0,0.0,0.0,0.0,0.0,0.0,0.0,0.0,0.0,0.0,0.0,0.0,0.0,0.0,0.0,0.0,0.0,0.0,0.0,0.0,0.0,0.0,0.0,0.0,0.0,0.0,0.0,0.0,0.0,0.0,0.0,0.0,0.0,0.0,0.0,0.0,0.0,0.0,0.0,0.0,0.0,0.0,0.0,0.0,0.0,0.0,0.0,0.0,0.0,0.0,0.0,0.0,0.0,0.0,0.0,0.0,0.0,0.0,0.0,0.0,0.0,0.0,0.0,0.0,0.0,0.0,0.0,0.0,0.0,0.0]}],[{"header":{"parameterUnit":"kt","parameterCategory":2,"dx":1,"dy":1,"la1":29.587661999999998,"la2":31.0,"lo1":-88.76705300000003,"lo2":-86.6583820000003,"nx":115,"ny":88,"refTime":"2022-10-11T12:00:00:Z","depth":0,"parameterNumber":2,"parameterNumberName":"V-component_of_WINDS"},"data":[9.5284,9.5284,9.5284,9.5284,9.5284,9.5284,9.5284,9.5284,9.5284,9.5284,9.5284,9.5284,9.5284,9.5284,9.5284,9.5284,9.5284,9.5284,9.5284,9.5284,9.5284,9.5284,9.5284,9.5284,9.5284,9.5284,9.5284,9.5284,9.5284,9.5284,9.5284,9.5284,9.5284,9.5284,9.5284,9.5284,9.5284,9.5284,9.5284,9.5284,9.5284,9.5284,9.5284,9.5284,9.5284,9.5284,9.5284,9.5284,9.5284,9.5661,9.6652,9.7843,9.8706,9.9554,10.0882,10.19,10.2033,10.2323,10.3021,10.3342,10.3384,10.3384,10.3384,10.3384,10.3384,10.3384,10.3384,10.3384,10.3384,10.3384,10.3384,10.3384,10.3384,10.3384,10.3384,10.3384,10.3384,10.317,10.264,10.1605,10.0713,9.975,9.8466,9.7645,9.6789,9.6397,9.5683,9.4934,9.4863,9.4327,9.3935,9.3935,9.3935,9.3935,9.3935,9.3935,9.3935,9.3935,9.3935,9.3935,9.3935,9.3935,9.3935,9.3935,9.3935,9.3935,9.3935,9.3935,9.3935,9.3935,9.3935,9.3935,9.3935,9.3935,9.3935,9.5284,9.5284,9.5284,9.5284,9.5284,9.5284,9.5284,9.5284,9.5284,9.5284,9.5284,9.5284,9.5284,9.5284,9.5284,9.5284,9.5284,9.5284,9.5284,9.5284,9.5284,9.5284,9.5284,9.5284,9.5284,9.5284,9.5284,9.5284,9.5284,9.5284,9.5284,9.5284,9.5284,9.5284,9.5284,9.5284,9.5284,9.5284,9.5284,9.5284,9.5284,9.5284,9.5284,9.5284,9.5284,9.5284,9.5284,9.5284,9.5284,9.572,9.6343,9.7145,9.7769,9.8375,9.9901,10.0847,10.0987,10.1596,10.2696,10.2979,10.3105,10.3265,10.3384,10.3384,10.3342,10.3342,10.3384,10.3384,10.3384,10.3384,10.3384,10.3384,10.3384,10.3384,10.3384,10.3384,10.3384,10.3348,10.2426,10.1391,10.082,10.0392,9.95,9.8787,9.8287,9.8073,9.7467,9.6685,9.5683,9.4577,9.3935,9.3935,9.3935,9.3935,9.3935,9.3935,9.3935,9.3935,9.3935,9.3935,9.3935,9.3935,9.3935,9.3935,9.3935,9.3935,9.3935,9.3935,9.3935,9.3935,9.3935,9.3935,9.3935,9.3935,9.3935,9.5284,9.5284,9.5284,9.5284,9.5284,9.5284,9.5284,9.5284,9.5284,9.5284,9.5284,9.5284,9.5284,9.5284,9.5284,9.5284,9.5284,9.5284,9.5284,9.5284,9.5284,9.5284,9.5284,9.5284,9.5284,9.5284,9.5284,9.5284,9.5284,9.5284,9.5284,9.5284,9.5284,9.5284,9.5284,9.5284,9.5284,9.5284,9.5284,9.5284,9.5284,9.5284,9.5284,9.5284,9.5284,9.5284,9.5284,9.5284,9.5284,9.5576,9.5805,9.6286,9.7034,9.7234,9.8216,9.9369,9.9718,9.9654,10.0835,10.1506,10.1731,10.1891,10.206,10.2618,10.2696,10.3141,10.3182,10.3224,10.3224,10.3384,10.3384,10.3384,10.3384,10.3384,10.3384,10.3384,10.3384,10.3384,10.2854,10.2069,10.1926,10.1498,10.107,10.0357,9.9037,9.8716,9.6218,9.4934,9.4755,9.4078,9.3971,9.3935,9.3935,9.3935,9.3935,9.3935,9.3935,9.3935,9.3935,9.3935,9.3935,9.3935,9.3935,9.3935,9.3935,9.3935,9.3935,9.3935,9.3935,9.3935,9.3935,9.3935,9.3935,9.3935,9.3935,9.5284,9.5284,9.5284,9.5284,9.5284,9.5284,9.5284,9.5284,9.5284,9.5284,9.5284,9.5284,9.5284,9.5284,9.5284,9.5284,9.5284,9.5284,9.5284,9.5284,9.5284,9.5284,9.5284,9.5284,9.5284,9.5284,9.5284,9.5284,9.5284,9.5284,9.5284,9.5284,9.5284,9.5284,9.5284,9.5284,9.5284,9.5284,9.5284,9.5284,9.5284,9.5284,9.5284,9.5284,9.5284,9.5284,9.5284,9.5284,9.5284,9.5284,9.5284,9.5746,9.6652,9.5805,9.6629,9.8091,9.8003,9.8532,9.9489,10.0338,10.0433,10.0551,10.1103,10.1596,10.1989,10.2532,10.2859,10.2944,10.3063,10.3265,10.3384,10.3384,10.3384,10.3384,10.3384,10.3384,10.3384,10.3384,10.3384,10.3277,10.3277,10.3027,10.2706,10.1712,10.0143,9.8252,9.6147,9.4791,9.497,9.4292,9.4256,9.3935,9.3935,9.3935,9.3935,9.3935,9.3935,9.3935,9.3935,9.3935,9.3935,9.3935,9.3935,9.3935,9.3935,9.3935,9.3935,9.3935,9.3935,9.3935,9.3935,9.3935,9.3935,9.3935,9.3935,9.5251,9.5218,9.5284,9.5284,9.5284,9.5284,9.5284,9.5284,9.5284,9.5284,9.5284,9.5284,9.5284,9.5284,9.5284,9.5284,9.5284,9.5284,9.5284,9.5284,9.5284,9.5284,9.5284,9.5284,9.5284,9.5284,9.5284,9.5284,9.5284,9.5284,9.5284,9.5284,9.5284,9.5284,9.5284,9.5284,9.5284,9.5284,9.5284,9.5284,9.5284,9.5284,9.5284,9.5284,9.5284,9.5284,9.5284,9.5284,9.5284,9.5284,9.5284,9.5284,9.5576,9.5311,9.5947,9.6732,9.7068,9.764,9.8375,9.9117,9.9151,9.952,10.0529,10.0847,10.0894,10.1161,10.1731,10.1945,10.2575,10.2859,10.3265,10.3384,10.3384,10.3384,10.3384,10.3384,10.3384,10.3384,10.3384,10.3384,10.3384,10.3348,10.3027,10.2319,10.0678,10.0178,9.8609,9.6896,9.6147,9.4827,9.4363,9.3935,9.3935,9.3935,9.3935,9.3935,9.3935,9.3935,9.3935,9.3935,9.3935,9.3935,9.3935,9.3935,9.3935,9.3935,9.3935,9.3935,9.3935,9.3935,9.3935,9.3935,9.3935,9.3935,9.3935,9.391,9.41,9.4856,9.5284,9.5284,9.5284,9.5284,9.5284,9.5284,9.5284,9.5284,9.5284,9.5284,9.5284,9.5284,9.5284,9.5284,9.5284,9.5284,9.5284,9.5284,9.5284,9.5284,9.5284,9.5284,9.5284,9.5284,9.5284,9.5284,9.5284,9.5284,9.5284,9.5284,9.5284,9.5284,9.5284,9.5284,9.5284,9.5284,9.5284,9.5284,9.5284,9.5284,9.5284,9.5284,9.5284,9.5284,9.5284,9.5284,9.5284,9.5284,9.5284,9.5284,9.5284,9.5746,9.5863,9.6122,9.6572,9.7101,9.764,9.7476,9.764,9.8774,9.9303,9.942,9.9669,10.0338,10.0987,10.1731,10.2445,10.2979,10.3384,10.3384,10.3384,10.3384,10.3384,10.3384,10.3384,10.3384,10.3384,10.3384,10.3384,10.2991,10.2319,10.1498,10.0321,9.8965,9.7467,9.6183,9.5291,9.4934,9.4078,9.3935,9.3935,9.3935,9.3935,9.3935,9.3935,9.3935,9.3935,9.3935,9.3935,9.3935,9.3935,9.3935,9.3935,9.3935,9.3935,9.3935,9.3935,9.3935,9.3935,9.3935,9.3935,9.3935,9.2727,9.3187,9.4232,9.4922,9.5185,9.4791,9.4922,9.5218,9.5284,9.5284,9.5284,9.5284,9.5284,9.5284,9.5284,9.5284,9.5284,9.5284,9.5284,9.5284,9.5284,9.5284,9.5284,9.5284,9.5284,9.5284,9.5284,9.5284,9.5284,9.5284,9.5284,9.5284,9.5284,9.5284,9.5284,9.5284,9.5284,9.5284,9.5284,9.5284,9.5284,9.5284,9.5284,9.5284,9.5284,9.5284,9.5284,9.5284,9.5284,9.5284,9.5284,9.5284,9.5284,9.5284,9.5284,9.5284,9.5284,9.5251,9.543,9.6122,9.6377,9.6204,9.699,9.7345,9.7421,9.7877,9.9049,9.9817,10.0658,10.1516,10.2201,10.2944,10.3384,10.3384,10.3384,10.3384,10.3384,10.3384,10.3384,10.3384,10.3384,10.3384,10.3312,10.2676,10.1784,10.0,9.843,9.7146,9.6149,9.6078,9.5614,9.4292,9.3935,9.3935,9.3935,9.3935,9.3935,9.3935,9.3935,9.3935,9.3935,9.3935,9.3935,9.3935,9.3935,9.3935,9.3935,9.3935,9.3935,9.3935,9.3935,9.3935,9.3935,9.3935,9.3935,9.1832,9.3022,9.3121,9.391,9.4824,9.3706,9.3969,9.5152,9.5218,9.5284,9.5284,9.5284,9.5284,9.5284,9.5284,9.5284,9.5284,9.5284,9.5284,9.5284,9.5284,9.5284,9.5284,9.5284,9.5284,9.5284,9.5284,9.5284,9.5284,9.5284,9.5284,9.5284,9.5284,9.5284,9.5284,9.5284,9.5284,9.5284,9.5284,9.5284,9.5284,9.5284,9.5284,9.5284,9.5284,9.5284,9.5284,9.5284,9.5284,9.5284,9.5284,9.5284,9.5284,9.5284,9.5284,9.5284,9.5284,9.5284,9.5311,9.5311,9.5311,9.5398,9.572,9.5457,9.5838,9.6685,9.7585,9.8427,9.942,10.0433,10.1299,10.2069,10.2817,10.2817,10.2817,10.2859,10.2901,10.2937,10.2937,10.2901,10.2859,10.3307,10.3235,10.3134,10.2426,10.107,10.0107,9.868,9.7934,9.772,9.6361,9.5041,9.4256,9.4113,9.3935,9.3935,9.3935,9.3935,9.3935,9.3935,9.3935,9.3935,9.3935,9.3935,9.3935,9.3935,9.3935,9.3935,9.3935,9.3935,9.3935,9.3935,9.3935,9.3935,9.3935,8.9859,9.0418,9.1338,9.2555,9.3508,9.2325,9.2555,9.387,9.4856,9.5284,9.5284,9.5284,9.5284,9.5284,9.5284,9.5284,9.5284,9.5284,9.5284,9.5284,9.5284,9.5284,9.5284,9.5284,9.5284,9.5284,9.5284,9.5284,9.5284,9.5284,9.5284,9.5284,9.5284,9.5284,9.5284,9.5284,9.5284,9.5284,9.5284,9.5284,9.5284,9.5284,9.5284,9.5284,9.5284,9.5284,9.5284,9.5284,9.5284,9.5284,9.5284,9.5284,9.5284,9.5284,9.5284,9.5284,9.5284,9.5284,9.5284,9.5284,9.5284,9.5284,9.5251,9.5284,9.5398,9.5779,9.6319,9.7034,9.7896,9.8912,9.9802,10.0033,10.0503,10.0516,10.0598,10.0646,10.0693,10.0775,10.0823,10.0975,10.1149,10.2402,10.3069,10.2897,10.2838,10.2344,10.1891,10.0963,10.0036,9.8894,9.761,9.6076,9.5041,9.4577,9.422,9.4042,9.3935,9.3935,9.3935,9.3935,9.3935,9.3935,9.3935,9.3935,9.3935,9.3935,9.3935,9.3935,9.3935,9.3935,9.3935,9.3935,9.3935,9.3935,9.3935,8.8412,8.8905,8.9826,9.0812,9.147,9.0615,9.1075,9.2431,9.387,9.4791,9.5152,9.5284,9.5284,9.5284,9.5284,9.5284,9.5284,9.5284,9.5284,9.5284,9.5284,9.5284,9.5284,9.5284,9.5284,9.5284,9.5284,9.5284,9.5284,9.5284,9.5284,9.5284,9.5284,9.5284,9.5284,9.5284,9.5284,9.5284,9.5284,9.5284,9.5284,9.5284,9.5284,9.5284,9.5284,9.5284,9.5284,9.5284,9.5284,9.5284,9.5284,9.5284,9.5284,9.5284,9.5284,9.5284,9.5284,9.5284,9.5284,9.5284,9.5284,9.5284,9.5284,9.5284,9.5284,9.5284,9.5661,9.6401,9.709,9.7789,9.8532,9.8895,9.9151,9.91,9.9049,9.9049,9.8998,9.9083,9.9337,9.9654,9.9901,10.1103,10.2113,10.2059,10.2455,10.2233,10.2594,10.2033,10.0999,9.9786,9.8823,9.7253,9.5899,9.5148,9.4434,9.4113,9.3971,9.3935,9.3935,9.3935,9.3935,9.3935,9.3935,9.3935,9.3935,9.3935,9.3935,9.3935,9.3935,9.3935,9.3935,9.3935,9.3935,9.3935,9.3935,8.7492,8.8741,8.8774,8.884,8.8938,8.8807,8.9596,9.1042,9.2325,9.364,9.4922,9.5021,9.5054,9.5284,9.5284,9.5284,9.5284,9.5284,9.5284,9.5284,9.5284,9.5284,9.5284,9.5284,9.5284,9.5284,9.5284,9.5284,9.5284,9.5284,9.5284,9.5284,9.5284,9.5284,9.5284,9.5284,9.5284,9.5284,9.5284,9.5284,9.5284,9.5284,9.5284,9.5284,9.5284,9.5284,9.5284,9.5284,9.5284,9.5284,9.5284,9.5284,9.5284,9.5284,9.5284,9.5284,9.5284,9.5284,9.5284,9.5284,9.5284,9.5284,9.5284,9.5284,9.5284,9.5284,9.5457,9.572,9.6319,9.6923,9.7497,9.811,9.848,9.8584,9.848,9.8427,9.8356,9.8303,9.8844,9.9269,9.9454,9.9837,10.0706,10.1571,10.2182,10.2639,10.3188,10.2783,10.1641,10.0713,10.0036,9.8612,9.7039,9.6218,9.5326,9.4613,9.3971,9.3935,9.3935,9.3935,9.3935,9.3935,9.3935,9.3935,9.3935,9.3935,9.3935,9.3935,9.3935,9.3935,9.3935,9.3935,9.3935,9.3935,9.3935,8.6954,8.7349,8.7382,8.7382,8.7382,8.7327,8.8116,8.9399,9.0023,9.1404,9.3679,9.3804,9.4265,9.5054,9.5218,9.5185,9.5251,9.5284,9.5284,9.5284,9.5284,9.5284,9.5284,9.5284,9.5284,9.5284,9.5284,9.5284,9.5284,9.5284,9.5284,9.5284,9.5284,9.5284,9.5284,9.5284,9.5284,9.5284,9.5284,9.5284,9.5284,9.5284,9.5284,9.5284,9.5284,9.5284,9.5284,9.5284,9.5284,9.5284,9.5284,9.5284,9.5284,9.5284,9.5284,9.5284,9.5284,9.5284,9.5284,9.5284,9.5284,9.5284,9.5284,9.5284,9.5284,9.5284,9.5284,9.5311,9.5543,9.5805,9.583,9.6343,9.6821,9.7179,9.7068,9.7179,9.7123,9.729,9.793,9.8758,9.9269,9.9654,10.0658,10.1776,10.2174,10.2339,10.2944,10.2956,10.2105,10.1534,10.0927,9.9607,9.7895,9.6932,9.6183,9.497,9.3935,9.3935,9.3935,9.3935,9.3935,9.3935,9.3935,9.3935,9.3935,9.3935,9.3935,9.3935,9.3935,9.3935,9.3935,9.3935,9.3935,9.3935,9.3935,8.6691,8.6691,8.6691,8.6691,8.6691,8.6691,8.7163,8.7985,8.8609,8.9957,9.1412,9.2128,9.3114,9.41,9.4429,9.4692,9.5218,9.5251,9.5284,9.5284,9.5251,9.5284,9.5284,9.5284,9.5284,9.5284,9.5284,9.5284,9.5284,9.5284,9.5284,9.5284,9.5284,9.5284,9.5284,9.5284,9.5284,9.5284,9.5284,9.5284,9.5284,9.5284,9.5284,9.5284,9.5284,9.5284,9.5284,9.5284,9.5284,9.5284,9.5284,9.5284,9.5284,9.5284,9.5284,9.5284,9.5284,9.5284,9.5284,9.5284,9.5284,9.5284,9.5284,9.5284,9.5284,9.5284,9.5284,9.5284,9.5371,9.5457,9.5311,9.5311,9.5284,9.5284,9.543,9.5517,9.5661,9.5863,9.6458,9.7789,9.855,9.9504,10.0706,10.1945,10.2069,10.2157,10.2859,10.3241,10.2711,10.214,10.132,10.0218,9.8005,9.6756,9.6254,9.5184,9.3971,9.3935,9.3935,9.3935,9.3935,9.3935,9.3935,9.3935,9.3935,9.3935,9.3935,9.3935,9.3935,9.3935,9.3935,9.3935,9.3935,9.3935,9.3935,8.6691,8.6691,8.6691,8.6691,8.6691,8.6691,8.6691,8.6987,8.8116,8.8675,8.9103,9.0221,9.1634,9.2719,9.3081,9.3607,9.4791,9.5054,9.4922,9.4955,9.5218,9.5251,9.5284,9.5284,9.5284,9.5284,9.5284,9.5284,9.5284,9.5284,9.5284,9.5284,9.5284,9.5284,9.5284,9.5284,9.5284,9.5284,9.5284,9.5284,9.5284,9.5284,9.5284,9.5284,9.5284,9.5284,9.5284,9.5284,9.5284,9.5284,9.5284,9.5284,9.5284,9.5284,9.5284,9.5284,9.5284,9.5284,9.5284,9.5284,9.5284,9.5284,9.5284,9.5284,9.5284,9.5284,9.5284,9.5284,9.5284,9.5284,9.5284,9.5284,9.5284,9.5284,9.5284,9.5284,9.5284,9.5251,9.5805,9.69,9.811,9.9354,10.0646,10.198,10.2367,10.2739,10.3384,10.3384,10.2925,10.2676,10.1855,10.0432,9.8148,9.6863,9.6397,9.5398,9.4292,9.3935,9.3935,9.3935,9.3935,9.3935,9.3935,9.3935,9.3935,9.3935,9.3935,9.3935,9.3935,9.3935,9.3935,9.3935,9.3935,9.3935,9.3935,8.6691,8.6691,8.6691,8.6691,8.6691,8.6691,8.6691,8.6724,8.7152,8.7283,8.759,8.8741,9.0155,9.1273,9.1503,9.1799,9.2193,9.318,9.3515,9.4041,9.4626,9.5054,9.5087,9.5185,9.5185,9.5284,9.5284,9.5185,9.5218,9.5284,9.5284,9.5284,9.5284,9.5284,9.5284,9.5284,9.5284,9.5284,9.5284,9.5284,9.5284,9.5284,9.5284,9.5284,9.5284,9.5284,9.5284,9.5284,9.5284,9.5284,9.5284,9.5284,9.5284,9.5284,9.5284,9.5284,9.5284,9.5284,9.5284,9.5284,9.5284,9.5284,9.5284,9.5284,9.5284,9.5284,9.5284,9.5284,9.5284,9.5284,9.5284,9.5284,9.5284,9.5284,9.5284,9.5284,9.5251,9.5371,9.5838,9.7123,9.848,9.9589,10.1057,10.2236,10.2859,10.3265,10.3384,10.3384,10.3277,10.3205,10.2176,10.0678,9.868,9.7288,9.6361,9.5184,9.447,9.3935,9.3935,9.3935,9.3935,9.3935,9.3935,9.3935,9.3935,9.3935,9.3935,9.3935,9.3935,9.3935,9.3935,9.3935,9.3935,9.3935,9.3935,8.6691,8.6691,8.6691,8.6691,8.6691,8.6691,8.6691,8.6691,8.6691,8.6691,8.6889,8.759,8.8281,8.907,8.9826,9.0319,9.1042,9.1832,9.2193,9.2456,9.2917,9.3673,9.4199,9.4363,9.4856,9.5021,9.5251,9.4988,9.4692,9.4791,9.5284,9.5284,9.5284,9.5218,9.5284,9.5284,9.5284,9.5284,9.5284,9.5284,9.5284,9.5284,9.5284,9.5284,9.5284,9.5284,9.5284,9.5284,9.5284,9.5284,9.5284,9.5284,9.5284,9.5284,9.5284,9.5284,9.5284,9.5284,9.5284,9.5284,9.5284,9.5284,9.5284,9.5284,9.5284,9.5284,9.5284,9.5284,9.5284,9.5284,9.5284,9.5284,9.5284,9.5284,9.5284,9.5284,9.5311,9.5371,9.598,9.751,9.8998,10.0646,10.2236,10.2859,10.3182,10.3384,10.3384,10.3384,10.3384,10.3384,10.239,10.0892,9.9322,9.761,9.6183,9.4863,9.4149,9.3935,9.3935,9.3935,9.3935,9.3935,9.3935,9.3935,9.3935,9.3935,9.3935,9.3935,9.3935,9.3935,9.3935,9.3935,9.3935,9.3935,9.3935,8.6691,8.6691,8.6691,8.6691,8.6691,8.6691,8.6691,8.6691,8.6691,8.6691,8.6724,8.679,8.6856,8.7218,8.8182,8.9234,9.0056,9.0516,9.0714,9.0812,9.124,9.2029,9.2752,9.2851,9.3443,9.4002,9.4626,9.4199,9.3377,9.3903,9.4561,9.4824,9.4791,9.512,9.5185,9.5284,9.5284,9.5284,9.5284,9.5284,9.5284,9.5284,9.5284,9.5284,9.5284,9.5284,9.5284,9.5284,9.5284,9.5284,9.5284,9.5284,9.5284,9.5284,9.5284,9.5284,9.5284,9.5284,9.5284,9.5284,9.5284,9.5284,9.5284,9.5284,9.5284,9.5284,9.5284,9.5284,9.5284,9.5284,9.5284,9.5284,9.5284,9.5284,9.5284,9.5284,9.5251,9.5371,9.6237,9.7694,9.9504,10.1334,10.2489,10.2944,10.3384,10.3384,10.3384,10.3384,10.3384,10.3384,10.267,10.1213,9.9643,9.7574,9.5968,9.4684,9.4078,9.3935,9.3935,9.3935,9.3935,9.3935,9.3935,9.3935,9.3935,9.3935,9.3935,9.3935,9.3935,9.3935,9.3935,9.3935,9.3935,9.3935,9.3935,8.6691,8.6691,8.6691,8.6691,8.6691,8.6691,8.6691,8.6691,8.6691,8.6691,8.6691,8.6691,8.6691,8.679,8.7086,8.7349,8.7557,8.8872,8.9201,8.9431,9.0188,9.0944,9.1338,9.1437,9.1667,9.2423,9.2884,9.2785,9.1766,9.1963,9.2588,9.3245,9.3574,9.4035,9.4824,9.4791,9.5251,9.5284,9.5284,9.5284,9.5284,9.5284,9.5284,9.5284,9.5284,9.5284,9.5284,9.5284,9.5284,9.5284,9.5284,9.5284,9.5284,9.5284,9.5284,9.5284,9.5284,9.5284,9.5284,9.5284,9.5284,9.5284,9.5284,9.5284,9.5284,9.5284,9.5284,9.5284,9.5284,9.5284,9.5284,9.5284,9.5284,9.5284,9.5284,9.5284,9.5284,9.5661,9.6515,9.7984,9.9999,10.1114,10.1516,10.1989,10.2817,10.2901,10.3265,10.3265,10.3384,10.3384,10.2991,10.1534,9.9821,9.7681,9.5647,9.4327,9.4042,9.3935,9.3935,9.3935,9.3935,9.3935,9.3935,9.3935,9.3935,9.3935,9.3935,9.3935,9.3935,9.3935,9.3935,9.3935,9.3935,9.3935,9.3935,8.6691,8.6691,8.6691,8.6691,8.6691,8.6691,8.6691,8.6691,8.6691,8.6691,8.6691,8.6691,8.6691,8.6691,8.6691,8.6691,8.6889,8.7557,8.7755,8.7853,8.8544,8.9192,8.9925,8.9957,9.0286,9.0845,9.0911,9.0582,9.0056,9.0516,9.1437,9.1996,9.2095,9.2423,9.3048,9.3311,9.3114,9.3344,9.3804,9.4199,9.4199,9.5021,9.5218,9.5284,9.5284,9.5284,9.5284,9.5284,9.5251,9.5251,9.5284,9.5284,9.5284,9.5284,9.5284,9.5284,9.5284,9.5284,9.5284,9.5284,9.5284,9.5284,9.5284,9.5284,9.5284,9.5284,9.5284,9.5284,9.5284,9.5284,9.5284,9.5284,9.5284,9.5284,9.5284,9.5284,9.543,9.5922,9.6765,9.7877,9.9015,9.9768,10.0386,10.1379,10.2157,10.2696,10.3063,10.3224,10.3384,10.3384,10.3348,10.1891,10.0357,9.7788,9.5005,9.4256,9.3935,9.3935,9.3935,9.3935,9.3935,9.3935,9.3935,9.3935,9.3935,9.3935,9.3935,9.3935,9.3935,9.3935,9.3935,9.3935,9.3935,9.3935,9.3935,8.6691,8.6691,8.6691,8.6691,8.6691,8.6691,8.6691,8.6691,8.6691,8.6691,8.6691,8.6691,8.6691,8.6691,8.6691,8.6691,8.6691,8.6856,8.6889,8.6889,8.702,8.7514,8.8379,8.8511,8.9004,8.9629,8.9234,8.8675,8.8807,8.9629,9.0023,9.0516,9.0615,9.0911,9.1141,9.101,9.1371,9.1667,9.2292,9.2752,9.2949,9.3607,9.41,9.4067,9.4002,9.433,9.4626,9.4856,9.5054,9.5218,9.5251,9.4922,9.4363,9.4232,9.4429,9.4626,9.4692,9.4889,9.5218,9.5284,9.5284,9.5284,9.5284,9.5284,9.5284,9.5284,9.5284,9.5284,9.5284,9.5284,9.5284,9.5284,9.5284,9.5284,9.5284,9.5284,9.5517,9.6179,9.7123,9.7012,9.7552,9.8288,9.9619,10.0753,10.1856,10.2774,10.3063,10.3342,10.3384,10.3384,10.3205,10.2028,10.0606,9.7574,9.4863,9.4613,9.3935,9.3935,9.3935,9.3935,9.3935,9.3935,9.3935,9.3935,9.3935,9.3935,9.3935,9.3935,9.3935,9.3935,9.3935,9.3935,9.3935,9.3935,9.3935,8.6691,8.6691,8.6691,8.6691,8.6691,8.6691,8.6691,8.6691,8.6691,8.6691,8.6691,8.6691,8.6691,8.6691,8.6691,8.6691,8.6691,8.6691,8.6691,8.6691,8.6691,8.6954,8.7119,8.7196,8.7393,8.7228,8.7228,8.713,8.7218,8.7349,8.8314,8.9037,8.9168,8.9563,9.0582,9.0878,9.0582,9.0516,9.0977,9.1306,9.1437,9.1667,9.1963,9.1996,9.2029,9.2489,9.3245,9.3541,9.3969,9.5152,9.5284,9.3936,9.2391,9.1667,9.2062,9.3351,9.3476,9.387,9.4528,9.4922,9.4988,9.5284,9.5152,9.5152,9.5152,9.5087,9.512,9.5185,9.5284,9.5284,9.5284,9.5284,9.5284,9.5284,9.5284,9.5284,9.5517,9.6401,9.6157,9.5905,9.635,9.714,9.848,9.962,10.1405,10.2817,10.3182,10.3384,10.3384,10.3277,10.2742,10.1743,9.9929,9.7217,9.6218,9.579,9.4149,9.3935,9.3935,9.3935,9.3935,9.3935,9.3935,9.3935,9.3935,9.3935,9.3935,9.3935,9.3935,9.3935,9.3935,9.3935,9.3935,9.3935,9.3935,8.6691,8.6691,8.6691,8.6691,8.6691,8.6691,8.6691,8.6691,8.6691,8.6691,8.6691,8.6691,8.6691,8.6691,8.6691,8.6691,8.6691,8.6691,8.6691,8.6691,8.6691,8.6691,8.6691,8.6691,8.6691,8.6724,8.6691,8.6691,8.6691,8.6823,8.7086,8.7656,8.7689,8.8248,8.8632,8.8632,8.883,8.884,8.9366,8.9826,9.0023,9.0484,9.0944,9.0944,9.101,9.1207,9.1897,9.1996,9.2391,9.2752,9.2917,9.2259,9.1141,9.0977,9.1273,9.1864,9.1996,9.2423,9.2752,9.2949,9.3048,9.2917,9.2949,9.3377,9.3969,9.4166,9.4429,9.5054,9.5218,9.5251,9.5284,9.5218,9.5284,9.5284,9.5284,9.5284,9.5107,9.4323,9.3545,9.3602,9.4863,9.5725,9.6581,9.7381,9.8862,10.0137,10.0574,10.0999,10.1142,10.0606,10.0606,10.0357,9.8751,9.7503,9.6789,9.554,9.365,9.3257,9.3328,9.3541,9.3364,9.3507,9.3757,9.3899,9.3864,9.3899,9.3935,9.3935,9.3935,9.3935,9.3935,9.3935,9.3935,9.3935,9.3935,8.6691,8.6691,8.6691,8.6691,8.6691,8.6691,8.6691,8.6691,8.6691,8.6691,8.6691,8.6691,8.6691,8.6691,8.6691,8.6691,8.6691,8.6691,8.6691,8.6691,8.6691,8.6691,8.6691,8.6691,8.6691,8.6691,8.6691,8.6691,8.6691,8.6691,8.6724,8.679,8.6921,8.6757,8.6889,8.7086,8.6724,8.6889,8.7787,8.8346,8.8577,8.9333,8.976,8.976,8.9793,9.0089,9.0385,9.0516,9.0352,9.0089,9.0023,8.999,8.976,8.976,9.0023,9.0352,9.0516,9.0681,9.0977,9.1207,9.101,9.124,9.1371,9.1437,9.2621,9.2654,9.3213,9.3969,9.433,9.4067,9.4002,9.4265,9.4067,9.3936,9.4035,9.41,9.3936,9.2416,9.151,9.1394,9.2266,9.2931,9.3434,9.5853,9.6852,9.7155,9.7784,9.817,9.7752,9.711,9.7288,9.761,9.6076,9.472,9.4042,9.3221,9.208,9.1723,9.24,9.2863,9.2437,9.2401,9.2722,9.3114,9.3507,9.3899,9.3935,9.3935,9.3864,9.3899,9.3935,9.3935,9.3935,9.3935,9.3935,8.6691,8.6691,8.6691,8.6691,8.6691,8.6691,8.6691,8.6691,8.6691,8.6691,8.6691,8.6691,8.6691,8.6691,8.6691,8.6691,8.6691,8.6691,8.6691,8.6691,8.6691,8.6691,8.6691,8.6691,8.6691,8.6691,8.6691,8.6691,8.6691,8.6691,8.6691,8.6691,8.6691,8.6691,8.6691,8.6691,8.6691,8.6757,8.7086,8.7185,8.7261,8.7481,8.7744,8.7711,8.7678,8.8116,8.8807,8.9004,8.8544,8.7283,8.7185,8.7415,8.7316,8.725,8.7755,8.8774,8.9103,8.9563,9.0549,9.0516,9.0714,9.0582,9.0648,9.1075,9.1108,9.1174,9.1371,9.1897,9.1437,9.1766,9.1799,9.1601,9.1733,9.1864,9.1503,9.1437,9.1338,9.1141,9.0944,9.1025,9.1966,9.3281,9.4455,9.5818,9.6901,9.6544,9.6225,9.629,9.5647,9.422,9.3685,9.4149,9.3257,9.1865,9.1473,9.101,9.0653,9.051,9.1401,9.1437,9.101,9.1045,9.1473,9.1936,9.2222,9.2651,9.3186,9.365,9.3792,9.3828,9.3899,9.3935,9.3935,9.3935,9.3935,8.6691,8.6691,8.6691,8.6691,8.6691,8.6691,8.6691,8.6691,8.6691,8.6691,8.6691,8.6691,8.6691,8.6691,8.6691,8.6691,8.6691,8.6691,8.6691,8.6691,8.6691,8.6691,8.6691,8.6691,8.6691,8.6691,8.6691,8.6691,8.6691,8.6691,8.6691,8.6691,8.6691,8.6691,8.6691,8.6691,8.6691,8.6691,8.6691,8.6691,8.6691,8.6691,8.6691,8.6691,8.6724,8.6921,8.7481,8.759,8.7327,8.6889,8.6691,8.6691,8.6691,8.6691,8.6954,8.7481,8.7645,8.782,8.8435,8.8501,8.8501,8.8478,8.8534,8.884,8.953,8.9727,9.0221,9.0681,9.0911,9.0944,9.0944,9.0944,9.0944,9.0648,8.9488,8.8534,8.8501,8.871,8.8799,8.9585,9.054,9.1768,9.3096,9.4256,9.5171,9.5495,9.472,9.3935,9.3364,9.1188,8.9904,9.0367,8.9975,8.9725,8.9404,8.9511,8.9333,8.9511,9.0011,8.9618,8.9333,8.9297,8.9797,9.0296,9.076,9.1259,9.1829,9.2364,9.2721,9.3221,9.3828,9.3935,9.3935,9.3935,9.3935,8.6045,8.6111,8.656,8.6691,8.6691,8.6691,8.6691,8.6691,8.6691,8.6691,8.6691,8.6691,8.6691,8.6691,8.6691,8.6691,8.6691,8.6691,8.6691,8.6691,8.6691,8.6691,8.6691,8.6691,8.6691,8.6691,8.6691,8.6691,8.6691,8.6691,8.6691,8.6691,8.6691,8.6691,8.6691,8.6691,8.6691,8.6691,8.6691,8.6691,8.6691,8.6691,8.6691,8.6691,8.6691,8.6724,8.6691,8.6691,8.6691,8.6691,8.6691,8.6691,8.6691,8.6691,8.6724,8.6823,8.6757,8.6757,8.679,8.6823,8.6757,8.6691,8.6987,8.7152,8.8215,8.8281,8.8774,8.9464,8.9826,8.9727,8.976,8.9694,8.9727,8.9586,8.8479,8.7629,8.7845,8.7645,8.7923,8.8798,9.0113,9.1173,9.2123,9.288,9.3288,9.3042,9.1794,9.0296,8.9939,8.8369,8.7121,8.7335,8.762,8.7549,8.7656,8.7977,8.8191,8.8334,8.8084,8.7656,8.7513,8.7442,8.787,8.8691,8.9261,9.0046,9.0581,9.0902,9.1473,9.1901,9.2472,9.2899,9.3149,9.3578,9.3507,8.4446,8.4697,8.6012,8.6461,8.6461,8.656,8.6527,8.6625,8.6691,8.6691,8.6691,8.6691,8.6691,8.6691,8.6691,8.6691,8.6691,8.6691,8.6691,8.6691,8.6691,8.6691,8.6691,8.6691,8.6691,8.6691,8.6691,8.6691,8.6691,8.6691,8.6691,8.6691,8.6691,8.6691,8.6691,8.6691,8.6691,8.6691,8.6691,8.6691,8.6691,8.6691,8.6691,8.6691,8.6691,8.6691,8.6691,8.6691,8.6691,8.6691,8.6691,8.6691,8.6691,8.6691,8.6691,8.6691,8.6691,8.6691,8.6691,8.6691,8.6691,8.6691,8.6691,8.679,8.6987,8.7064,8.725,8.7415,8.7349,8.7218,8.725,8.7283,8.7283,8.7129,8.7629,8.84,8.9648,8.9635,8.9212,8.978,9.1106,9.1962,9.1618,9.162,9.1683,9.1187,8.9333,8.8085,8.7371,8.6693,8.5194,8.5052,8.5515,8.5622,8.5979,8.6229,8.6265,8.63,8.6015,8.5694,8.548,8.5444,8.5694,8.6907,8.787,8.8726,8.9333,8.9368,8.969,9.0474,9.1081,9.1508,9.1972,9.2579,9.2793,8.302,8.3086,8.3612,8.3875,8.3993,8.4894,8.5256,8.5354,8.6296,8.6691,8.6658,8.6691,8.6691,8.6691,8.6691,8.6691,8.6691,8.6691,8.6691,8.6691,8.6691,8.6691,8.6691,8.6691,8.6691,8.6691,8.6691,8.6691,8.6691,8.6691,8.6691,8.6691,8.6691,8.6691,8.6691,8.6691,8.6691,8.6691,8.6691,8.6691,8.6691,8.6691,8.6691,8.6691,8.6691,8.6691,8.6691,8.6691,8.6691,8.6691,8.6691,8.6691,8.6691,8.6691,8.6691,8.6691,8.6691,8.6691,8.6691,8.6691,8.6691,8.6691,8.6691,8.6691,8.6691,8.6691,8.6691,8.6691,8.6691,8.6691,8.6691,8.6691,8.6691,8.6691,8.7164,8.7522,8.782,8.8026,8.7979,8.8122,8.8854,8.9247,8.9553,8.9602,9.0117,8.9868,8.8262,8.6907,8.6621,8.5515,8.498,8.4588,8.4516,8.4516,8.4516,8.4516,8.4516,8.4516,8.4516,8.4516,8.4516,8.4552,8.4621,8.5872,8.6229,8.7049,8.7727,8.7763,8.7977,8.8976,8.9832,9.0082,9.0224,9.101,9.1652,8.1146,8.1573,8.2001,8.2231,8.2362,8.3283,8.371,8.3875,8.4763,8.5309,8.5408,8.5749,8.5946,8.6012,8.656,8.6691,8.6658,8.6176,8.6209,8.6625,8.6691,8.6691,8.6691,8.6691,8.6691,8.6691,8.6691,8.6691,8.6691,8.6691,8.6691,8.6691,8.6691,8.6691,8.6691,8.6691,8.6691,8.6691,8.6691,8.6691,8.6691,8.6691,8.6691,8.6691,8.6691,8.6691,8.6691,8.6691,8.6691,8.6691,8.6691,8.6691,8.6691,8.6691,8.6691,8.6691,8.6691,8.6691,8.6691,8.6691,8.6691,8.6691,8.6691,8.6691,8.6691,8.6691,8.6691,8.6691,8.6691,8.6691,8.6691,8.6691,8.6691,8.6691,8.7037,8.7397,8.7593,8.7367,8.6821,8.6512,8.7161,8.766,8.7834,8.7972,8.8477,8.8369,8.7121,8.6086,8.6015,8.5123,8.4586,8.4516,8.4516,8.4516,8.4516,8.4516,8.4516,8.4516,8.4516,8.4516,8.4516,8.4516,8.4516,8.4873,8.4838,8.5194,8.5872,8.6265,8.6479,8.7192,8.812,8.8477,8.8548,8.9083,8.9832,7.8779,8.0055,8.1573,8.1799,8.1869,8.2099,8.2198,8.2264,8.2461,8.2724,8.2987,8.3875,8.4434,8.4664,8.5617,8.6461,8.6099,8.496,8.5058,8.6198,8.6428,8.6527,8.6527,8.6592,8.6691,8.6691,8.6691,8.6691,8.6691,8.6691,8.6691,8.6691,8.6691,8.6691,8.6691,8.6691,8.6691,8.6691,8.6691,8.6691,8.6691,8.6691,8.6691,8.6691,8.6691,8.6691,8.6691,8.6691,8.6691,8.6691,8.6691,8.6691,8.6691,8.6691,8.6691,8.6691,8.6691,8.6691,8.6691,8.6691,8.6691,8.6691,8.6691,8.6691,8.6691,8.6691,8.6691,8.6691,8.6691,8.6691,8.6691,8.6691,8.6625,8.6767,8.7203,8.7658,8.7828,8.7965,8.7432,8.6297,8.6702,8.7549,8.7436,8.7121,8.6908,8.6693,8.5729,8.4873,8.4873,8.4731,8.4516,8.4516,8.4516,8.4516,8.4516,8.4516,8.4516,8.4516,8.4516,8.4516,8.4516,8.4516,8.4516,8.4516,8.4516,8.4552,8.5301,8.5337,8.5444,8.5622,8.6229,8.6872,8.7121,8.7442,8.812,7.6684,7.7062,7.7619,7.8363,7.9403,8.0324,8.0784,8.0883,8.1771,8.2231,8.2264,8.2691,8.2921,8.302,8.3415,8.3697,8.3599,8.3151,8.3151,8.3763,8.4664,8.5124,8.5289,8.6231,8.6691,8.6691,8.6691,8.6691,8.6691,8.6691,8.6691,8.6691,8.6691,8.6691,8.6691,8.6691,8.6691,8.6691,8.6691,8.6691,8.6691,8.6691,8.6691,8.6691,8.6691,8.6691,8.6691,8.6691,8.6691,8.6691,8.6691,8.6691,8.6691,8.6691,8.6691,8.6691,8.6691,8.6691,8.6691,8.6691,8.6691,8.6691,8.6691,8.6691,8.6691,8.6691,8.6691,8.6691,8.6691,8.6691,8.6691,8.6658,8.6263,8.5342,8.5431,8.5349,8.4372,8.423,8.4252,8.4624,8.5347,8.5355,8.4825,8.5066,8.5306,8.5301,8.4978,8.4552,8.4516,8.4516,8.4516,8.4516,8.4516,8.4516,8.4516,8.4516,8.4516,8.4516,8.4516,8.4516,8.4516,8.4516,8.4516,8.4516,8.4516,8.4516,8.4552,8.4552,8.4588,8.4693,8.523,8.5765,8.5765,8.5979,8.6158,7.5663,7.5631,7.6184,7.6996,7.7989,7.896,7.9305,7.9403,8.0291,8.0653,8.0751,8.1212,8.1442,8.1409,8.0916,8.0949,8.1442,8.1442,8.1738,8.2297,8.3151,8.3612,8.371,8.4532,8.5309,8.5749,8.5815,8.6165,8.6625,8.6691,8.6691,8.6691,8.6691,8.6691,8.6691,8.6691,8.6691,8.6691,8.6691,8.6691,8.6691,8.6691,8.6691,8.6691,8.6691,8.6691,8.6691,8.6691,8.6691,8.6691,8.6691,8.6691,8.6691,8.6691,8.6691,8.6691,8.6691,8.6691,8.6691,8.6691,8.6691,8.6691,8.6691,8.6691,8.6691,8.6691,8.6691,8.6691,8.6691,8.6362,8.6078,8.5848,8.5256,8.3941,8.3612,8.327,8.2395,8.1789,8.1917,8.2855,8.3032,8.3222,8.3223,8.3896,8.4516,8.4516,8.4516,8.4516,8.4516,8.4516,8.4516,8.4516,8.4516,8.4516,8.4516,8.4516,8.4516,8.4516,8.4516,8.4516,8.4516,8.4516,8.4516,8.4516,8.4516,8.4516,8.4516,8.4516,8.4516,8.4552,8.4552,8.4873,8.4516,8.5052,8.4909,7.5663,7.582,7.723,7.7743,7.7973,7.8039,7.8006,7.8137,7.8071,7.8039,7.8368,7.9436,7.9995,7.9896,7.8746,7.8762,7.9896,7.9995,8.062,8.1705,8.2034,8.2099,8.2184,8.225,8.2987,8.4236,8.4249,8.496,8.6209,8.6461,8.6625,8.656,8.6658,8.6691,8.6691,8.6691,8.6691,8.6691,8.6691,8.6691,8.6691,8.6494,8.6263,8.6066,8.6362,8.6198,8.6198,8.6395,8.6428,8.6461,8.6296,8.6362,8.6395,8.6362,8.6296,8.6329,8.6362,8.6395,8.6296,8.6231,8.6263,8.6362,8.6132,8.6395,8.6329,8.6362,8.6407,8.6658,8.6231,8.5256,8.4072,8.3559,8.3184,8.2001,8.1935,8.2005,8.199,8.0857,8.0691,8.1597,8.1228,8.1472,8.2987,8.3931,8.4449,8.4516,8.4516,8.4516,8.4516,8.4516,8.4516,8.4516,8.4516,8.4516,8.4516,8.4516,8.4516,8.4516,8.4516,8.4516,8.4516,8.4516,8.4516,8.4516,8.4516,8.4516,8.4516,8.4516,8.4516,8.4516,8.4516,8.4516,8.4516,8.4516,8.4516,7.5663,7.5683,7.6081,7.6913,7.7891,7.7973,7.7973,7.7973,7.7973,7.7973,7.8006,7.8368,7.8565,7.8499,7.8137,7.8137,7.8532,7.8532,7.8762,7.919,8.0225,8.0686,8.0817,8.1672,8.2428,8.2757,8.279,8.302,8.348,8.4434,8.5026,8.519,8.6111,8.6691,8.6691,8.6691,8.6691,8.6658,8.6691,8.6691,8.6362,8.4619,8.2921,8.2099,8.2888,8.2921,8.2001,8.2888,8.3467,8.3447,8.3415,8.3447,8.3415,8.3415,8.3415,8.3415,8.35,8.3415,8.35,8.3415,8.35,8.3415,8.3467,8.3928,8.4763,8.5026,8.5486,8.6132,8.3743,8.1409,7.9945,7.9682,7.9601,7.9173,7.9074,7.9453,8.0123,7.9964,8.0341,8.2292,8.1831,8.2616,8.3755,8.4241,8.4374,8.4409,8.4481,8.4516,8.4516,8.4516,8.4516,8.4516,8.4516,8.4516,8.4516,8.4516,8.4516,8.4516,8.4516,8.4516,8.4516,8.4516,8.4516,8.4516,8.4516,8.4516,8.4516,8.4516,8.4516,8.4516,8.4516,8.4516,8.4516,8.4516,8.4516,7.6609,7.6557,7.6525,7.7097,7.7891,7.7973,7.7973,7.7973,7.7973,7.7973,7.7973,7.7973,7.7973,7.7973,7.7973,7.7973,7.7973,7.7973,7.7973,7.8039,7.8779,7.9206,7.9272,8.0094,8.0835,8.131,8.1343,8.1639,8.2231,8.3053,8.3513,8.3612,8.4335,8.4882,8.4882,8.4882,8.4861,8.4828,8.4882,8.4882,8.4565,8.2527,8.0949,8.0225,8.0324,8.0028,7.9403,7.9995,8.0506,8.0455,8.0455,8.0455,8.0488,8.0455,8.0455,8.0488,8.0488,8.0488,8.0488,8.0455,8.0506,8.0423,8.0488,8.1113,8.2461,8.2606,8.2935,8.3447,8.1164,7.8614,7.7398,7.7069,7.6839,7.6328,7.6229,7.6557,7.7547,7.768,7.8554,8.0616,8.1023,8.1386,8.2394,8.2661,8.2911,8.3553,8.4264,8.4481,8.4516,8.4516,8.4516,8.4516,8.4516,8.4516,8.4516,8.4516,8.4516,8.4516,8.4516,8.4516,8.4516,8.4516,8.4516,8.4516,8.4516,8.4516,8.4516,8.4516,8.4516,8.4516,8.4516,8.4516,8.4516,8.4516,8.4516,7.7463,7.7578,7.7562,7.7775,7.7742,7.7874,7.7973,7.7973,7.7973,7.7907,7.771,7.7742,7.7775,7.794,7.7973,7.7973,7.7973,7.7973,7.7973,7.7973,7.7973,7.7973,7.8039,7.8039,7.8614,7.9765,7.9896,8.0488,8.154,8.1756,8.1869,8.2001,8.2217,8.233,8.2297,8.2297,8.2264,8.2231,8.1888,8.154,8.1343,8.0159,7.9436,7.9305,7.8154,7.7529,7.7183,7.7479,7.7578,7.7578,7.7562,7.7546,7.7595,7.7529,7.7529,7.7595,7.7546,7.7546,7.7513,7.7562,7.7578,7.7578,7.7726,7.845,7.9798,7.9798,7.9732,7.9535,7.8466,7.6887,7.567,7.5129,7.4537,7.3715,7.3617,7.391,7.4998,7.5131,7.5939,7.7933,7.8746,7.8744,8.0043,8.031,8.0631,8.1876,8.2875,8.366,8.3946,8.4053,8.4053,8.3946,8.4231,8.4195,8.4231,8.4338,8.4516,8.4516,8.4516,8.4516,8.4516,8.4516,8.4516,8.4516,8.4516,8.4516,8.4516,8.4516,8.4516,8.4516,8.4516,8.4516,8.4516,8.4516,8.4516,7.4669,7.4767,7.5819,7.6247,7.6345,7.7479,7.7973,7.7973,7.794,7.7348,7.6426,7.628,7.6872,7.7907,7.7973,7.794,7.7973,7.7973,7.794,7.7973,7.7973,7.7973,7.7973,7.7973,7.8137,7.84,7.8466,7.8598,7.8894,7.8927,7.9436,8.0587,8.1672,8.2231,8.2231,8.2231,8.2231,8.2001,7.8993,7.6707,7.5655,7.5293,7.4603,7.3663,7.4241,7.411,7.3136,7.4044,7.4636,7.4636,7.4636,7.4622,7.4669,7.4636,7.4636,7.4669,7.4669,7.4636,7.4636,7.4636,7.4636,7.4669,7.5622,7.6904,7.8105,7.7431,7.674,7.6609,7.5425,7.4011,7.2709,7.1512,7.1085,7.1952,7.2018,7.2808,7.481,7.5932,7.6886,7.8076,7.9017,7.9483,7.9819,7.9918,7.9989,8.0275,8.0699,8.1484,8.2483,8.2733,8.2162,8.1591,8.1983,8.2697,8.2804,8.3625,8.4267,8.4516,8.4445,8.4374,8.4443,8.4481,8.4516,8.4516,8.4516,8.4516,8.4516,8.4516,8.4516,8.4516,8.4516,8.4516,8.4516,8.4516,8.4516,7.3069,7.3734,7.4537,7.4833,7.4899,7.5655,7.5984,7.5951,7.5951,7.5524,7.4866,7.4833,7.526,7.5951,7.5951,7.5984,7.6017,7.669,7.6986,7.7019,7.7644,7.7973,7.7973,7.7973,7.7973,7.7973,7.7973,7.7973,7.7973,7.7973,7.8368,7.9074,7.9881,8.0309,8.0276,8.0276,7.9896,7.9239,7.7003,7.5425,7.4702,7.4011,7.3649,7.3498,7.217,7.1545,7.1557,7.1578,7.1973,7.2663,7.2038,7.1631,7.1599,7.0986,7.0361,6.9737,6.9627,6.9671,6.9671,7.0263,7.0657,7.0723,7.2597,7.4208,7.4965,7.4307,7.3518,7.286,7.2137,7.1052,6.9605,6.9309,6.9529,7.0394,7.046,7.1208,7.2885,7.3757,7.459,7.5976,7.6763,7.7226,7.7712,7.7743,7.7921,7.8706,7.8808,7.945,8.0913,8.0556,7.9986,8.0025,8.0596,8.1095,8.1166,8.1912,8.234,8.2412,8.2982,8.3446,8.3482,8.4229,8.4445,8.4516,8.4516,8.4516,8.4516,8.4516,8.4516,8.4516,8.4516,8.4516,8.4516,8.4516,8.4516,7.175,7.309,7.3288,7.3261,7.3075,7.3491,7.3589,7.3351,7.313,7.3012,7.3058,7.3288,7.3353,7.3386,7.3584,7.3669,7.3781,7.4932,7.5491,7.5556,7.6821,7.7381,7.7381,7.7578,7.7545,7.7413,7.7775,7.7742,7.7413,7.7512,7.7644,7.7644,7.7644,7.771,7.7644,7.7479,7.6657,7.5275,7.5195,7.5096,7.4866,7.3682,7.3748,7.4932,7.1315,6.9824,7.1118,6.9737,6.9539,7.0801,6.9605,6.8904,6.8838,6.8027,6.6745,6.5397,6.543,6.5561,6.5627,6.6646,6.7337,6.7501,6.9945,7.1459,7.1261,7.159,7.1249,6.9989,6.9627,6.8641,6.7633,6.805,6.8411,6.8543,6.874,6.9259,7.0105,7.0666,7.1671,7.3393,7.3594,7.4231,7.5309,7.5455,7.599,7.6882,7.7203,7.7702,7.8594,7.8059,7.7916,7.8884,7.9383,7.9562,7.9629,7.9704,8.0168,7.9918,8.1095,8.1912,8.1912,8.2768,8.3446,8.3767,8.3553,8.3625,8.3696,8.405,8.4053,8.4053,8.4407,8.4516,8.4516,8.3946,8.3767,6.8788,7.0087,7.1348,7.1194,7.0349,7.2673,7.2989,7.1848,0.0,0.0,0.0,7.1348,7.1874,7.1985,7.3123,7.3669,7.3715,7.3945,7.4077,7.411,7.4307,7.4439,7.4471,7.5589,7.5604,7.4603,7.6773,7.6755,7.457,7.5589,7.6181,7.6181,7.6181,7.6148,7.6082,7.4997,7.3715,7.238,7.2281,7.1644,7.0427,7.012,7.0723,7.2248,7.0263,6.9331,6.9594,6.8224,6.7567,6.7797,6.76,6.7435,6.7468,6.8323,6.8224,6.6843,6.7797,6.8487,6.8444,6.8674,6.8806,6.8806,7.0493,7.1031,6.9737,7.1874,7.3189,7.2926,7.0613,6.9069,6.8838,6.6998,6.5693,6.5684,6.6745,6.7487,6.7805,6.9481,7.1021,7.2368,7.3114,7.4023,7.5014,7.5205,7.5383,7.5597,7.5776,7.5812,7.5954,7.5954,7.5919,7.6382,7.7346,7.7952,7.813,7.888,7.9847,7.9633,7.9989,8.031,8.031,8.0524,8.0667,8.0988,8.0703,8.081,8.0845,8.1841,8.259,8.2626,8.366,8.4516,8.4302,8.259,8.1306,6.8012,0.0,7.0033,6.9939,0.0,7.0815,7.0208,6.8297,6.891,6.9233,6.9233,7.0033,7.0361,7.0394,7.1085,7.1019,7.0361,7.1073,7.0974,7.0394,7.1085,7.1369,7.1434,7.2137,7.2137,7.1512,7.286,7.2762,7.1467,7.2137,7.2499,7.242,7.3255,7.4011,7.4669,7.4044,7.2203,6.932,7.0768,7.1162,7.0427,7.0394,7.0723,7.1426,6.9309,0.0,0.0,0.0,0.0,0.0,0.0,0.0,0.0,0.0,0.0,6.395,6.4476,6.483,6.4904,6.5528,6.5989,6.5989,6.7337,6.7863,6.7139,6.8389,6.9276,6.9211,6.7961,6.7041,6.7041,6.5791,6.4904,6.4969,6.5561,6.5989,6.6146,6.749,6.8844,6.988,7.1479,7.2863,7.3874,7.4706,7.5205,7.5241,7.5241,7.5276,7.5241,7.5241,7.5241,7.5276,7.599,7.6382,7.6489,7.7167,7.7493,7.7636,7.8202,7.863,7.8701,7.9348,7.9918,7.9918,7.9918,7.9918,7.9954,8.0485,8.1056,8.1127,8.1662,8.2162,8.2126,8.102,8.0168,6.719,6.8378,6.8411,6.8249,6.8042,6.8292,6.7137,6.523,6.7431,6.8378,6.8378,6.8411,6.8247,6.7951,6.7984,6.7501,6.6745,6.76,6.7534,6.6712,6.7863,6.8378,6.8411,6.8641,6.8641,6.8411,6.8937,6.8937,6.8378,6.8674,6.8806,6.8806,7.0033,7.1294,7.2367,0.0,0.0,0.0,6.9178,7.0263,7.0307,7.0307,7.0406,7.0636,6.8027,0.0,6.6613,6.5298,6.4969,6.5758,6.5002,0.0,0.0,0.0,0.0,0.0,0.0,0.0,0.0,0.0,0.0,0.0,6.3892,6.4542,6.4542,6.4805,6.4904,6.4904,6.4403,6.4147,6.4114,6.3884,6.372,6.3753,6.418,6.4509,6.4542,6.5421,6.6413,6.7333,6.9163,7.0829,7.2011,7.3571,7.4526,7.4676,7.5027,7.5098,7.4813,7.4991,7.5205,7.5241,7.5276,7.5276,7.5241,7.5312,7.5526,7.5383,7.6347,7.7025,7.7203,7.8135,7.8955,7.8884,7.9027,7.892,7.892,7.9272,7.9419,7.9486,7.9704,7.9704,7.9134,7.9027,7.9098,6.43,6.5454,6.5495,6.4803,6.3876,6.5004,6.5281,6.4993,6.5314,6.5495,6.5495,6.5495,6.4772,6.3628,6.3595,6.418,6.5134,6.4082,6.418,6.5199,6.5397,6.5495,6.5528,6.6712,6.6712,6.5586,6.8017,6.7918,6.552,6.6745,6.7304,6.7337,6.7576,6.7698,6.7863,6.6679,6.6383,6.7008,6.6219,6.5791,6.5791,6.5758,6.635,6.7468,6.6054,6.5199,6.5199,6.3786,6.2608,6.1583,6.251,6.251,6.132,6.3391,6.4016,0.0,6.3654,0.0,0.0,0.0,0.0,0.0,0.0,0.0,0.0,6.4213,6.4904,6.4904,6.2635,6.1188,6.1188,6.007,5.931,5.9413,6.1517,6.3069,6.3135,6.4301,6.5475,6.6525,6.6918,6.7781,6.9512,7.1036,7.2339,7.3126,7.4206,7.4492,7.3593,7.4277,7.5098,7.5241,7.5241,7.5241,7.5241,7.5241,7.5241,7.5241,7.549,7.549,7.5633,7.5812,7.5954,7.5888,7.6031,7.599,7.5847,7.7025,7.7809,7.7845,7.8737,7.8706,7.6632,7.6026,7.6311,6.4407,6.4895,6.4904,6.3625,6.1815,6.3117,6.372,6.3786,6.4608,6.4904,6.4904,6.4904,6.4114,6.2773,6.2773,6.2668,6.2503,6.1918,6.1484,6.1353,6.0531,6.0207,6.0202,6.1648,6.1977,6.1484,6.3457,6.3786,6.2635,6.3161,6.3884,6.4681,6.4681,6.4319,6.3523,6.3694,6.4016,6.4681,6.4049,6.4147,6.4904,6.4904,6.4838,6.4681,6.4089,6.3358,6.2569,6.1155,6.0136,5.9474,6.007,6.0136,5.9544,6.1418,6.2273,0.0,0.0,0.0,0.0,0.0,0.0,0.0,0.0,0.0,0.0,0.0,6.2536,6.2536,6.1385,6.1029,6.1753,6.0531,5.938,5.8591,6.0333,6.1287,6.0498,6.2081,6.3554,6.4559,6.5861,6.7172,6.8416,6.9972,7.1148,7.1538,7.2208,7.2351,7.1852,7.2922,7.3986,7.4021,7.467,7.5241,7.5241,7.5241,7.5241,7.5241,7.5241,7.5241,7.5241,7.5241,7.5241,7.5241,7.5241,7.5241,7.5241,7.5847,7.6275,7.624,7.6168,7.549,7.4206,7.4599,7.5383,6.3486,6.3445,6.3198,6.1807,5.9923,6.097,6.1619,6.195,6.3029,6.3642,6.395,6.3917,6.3173,6.1859,6.1221,6.0635,6.0185,5.9531,5.8958,5.8422,5.7013,5.6357,5.6423,5.7473,5.7999,5.8098,5.9446,5.9939,5.9643,5.9972,6.0695,6.172,6.1786,6.1391,6.0695,6.1753,6.2115,6.1753,6.2115,6.2806,6.3884,6.3917,6.3391,6.2312,6.195,6.1254,6.0169,5.8755,5.7999,5.7999,5.8291,5.8488,5.8488,5.9873,0.0,0.0,0.0,0.0,0.0,0.0,0.0,0.0,0.0,5.8192,6.0005,0.0,5.9906,0.0,6.0333,6.0432,6.1194,6.0602,0.0,0.0,5.961,6.0202,5.915,6.0355,6.1531,6.2237,6.4136,6.5726,6.6541,6.8428,6.9586,6.9426,6.9711,6.9961,6.9996,7.1316,7.238,7.2451,7.3279,7.4099,7.4028,7.4135,7.4063,7.4135,7.4099,7.4135,7.4099,7.4135,7.4099,7.4099,7.4135,7.4135,7.4028,7.4099,7.4099,7.4028,7.3201,7.2344,7.238,7.3207,7.4099,5.9401,5.9278,5.824,5.7684,5.7422,5.7547,5.8252,5.92,5.9328,5.9959,6.0958,6.1029,6.0283,5.9062,5.6697,0.0,5.8911,5.6305,5.6385,5.8422,5.7048,5.6357,5.6357,5.6489,5.6555,5.6588,5.7999,5.7999,5.6884,5.8032,5.8751,5.8854,5.8887,5.9446,6.0563,6.0761,6.0169,5.8887,6.0169,6.0898,6.0991,6.0991,6.0963,6.0794,5.9544,5.8821,5.8656,5.7276,5.6522,5.6588,5.7802,5.8488,5.8521,0.0,0.0,0.0,0.0,0.0,0.0,0.0,0.0,0.0,0.0,0.0,0.0,0.0,0.0,6.0399,5.9478,0.0,5.7016,5.7966,0.0,0.0,0.0,6.0634,6.0465,5.9983,5.9706,5.9774,0.0,0.0,6.2582,6.5323,6.6923,6.6207,6.733,6.823,6.8257,6.9648,7.0746,7.071,7.0888,7.096,7.1245,7.1174,7.1209,7.1209,7.0888,7.1102,7.1102,7.1102,7.0995,7.1138,7.096,7.1031,7.096,7.0995,7.0924,7.0924,7.0781,7.0774,7.0746,7.0995,7.1209,5.8063,5.681,5.7074,5.6707,5.6065,5.6819,5.7379,5.774,5.7799,5.8513,5.9523,5.8844,5.7829,5.6477,5.5453,0.0,0.0,0.0,5.6864,5.8389,5.6092,5.5467,5.6259,5.5401,5.5434,5.6423,5.7835,5.7769,5.6357,5.7802,5.8488,5.8525,0.0,0.0,6.0596,6.0629,5.9939,5.8624,5.9084,5.9347,5.9347,6.0202,6.0235,5.938,5.8821,5.8098,5.7246,5.5763,5.5369,5.6325,5.6917,5.721,0.0,0.0,0.0,0.0,0.0,0.0,0.0,0.0,0.0,0.0,0.0,5.2344,5.4349,0.0,0.0,0.0,5.7542,5.767,5.8858,5.9446,0.0,0.0,0.0,0.0,0.0,0.0,0.0,5.8429,5.9367,6.0719,6.2111,6.2155,6.2252,6.283,6.389,6.4946,6.5808,0.0,6.9041,6.9041,6.9889,7.0531,7.0531,7.0531,7.0531,7.0531,7.0531,7.0531,7.0531,7.0531,7.0531,7.0531,7.0531,7.0531,7.0531,6.889,6.7642,6.7642,6.8391,6.897,6.9041,6.9854,7.0531,5.6942,0.0,0.0,0.0,0.0,5.5756,5.6297,5.6508,5.6626,5.7292,5.8315,5.7113,0.0,0.0,0.0,0.0,0.0,0.0,5.6882,5.7849,5.5753,5.5073,5.5664,5.504,5.504,5.573,5.721,5.7341,5.6456,5.7802,5.8488,5.8488,0.0,0.0,0.0,0.0,5.9117,5.7371,5.7703,5.79,5.79,5.8887,5.892,5.7933,5.7473,5.6782,5.573,5.4644,5.4777,5.6292,5.6357,0.0,0.0,0.0,0.0,0.0,0.0,0.0,0.0,0.0,0.0,0.0,0.0,0.0,0.0,0.0,0.0,0.0,0.0,0.0,5.7933,5.8492,5.8361,0.0,0.0,0.0,0.0,0.0,0.0,0.0,0.0,0.0,6.0844,5.9516,5.9123,0.0,0.0,6.3034,6.4073,6.6008,6.7365,6.7365,6.8391,0.0,6.9176,6.914,6.9176,6.9176,6.9176,6.9203,6.9176,6.914,6.9176,6.914,6.914,6.8855,6.7963,6.5894,6.4502,6.4431,6.5251,6.5974,6.6117,6.7321,6.8427,0.0,0.0,0.0,0.0,0.0,0.0,0.0,0.0,5.5317,5.5941,0.0,5.566,0.0,0.0,0.0,0.0,0.0,5.5153,0.0,0.0,5.6446,5.55,5.4348,5.5599,5.5533,5.4249,5.5763,5.6456,5.6423,5.7802,0.0,0.0,0.0,0.0,0.0,0.0,5.7108,5.4381,5.5664,5.6423,5.6423,5.6522,5.6489,5.6423,5.5005,5.4249,5.4151,5.4085,5.4742,5.6292,5.6357,0.0,0.0,0.0,0.0,0.0,0.0,0.0,0.0,0.0,0.0,0.0,0.0,0.0,0.0,0.0,0.0,0.0,0.0,0.0,0.0,5.3395,0.0,0.0,0.0,0.0,0.0,0.0,0.0,0.0,0.0,0.0,5.7805,5.7568,5.8415,6.0657,0.0,0.0,0.0,0.0,6.5751,6.5787,6.5822,6.5858,6.5894,6.5894,6.5858,6.5858,0.0,0.0,6.5858,6.5858,6.5858,6.5858,6.5858,6.493,6.2101,6.1708,6.1458,6.1387,6.1601,6.1351,6.1398,6.2932,6.3835,0.0,0.0,0.0,0.0,0.0,0.0,0.0,0.0,0.0,4.983,5.0773,4.9668,0.0,0.0,0.0,0.0,0.0,0.0,0.0,0.0,5.6369,5.6826,5.7181,5.6625,5.6588,0.0,5.7506,5.7312,0.0,0.0,0.0,0.0,0.0,0.0,0.0,0.0,5.6125,5.4151,5.4545,5.4841,5.4908,5.5864,5.6357,5.6357,5.4841,5.4018,5.4018,5.4018,5.5169,0.0,0.0,0.0,0.0,0.0,0.0,0.0,0.0,0.0,0.0,0.0,0.0,0.0,0.0,0.0,0.0,0.0,0.0,0.0,0.0,0.0,0.0,0.0,5.2672,0.0,0.0,0.0,0.0,0.0,0.0,0.0,0.0,0.0,5.4839,5.4605,5.5438,5.7691,5.8892,5.9928,6.0934,0.0,0.0,0.0,0.0,0.0,0.0,0.0,6.4156,6.4156,6.3325,6.2647,6.2647,6.2672,6.2672,6.2647,0.0,0.0,6.2576,6.3396,6.3789,6.279,6.2551,6.2255,6.1244,6.1494,6.1827,0.0,0.0,0.0,0.0,0.0,0.0,0.0,0.0,0.0,4.6294,4.6918,0.0,0.0,0.0,0.0,0.0,0.0,0.0,0.0,0.0,0.0,0.0,5.7278,5.7148,0.0,0.0,0.0,0.0,0.0,0.0,0.0,0.0,0.0,0.0,0.0,0.0,5.4843,5.3395,5.3296,5.3329,5.3329,5.4316,5.4877,5.4877,5.3889,5.3559,5.4052,0.0,0.0,0.0,0.0,0.0,0.0,0.0,0.0,0.0,0.0,0.0,0.0,0.0,0.0,0.0,0.0,0.0,0.0,0.0,0.0,0.0,0.0,0.0,0.0,0.0,4.9713,0.0,0.0,0.0,0.0,0.0,0.0,0.0,0.0,0.0,0.0,0.0,5.4342,5.578,5.6885,5.7822,5.8672,5.9859,6.1065,0.0,0.0,0.0,0.0,0.0,0.0,0.0,0.0,0.0,0.0,0.0,0.0,0.0,0.0,5.9793,6.0839,6.1838,6.223,6.1231,0.0,0.0,0.0,0.0,0.0,0.0,0.0,0.0,0.0,0.0,0.0,0.0,0.0,0.0,0.0,4.5545,0.0,0.0,4.5312,0.0,0.0,0.0,0.0,0.0,0.0,0.0,0.0,0.0,0.0,0.0,0.0,0.0,0.0,0.0,0.0,0.0,0.0,0.0,0.0,0.0,0.0,5.3362,5.1949,5.1949,5.1916,5.1916,5.1916,5.1982,5.1982,5.1916,5.2541,5.3921,0.0,0.0,0.0,0.0,0.0,0.0,0.0,0.0,0.0,0.0,0.0,0.0,0.0,0.0,0.0,0.0,0.0,0.0,0.0,0.0,0.0,0.0,0.0,0.0,0.0,0.0,4.5636,4.9251,5.1127,0.0,0.0,0.0,0.0,0.0,0.0,0.0,0.0,0.0,0.0,5.6558,5.7297,5.6742,5.8498,5.9965,6.0044,6.0599,6.103,6.1137,6.1066,6.097,0.0,0.0,0.0,0.0,0.0,0.0,0.0,0.0,0.0,0.0,0.0,0.0,0.0,0.0,0.0,0.0,0.0,0.0,0.0,0.0,0.0,0.0,0.0,0.0,0.0,0.0,0.0,0.0,0.0,0.0,0.0,0.0,0.0,0.0,0.0,0.0,0.0,0.0,0.0,0.0,0.0,0.0,0.0,0.0,0.0,0.0,0.0,0.0,0.0,0.0,0.0,0.0,0.0,0.0,5.3363,5.1916,5.1916,5.1916,5.1916,5.1916,5.1916,5.1916,5.1916,5.2114,0.0,0.0,0.0,0.0,0.0,0.0,0.0,0.0,0.0,0.0,0.0,0.0,0.0,0.0,0.0,0.0,0.0,0.0,0.0,0.0,0.0,0.0,0.0,0.0,0.0,0.0,0.0,0.0,4.5702,4.613,4.6721,0.0,0.0,0.0,0.0,0.0,0.0,0.0,0.0,0.0,0.0,5.6663,5.6436,5.7017,5.7905,5.897,5.9246,5.9793,6.0863,6.0078,5.9401,5.9401,0.0,0.0,0.0,0.0,0.0,0.0,0.0,0.0,0.0,0.0,0.0,0.0,0.0,0.0,0.0,0.0,0.0,0.0,0.0,0.0,0.0,0.0,0.0,0.0,0.0,0.0,0.0,0.0,0.0,0.0,0.0,0.0,0.0,0.0,0.0,0.0,0.0,0.0,0.0,0.0,0.0,0.0,0.0,0.0,0.0,0.0,0.0,0.0,0.0,0.0,0.0,0.0,0.0,5.2771,5.1916,5.1916,5.1916,5.1916,5.1916,5.1916,5.1916,5.1916,5.2146,0.0,0.0,0.0,0.0,0.0,0.0,0.0,0.0,0.0,0.0,0.0,0.0,0.0,0.0,0.0,0.0,0.0,0.0,0.0,0.0,0.0,0.0,0.0,0.0,0.0,0.0,0.0,0.0,4.3894,4.3927,4.5308,0.0,0.0,0.0,0.0,0.0,0.0,0.0,0.0,0.0,0.0,5.5572,5.5537,5.5765,0.0,0.0,5.7633,5.8129,5.9115,5.8437,5.7831,5.7808,5.7023,0.0,0.0,0.0,0.0,0.0,0.0,0.0,0.0,0.0,0.0,0.0,0.0,0.0,0.0,0.0,0.0,0.0,0.0,0.0,0.0,0.0,0.0,0.0,0.0,0.0,0.0,0.0,0.0,0.0,0.0,0.0,0.0,0.0,0.0,0.0,0.0,0.0,0.0,0.0,0.0,0.0,0.0,0.0,0.0,0.0,0.0,0.0,0.0,0.0,0.0,0.0,0.0,5.1916,5.1916,5.1916,5.1916,5.1916,5.1916,5.1916,5.1916,5.1916,5.2541,0.0,0.0,0.0,0.0,0.0,0.0,0.0,0.0,0.0,0.0,0.0,0.0,0.0,0.0,0.0,0.0,0.0,0.0,0.0,0.0,0.0,0.0,0.0,0.0,0.0,0.0,0.0,0.0,0.0,0.0,0.0,0.0,0.0,0.0,0.0,0.0,0.0,0.0,0.0,0.0,0.0,5.4228,5.4228,5.4784,5.5219,0.0,5.5836,5.6336,5.6359,5.6336,5.6301,5.6359,0.0,0.0,0.0,0.0,0.0,0.0,0.0,0.0,0.0,0.0,0.0,0.0,0.0,0.0,0.0,0.0,0.0,0.0,0.0,0.0,0.0,0.0,0.0,0.0,0.0,0.0,0.0,0.0,0.0,0.0,0.0,0.0,0.0,0.0,0.0,0.0,0.0,0.0,0.0,0.0,0.0,0.0,0.0,0.0,0.0,0.0,0.0,0.0,0.0,0.0,0.0,0.0,0.0,0.0,5.1916,5.1916,5.1916,5.1916,5.1916,5.1916,5.1916,5.1916,0.0,0.0,0.0,0.0,0.0,0.0,0.0,0.0,0.0,0.0,0.0,0.0,0.0,0.0,0.0,0.0,0.0,0.0,0.0,0.0,0.0,0.0,0.0,0.0,0.0,0.0,0.0,4.1355,0.0,0.0,0.0,0.0,0.0,0.0,0.0,0.0,0.0,0.0,0.0,0.0,0.0,0.0,5.4228,5.4228,5.481,5.5219,0.0,0.0,5.5706,5.6278,5.5884,5.5706,0.0,0.0,0.0,0.0,0.0,0.0,0.0,0.0,0.0,0.0,0.0,0.0,0.0,0.0,0.0,0.0,0.0,0.0,0.0,0.0,0.0,0.0,0.0,0.0,0.0,0.0,0.0,0.0,0.0,0.0,0.0,0.0,0.0,0.0,0.0,0.0,0.0,0.0,0.0,0.0,0.0,0.0,0.0,0.0,0.0,0.0,0.0,0.0,0.0,0.0,0.0,0.0,0.0,0.0,5.1916,5.1916,5.1916,5.1916,5.1916,5.1916,5.1916,5.1916,5.1916,5.1916,0.0,0.0,0.0,0.0,0.0,0.0,0.0,0.0,0.0,0.0,0.0,0.0,0.0,0.0,0.0,0.0,0.0,0.0,0.0,0.0,0.0,0.0,0.0,0.0,0.0,0.0,0.0,0.0,0.0,0.0,0.0,0.0,0.0,0.0,0.0,0.0,0.0,0.0,0.0,0.0,0.0,0.0,5.42,5.4784,0.0,0.0,0.0,5.5477,5.6255,0.0,0.0,0.0,0.0,0.0,0.0,0.0,0.0,0.0,0.0,0.0,0.0,0.0,0.0,0.0,0.0,0.0,0.0,0.0,0.0,0.0,0.0,0.0,0.0,0.0,0.0,0.0,0.0,0.0,0.0,0.0,0.0,0.0,0.0,0.0,0.0,0.0,0.0,0.0,0.0,0.0,0.0,0.0,0.0,0.0,0.0,0.0,0.0,0.0,0.0,0.0,0.0,0.0,0.0,0.0,0.0,0.0,5.1916,5.1916,5.1916,5.1916,5.1916,5.1916,5.1916,5.1916,5.1916,0.0,0.0,0.0,0.0,0.0,0.0,0.0,0.0,0.0,0.0,0.0,0.0,0.0,0.0,0.0,0.0,0.0,0.0,0.0,0.0,0.0,0.0,0.0,0.0,0.0,0.0,0.0,0.0,0.0,0.0,0.0,0.0,0.0,0.0,0.0,0.0,0.0,0.0,0.0,0.0,0.0,5.2991,5.3858,5.4512,5.4921,0.0,0.0,5.5244,5.6105,5.5609,0.0,0.0,0.0,0.0,0.0,0.0,0.0,0.0,0.0,0.0,0.0,0.0,0.0,0.0,0.0,0.0,0.0,0.0,0.0,0.0,0.0,0.0,0.0,0.0,0.0,0.0,0.0,0.0,0.0,0.0,0.0,0.0,0.0,0.0,0.0,0.0,0.0,0.0,0.0,0.0,0.0,0.0,0.0,0.0,0.0,0.0,0.0,0.0,0.0,0.0,0.0,0.0,0.0,0.0,0.0,0.0,5.1916,5.1916,5.1916,5.1916,5.1916,5.1916,5.1916,5.1916,5.1916,0.0,0.0,0.0,0.0,0.0,0.0,0.0,0.0,0.0,0.0,0.0,0.0,0.0,0.0,0.0,0.0,0.0,0.0,0.0,0.0,0.0,0.0,0.0,0.0,0.0,0.0,0.0,0.0,0.0,0.0,0.0,0.0,0.0,0.0,0.0,0.0,0.0,0.0,0.0,0.0,0.0,5.0917,5.2199,5.3009,0.0,0.0,0.0,0.0,5.5244,5.4897,0.0,0.0,0.0,0.0,0.0,0.0,0.0,0.0,0.0,0.0,0.0,0.0,0.0,0.0,0.0,0.0,0.0,0.0,0.0,0.0,0.0,0.0,0.0,0.0,0.0,0.0,0.0,0.0,0.0,0.0,0.0,0.0,0.0,0.0,0.0,0.0,0.0,0.0,0.0,0.0,0.0,0.0,0.0,0.0,0.0,0.0,0.0,0.0,0.0,0.0,0.0,0.0,0.0,0.0,0.0,0.0,5.1916,5.1916,5.1916,5.1916,5.1916,5.1916,5.1916,5.1916,5.1916,0.0,0.0,0.0,0.0,0.0,0.0,0.0,0.0,0.0,0.0,0.0,0.0,0.0,0.0,0.0,0.0,0.0,0.0,0.0,0.0,0.0,0.0,0.0,0.0,0.0,0.0,0.0,0.0,0.0,0.0,0.0,0.0,0.0,0.0,0.0,0.0,0.0,0.0,0.0,0.0,4.9779,5.0305,5.1686,0.0,0.0,0.0,0.0,0.0,0.0,5.408,5.3824,0.0,0.0,0.0,0.0,0.0,0.0,0.0,0.0,0.0,0.0,0.0,0.0,0.0,0.0,0.0,0.0,0.0,0.0,0.0,0.0,0.0,0.0,0.0,0.0,0.0,0.0,0.0,0.0,0.0,0.0,0.0,0.0,0.0,0.0,0.0,0.0,0.0,0.0,0.0,0.0,0.0,0.0,0.0,0.0,0.0,0.0,0.0,0.0,0.0,0.0,0.0,0.0,0.0,0.0,0.0,5.1686,5.1818,5.1916,5.1916,5.1916,5.1916,5.1916,5.1916,5.1719,5.1228,0.0,0.0,0.0,0.0,0.0,0.0,0.0,0.0,0.0,0.0,0.0,0.0,0.0,0.0,0.0,0.0,0.0,0.0,0.0,0.0,0.0,0.0,0.0,0.0,0.0,0.0,0.0,0.0,0.0,0.0,0.0,0.0,0.0,0.0,0.0,0.0,0.0,0.0,0.0,4.8893,4.9582,0.0,0.0,0.0,0.0,0.0,0.0,0.0,0.0,5.2295,0.0,0.0,0.0,0.0,0.0,0.0,0.0,0.0,0.0,0.0,0.0,0.0,0.0,0.0,0.0,0.0,0.0,0.0,0.0,0.0,0.0,0.0,0.0,0.0,0.0,0.0,0.0,0.0,0.0,0.0,0.0,0.0,0.0,0.0,0.0,0.0,0.0,0.0,0.0,0.0,0.0,0.0,0.0,0.0,0.0,0.0,0.0,0.0,0.0,0.0,0.0,0.0,0.0,0.0,0.0,0.0,5.1488,5.1916,5.1916,5.1916,5.1916,5.1916,5.1916,5.1031,4.9202,0.0,0.0,0.0,0.0,0.0,0.0,0.0,0.0,0.0,0.0,0.0,0.0,0.0,0.0,0.0,0.0,0.0,0.0,0.0,0.0,0.0,0.0,0.0,0.0,0.0,0.0,0.0,0.0,0.0,0.0,0.0,0.0,0.0,0.0,0.0,0.0,0.0,0.0,4.4293,4.5373,0.0,0.0,0.0,0.0,0.0,0.0,0.0,0.0,5.02,0.0,0.0,0.0,0.0,0.0,0.0,0.0,0.0,0.0,0.0,0.0,0.0,0.0,0.0,0.0,0.0,0.0,0.0,0.0,0.0,0.0,0.0,0.0,0.0,0.0,0.0,0.0,0.0,0.0,0.0,0.0,0.0,0.0,0.0,0.0,0.0,0.0,0.0,0.0,0.0,0.0,0.0,0.0,0.0,0.0,0.0,0.0,0.0,0.0,0.0,0.0,0.0,0.0,0.0,0.0,0.0,0.0,0.0,5.1421,5.1883,5.1916,5.1916,5.1883,5.1421,5.0369,0.0,0.0,0.0,0.0,0.0,0.0,0.0,0.0,0.0,0.0,0.0,0.0,0.0,0.0,0.0,0.0,0.0,0.0,0.0,0.0,0.0,0.0,0.0,0.0,0.0,0.0,0.0,0.0,0.0,0.0,0.0,0.0,0.0,0.0,0.0,0.0,0.0,0.0,0.0,0.0,0.0,0.0,0.0,0.0,0.0,0.0,0.0,0.0,0.0,0.0,0.0,0.0,0.0,0.0,0.0,0.0,0.0,0.0,0.0,0.0,0.0,0.0,0.0,0.0,0.0,0.0,0.0,0.0,0.0,0.0,0.0,0.0,0.0,0.0,0.0,0.0,0.0,0.0,0.0,0.0,0.0,0.0,0.0,0.0,0.0,0.0,0.0,0.0,0.0,0.0,0.0,0.0,0.0,0.0,0.0,0.0,0.0,0.0,0.0,0.0,0.0,0.0,0.0,0.0,0.0,0.0,0.0,0.0,5.1185,5.1916,5.1916,5.1916,5.1916,5.0725,4.9249,0.0,0.0,0.0,0.0,0.0,0.0,0.0,0.0,0.0,0.0,0.0,0.0,0.0,0.0,0.0,0.0,0.0,0.0,0.0,0.0,0.0,0.0,0.0,0.0,0.0,0.0,0.0,0.0,0.0,0.0,0.0,0.0,0.0,0.0,0.0,0.0,0.0,0.0,0.0,0.0,0.0,0.0,0.0,0.0,0.0,0.0,0.0,0.0,4.7631,0.0,0.0,0.0,0.0,0.0,0.0,0.0,0.0,0.0,0.0,0.0,0.0,0.0,0.0,0.0,0.0,0.0,0.0,0.0,0.0,0.0,0.0,0.0,0.0,0.0,0.0,0.0,0.0,0.0,0.0,0.0,0.0,0.0,0.0,0.0,0.0,0.0,0.0,0.0,0.0,0.0,0.0,0.0,0.0,0.0,0.0,0.0,0.0,0.0,0.0,0.0,0.0,0.0,0.0,0.0,0.0,0.0,0.0,0.0,5.1785,5.1916,5.1916,5.1883,5.1883,4.9885,4.716,0.0,0.0,0.0,0.0,0.0,0.0,0.0,0.0,0.0,0.0,0.0,0.0,0.0,0.0,0.0,0.0,0.0,0.0,0.0,0.0,0.0,0.0,0.0,0.0,0.0,0.0,0.0,0.0,0.0,0.0,0.0,0.0,0.0,0.0,0.0,0.0,0.0,0.0,0.0,0.0,0.0,0.0,0.0,0.0,0.0,0.0,0.0,0.0,0.0,0.0,0.0,0.0,0.0,0.0,0.0,0.0,0.0,0.0,0.0,0.0,0.0,0.0,0.0,0.0,0.0,0.0,0.0,0.0,0.0,0.0,0.0,0.0,0.0,0.0,0.0,0.0,0.0,0.0,0.0,0.0,0.0,0.0,0.0,0.0,0.0,0.0,0.0,0.0,0.0,0.0,0.0,0.0,0.0,0.0,0.0,0.0,0.0,0.0,0.0,0.0,0.0,0.0,0.0,0.0,0.0,0.0,0.0,0.0,5.0501,5.1117,5.162,5.0606,4.803,4.648,4.4574,0.0,0.0,0.0,0.0,0.0,0.0,0.0,0.0,0.0,0.0,0.0,0.0,0.0,0.0,0.0,0.0,0.0,0.0,0.0,0.0,0.0,0.0,0.0,0.0,0.0,0.0,0.0,0.0,0.0,0.0,0.0,0.0,0.0,0.0,0.0,0.0,0.0,0.0,0.0,0.0,0.0,0.0,0.0,0.0,0.0,0.0,0.0,0.0,0.0,0.0,0.0,0.0,0.0,0.0,0.0,0.0,0.0,0.0,0.0,0.0,0.0,0.0,0.0,0.0,0.0,0.0,0.0,0.0,0.0,0.0,0.0,0.0,0.0,0.0,0.0,0.0,0.0,0.0,0.0,0.0,0.0,0.0,0.0,0.0,0.0,0.0,0.0,0.0,0.0,0.0,0.0,0.0,0.0,0.0,0.0,0.0,0.0,0.0,0.0,0.0,0.0,0.0,0.0,0.0,0.0,0.0,0.0,0.0,0.0,4.9576,4.991,4.8358,4.4678,4.359,4.2455,0.0,0.0,0.0,0.0,0.0,0.0,0.0,0.0,0.0,0.0,0.0,0.0,0.0,0.0,0.0,0.0,0.0,0.0,0.0,0.0,0.0,0.0,0.0,0.0,0.0,0.0,0.0,0.0,0.0,0.0,0.0,0.0,0.0,0.0,0.0,0.0,0.0,0.0,0.0,0.0,0.0,0.0,0.0,0.0,0.0,0.0,0.0,0.0,0.0,0.0,0.0,0.0,0.0,0.0,0.0,0.0,0.0,0.0,0.0,0.0,0.0,0.0,0.0,0.0,0.0,0.0,0.0,0.0,0.0,0.0,0.0,0.0,0.0,0.0,0.0,0.0,0.0,0.0,0.0,0.0,0.0,0.0,0.0,0.0,0.0,0.0,0.0,0.0,0.0,0.0,0.0,0.0,0.0,0.0,0.0,0.0,0.0,0.0,0.0,0.0,0.0,0.0,0.0,0.0,0.0,0.0,0.0,0.0,0.0,4.7206,4.606,4.4682,4.3078,4.2279,4.1157,0.0,0.0,0.0,0.0,0.0,0.0,0.0,0.0,0.0,0.0,0.0,0.0,0.0,0.0,0.0,0.0,0.0,0.0,0.0,0.0,0.0,0.0,0.0,0.0,0.0,0.0,0.0,0.0,0.0,0.0,0.0,0.0,0.0,0.0,0.0,0.0,0.0,0.0,0.0,0.0,0.0,0.0,0.0,0.0,0.0,0.0,0.0,0.0,0.0,0.0,0.0,0.0,0.0,0.0,0.0,0.0,0.0,0.0,0.0,0.0,0.0,0.0,0.0,0.0,0.0,0.0,0.0,0.0,0.0,0.0,0.0,0.0,0.0,0.0,0.0,0.0,0.0,0.0,0.0,0.0,0.0,0.0,0.0,0.0,0.0,0.0,0.0,0.0,0.0,0.0,0.0,0.0,0.0,0.0,0.0,0.0,0.0,0.0,0.0,0.0,0.0,0.0,0.0,0.0,0.0,0.0,0.0,0.0,0.0,4.2758,4.1506,4.0577,4.0034,3.972,3.9306,3.8735,0.0,0.0,0.0,0.0,0.0,0.0,0.0,0.0,0.0,0.0,0.0,0.0,0.0,0.0,0.0,0.0,0.0,0.0,0.0,0.0,0.0,0.0,0.0,0.0,0.0,0.0,0.0,0.0,0.0,0.0,0.0,0.0,0.0,0.0,0.0,0.0,0.0,0.0,0.0,0.0,0.0,0.0,0.0,0.0,0.0,0.0,0.0,0.0,0.0,0.0,0.0,0.0,0.0,0.0,0.0,0.0,0.0,0.0,0.0,0.0,0.0,0.0,0.0,0.0,0.0,0.0,0.0,0.0,0.0,0.0,0.0,0.0,0.0,0.0,0.0,0.0,0.0,0.0,0.0,0.0,0.0,0.0,0.0,0.0,0.0,0.0,0.0,0.0,0.0,0.0,0.0,0.0,0.0,0.0,0.0,0.0,0.0,0.0,0.0,0.0,0.0,0.0,0.0,0.0,0.0,0.0,0.0,0.0,3.9641,3.8739,3.8338,3.8338,3.8338,3.8338,0.0,0.0,0.0,0.0,0.0,0.0,0.0,0.0,0.0,0.0,0.0,0.0,0.0,0.0,0.0,0.0,0.0,0.0,0.0,0.0,0.0,0.0,0.0,0.0,0.0,0.0,0.0,0.0,0.0,0.0,0.0,0.0,0.0,0.0,0.0,0.0,0.0,0.0,0.0,0.0,0.0,0.0,0.0,0.0,0.0,0.0,0.0,0.0,0.0,0.0,0.0,0.0,0.0,0.0,0.0,0.0,0.0,0.0,0.0,0.0,0.0,0.0,0.0,0.0,0.0,0.0,0.0,0.0,0.0,0.0,0.0,0.0,0.0,0.0,0.0,0.0,0.0,0.0,0.0,0.0,0.0,0.0,0.0,0.0,0.0,0.0,0.0,0.0,0.0,0.0,0.0,0.0,0.0,0.0,0.0,0.0,0.0,0.0,0.0,0.0,0.0,0.0,0.0,0.0,0.0,0.0,0.0,0.0,3.7384,3.8268,3.8338,3.8338,3.8338,3.8338,3.8338,0.0,0.0,0.0,0.0,0.0,0.0,0.0,0.0,0.0,0.0,0.0,0.0,0.0,0.0,0.0,0.0,0.0,0.0,0.0,0.0,0.0,0.0,0.0,0.0,0.0,0.0,0.0,0.0,0.0,0.0,0.0,0.0,0.0,0.0,0.0,0.0,0.0,0.0,0.0,0.0,0.0,0.0,0.0,0.0,0.0,0.0,0.0,0.0,0.0,0.0,0.0,0.0,0.0,0.0,0.0,0.0,0.0,0.0,0.0,0.0,0.0,0.0,0.0,0.0,0.0,0.0,0.0,0.0,0.0,0.0,0.0,0.0,0.0,0.0,0.0,0.0,0.0,0.0,0.0,0.0,0.0,0.0,0.0,0.0,0.0,0.0,0.0,0.0,0.0,0.0,0.0,0.0,0.0,0.0,0.0,0.0,0.0,0.0,0.0,0.0,0.0,0.0,0.0,0.0,0.0,0.0,0.0,0.0,0.0,3.8274,0.0,3.8338,0.0,3.8338,3.8338,0.0,0.0,0.0,0.0,0.0,0.0,0.0,0.0,0.0,0.0,0.0,0.0,0.0,0.0,0.0,0.0,0.0,0.0,0.0,0.0,0.0,0.0,0.0,0.0,0.0,0.0,0.0,0.0,0.0,0.0,0.0,0.0,0.0,0.0,0.0,0.0,0.0,0.0,0.0,0.0,0.0,0.0,0.0,0.0,0.0,0.0,0.0,0.0,0.0,0.0,0.0,0.0,0.0,0.0,0.0,0.0,0.0,0.0,0.0,0.0,0.0,0.0,0.0,0.0,0.0,0.0,0.0,0.0,0.0,0.0,0.0,0.0,0.0,0.0,0.0,0.0,0.0,0.0,0.0,0.0,0.0,0.0,0.0,0.0,0.0,0.0,0.0,0.0,0.0,0.0,0.0,0.0,0.0,0.0,0.0,0.0,0.0,0.0,0.0,0.0,0.0,0.0,0.0,0.0,0.0,0.0,0.0,0.0,0.0,3.7721,3.8104,3.8338,3.8338,3.8338,3.8338,0.0,0.0,0.0,0.0,0.0,0.0,0.0,0.0,0.0,0.0,0.0,0.0,0.0,0.0,0.0,0.0,0.0,0.0,0.0,0.0,0.0,0.0,0.0,0.0,0.0,0.0,0.0,0.0,0.0,0.0,0.0,0.0,0.0,0.0,0.0,0.0,0.0,0.0,0.0,0.0,0.0,0.0,0.0,0.0,0.0,0.0,0.0,0.0,0.0,0.0,0.0,0.0,0.0,0.0,0.0,0.0,0.0,0.0,0.0,0.0,0.0,0.0,0.0,0.0,0.0,0.0,0.0,0.0,0.0,0.0,0.0,0.0,0.0,0.0,0.0,0.0,0.0,0.0,0.0,0.0,0.0,0.0,0.0,0.0,0.0,0.0,0.0,0.0,0.0,0.0,0.0,0.0,0.0,0.0,0.0,0.0,0.0,0.0,0.0,0.0,0.0,0.0,0.0,0.0,0.0,0.0,0.0,0.0,0.0,0.0,3.7614,3.8168,3.8133,3.821,3.821,0.0,0.0,0.0,0.0,0.0,0.0,0.0,0.0,0.0,0.0,0.0,0.0,0.0,0.0,0.0,0.0,0.0,0.0,0.0,0.0,0.0,0.0,0.0,0.0,0.0,0.0,0.0,0.0,0.0,0.0,0.0,0.0,0.0,0.0,0.0,0.0,0.0,0.0,0.0,0.0,0.0,0.0,0.0,0.0,0.0,0.0,0.0,0.0,0.0,0.0,0.0,0.0,0.0,0.0,0.0,0.0,0.0,0.0,0.0,0.0,0.0,0.0,0.0,0.0,0.0,0.0,0.0,0.0,0.0,0.0,0.0,0.0,0.0,0.0,0.0,0.0,0.0,0.0,0.0,0.0,0.0,0.0,0.0,0.0,0.0,0.0,0.0,0.0,0.0,0.0,0.0,0.0,0.0,0.0,0.0,0.0,0.0,0.0,0.0,0.0,0.0,0.0,0.0,0.0,0.0,0.0,0.0,0.0,0.0,0.0,3.5879,3.6029,3.6094,3.6761,3.719,3.7162,0.0,0.0,0.0,0.0,0.0,0.0,0.0,0.0,0.0,0.0,0.0,0.0,0.0,0.0,0.0,0.0,0.0,0.0,0.0,0.0,0.0,0.0,0.0,0.0,0.0,0.0,0.0,0.0,0.0,0.0,0.0,0.0,0.0,0.0,0.0,0.0,0.0,0.0,0.0,0.0,0.0,0.0,0.0,0.0,0.0,0.0,0.0,0.0,0.0,0.0,0.0,0.0,0.0,0.0,0.0,0.0,0.0,0.0,0.0,0.0,0.0,0.0,0.0,0.0,0.0,0.0,0.0,0.0,0.0,0.0,0.0,0.0,0.0,0.0,0.0,0.0,0.0,0.0,0.0,0.0,0.0,0.0,0.0,0.0,0.0,0.0,0.0,0.0,0.0,0.0,0.0,0.0,0.0,0.0,0.0,0.0,0.0,0.0,0.0,0.0,0.0,0.0,0.0,0.0,0.0,0.0,0.0,0.0,0.0,0.0,3.5168,3.5168,3.5804,3.6104,0.0,0.0,0.0,0.0,0.0,0.0,0.0,0.0,0.0,0.0,0.0,0.0,0.0,0.0,0.0,0.0,0.0,0.0,0.0,0.0,0.0,0.0,0.0,0.0,0.0,0.0,0.0,0.0,0.0,0.0,0.0,0.0,0.0,0.0,0.0,0.0,0.0,0.0,0.0,0.0,0.0,0.0,0.0,0.0,0.0,0.0,0.0,0.0,0.0,0.0,0.0,0.0,0.0,0.0,0.0,0.0,0.0,0.0,0.0,0.0,0.0,0.0,0.0,0.0,0.0,0.0,0.0,0.0,0.0,0.0,0.0,0.0,0.0,0.0,0.0,0.0,0.0,0.0,0.0,0.0,0.0,0.0,0.0,0.0,0.0,0.0,0.0,0.0,0.0,0.0,0.0,0.0,0.0,0.0,0.0,0.0,0.0,0.0,0.0,0.0,0.0,0.0,0.0,0.0,0.0,0.0,0.0,0.0,0.0,0.0,0.0,3.4925,3.4898,3.5002,0.0,3.5053,0.0,0.0,0.0,0.0,0.0,0.0,0.0,0.0,0.0,0.0,0.0,0.0,0.0,0.0,0.0,0.0,0.0,0.0,0.0,0.0,0.0,0.0,0.0,0.0,0.0,0.0,0.0,0.0,0.0,0.0,0.0,0.0,0.0,0.0,0.0,0.0,0.0,0.0,0.0,0.0,0.0,0.0,0.0,0.0,0.0,0.0,0.0,0.0,0.0,0.0,0.0,0.0,0.0,0.0,0.0,0.0,0.0,0.0,0.0,0.0,0.0,0.0,0.0,0.0,0.0,0.0,0.0,0.0,0.0,0.0,0.0,0.0,0.0,0.0,0.0,0.0,0.0,0.0,0.0,0.0,0.0,0.0,0.0,0.0,0.0,0.0,0.0,0.0,0.0,0.0,0.0,0.0,0.0,0.0,0.0,0.0,0.0,0.0,0.0,0.0,0.0,0.0,0.0,0.0,0.0,0.0,0.0,0.0,0.0,0.0,0.0,0.0,3.3572,3.3985,3.4011,0.0,0.0,0.0,0.0,0.0,0.0,0.0,0.0,0.0,0.0,0.0,0.0,0.0,0.0,0.0,0.0,0.0,0.0,0.0,0.0,0.0,0.0,0.0,0.0,0.0,0.0,0.0,0.0,0.0,0.0,0.0,0.0,0.0,0.0,0.0,0.0,0.0,0.0,0.0,0.0,0.0,0.0,0.0,0.0,0.0,0.0,0.0,0.0,0.0,0.0,0.0,0.0,0.0,0.0,0.0,0.0,0.0,0.0,0.0,0.0,0.0,0.0,0.0,0.0,0.0,0.0,0.0,0.0,0.0,0.0,0.0,0.0,0.0,0.0,0.0,0.0,0.0,0.0,0.0,0.0,0.0,0.0,0.0,0.0,0.0,0.0,0.0,0.0,0.0,0.0,0.0,0.0,0.0,0.0,0.0,0.0,0.0,0.0,0.0,0.0,0.0,0.0,0.0,0.0,0.0,0.0,0.0,0.0,0.0,0.0,3.2098,3.2098,3.2605,3.2909,3.2949,0.0,0.0,0.0,0.0,0.0,0.0,0.0,0.0,0.0,0.0,0.0,0.0,0.0,0.0,0.0,0.0,0.0,0.0,0.0,0.0,0.0,0.0,0.0,0.0,0.0,0.0,0.0,0.0,0.0,0.0,0.0,0.0,0.0,0.0,0.0,0.0,0.0,0.0,0.0,0.0,0.0,0.0,0.0,0.0,0.0,0.0,0.0,0.0,0.0,0.0,0.0,0.0,0.0,0.0,0.0,0.0,0.0,0.0,0.0,0.0,0.0,0.0,0.0,0.0,0.0,0.0,0.0,0.0,0.0,0.0,0.0,0.0,0.0,0.0,0.0,0.0,0.0,0.0,0.0,0.0,0.0,0.0,0.0,0.0,0.0,0.0,0.0,0.0,0.0,0.0,0.0,0.0,0.0,0.0,0.0,0.0,0.0,0.0,0.0,0.0,0.0,0.0,0.0,0.0,0.0,0.0,0.0,0.0,0.0,0.0,0.0,0.0,0.0,0.0,3.2098,0.0,0.0,0.0,0.0,0.0,0.0,0.0,0.0,0.0,0.0,0.0,0.0,0.0,0.0,0.0,0.0,0.0,0.0,0.0,0.0,0.0,0.0,0.0,0.0,0.0,0.0,0.0,0.0,0.0,0.0,0.0,0.0,0.0,0.0,0.0,0.0,0.0,0.0,0.0,0.0,0.0,0.0,0.0,0.0,0.0,0.0,0.0,0.0,0.0,0.0,0.0,0.0,0.0,0.0,0.0,0.0,0.0,0.0,0.0,0.0,0.0,0.0,0.0,0.0,0.0,0.0,0.0,0.0,0.0,0.0,0.0,0.0,0.0,0.0,0.0,0.0,0.0,0.0,0.0,0.0,0.0,0.0,0.0,0.0,0.0,0.0,0.0,0.0,0.0,0.0,0.0,0.0,0.0,0.0,0.0,0.0,0.0,0.0,0.0,0.0,0.0,0.0,0.0,0.0,0.0,0.0,0.0,0.0,0.0,0.0,0.0,0.0,0.0,0.0,0.0,0.0,0.0,0.0,0.0,0.0,0.0,0.0,0.0,0.0,0.0,0.0,0.0,0.0,0.0,0.0,0.0,0.0,0.0,0.0,0.0,0.0,0.0,0.0,0.0,0.0,0.0,0.0,0.0,0.0,0.0,0.0,0.0,0.0,0.0,0.0,0.0,0.0,0.0,0.0,0.0,0.0,0.0,0.0,0.0,0.0,0.0,0.0,0.0,0.0,0.0,0.0,0.0,0.0,0.0,0.0,0.0,0.0,0.0,0.0,0.0,0.0,0.0,0.0,0.0,0.0,0.0,0.0,0.0,0.0,0.0,0.0,0.0,0.0,0.0,0.0,0.0,0.0,0.0,0.0,0.0,0.0,0.0,0.0,0.0,0.0,0.0,0.0,0.0,0.0,0.0,0.0,0.0,0.0,0.0,0.0,0.0,0.0,0.0,0.0,0.0,0.0,0.0,0.0,0.0,0.0,0.0,0.0,0.0,0.0,0.0,0.0,0.0,0.0,0.0,0.0,0.0,0.0,0.0,0.0,0.0,0.0,0.0,0.0,0.0,0.0,0.0,0.0,0.0,0.0,0.0,0.0,0.0,0.0,0.0,0.0,0.0,0.0,0.0,0.0,0.0,0.0,0.0,0.0,0.0,0.0,0.0,0.0,0.0,0.0,0.0,0.0,0.0,0.0,0.0,0.0,0.0,0.0,0.0,0.0,0.0,0.0,0.0,0.0,0.0,0.0,0.0,0.0,0.0,0.0,0.0,0.0,0.0,0.0,0.0,0.0,0.0,0.0,0.0,0.0,0.0,0.0,0.0,0.0,0.0,0.0,0.0,0.0,0.0,0.0,0.0,0.0,0.0,0.0,0.0,0.0,0.0,0.0,0.0,0.0,0.0,0.0,0.0,0.0,0.0,0.0,0.0,0.0,0.0,0.0,0.0,0.0,0.0,0.0,0.0,0.0,0.0,0.0,0.0,0.0,0.0,0.0,0.0,0.0,0.0,0.0,0.0,0.0,0.0,0.0,0.0,0.0,0.0,0.0,0.0,0.0,0.0,0.0,0.0,0.0,0.0,0.0,0.0,0.0,0.0,0.0,0.0,0.0,0.0,0.0,0.0,0.0,0.0,0.0,0.0,0.0,0.0,0.0,0.0,0.0,0.0,0.0,0.0,0.0,0.0,0.0,0.0,0.0,0.0,0.0,0.0,0.0,0.0,0.0,0.0,0.0,0.0,0.0,0.0,0.0,0.0,0.0,0.0,0.0,0.0,0.0,0.0,0.0,0.0,0.0,0.0,0.0,0.0,0.0,0.0,0.0,0.0,0.0,0.0,0.0,0.0,0.0,0.0,0.0,0.0,0.0,0.0,0.0,0.0,0.0,0.0,0.0,0.0,0.0,0.0,0.0,0.0,0.0,0.0,0.0,0.0,0.0,0.0,0.0,0.0,0.0,0.0,0.0,0.0,0.0,0.0,0.0,0.0,0.0,0.0,0.0,0.0,0.0,0.0,0.0,0.0,0.0,0.0,0.0,0.0,0.0,0.0,0.0,0.0,0.0,0.0,0.0,0.0,0.0,0.0,0.0,0.0,0.0,0.0,0.0,0.0,0.0,0.0,0.0,0.0,0.0,0.0,0.0,0.0,0.0,0.0,0.0,0.0,0.0,0.0,0.0,0.0,0.0,0.0,0.0,0.0,0.0,0.0,0.0,0.0,0.0,0.0,0.0,0.0,0.0,0.0,0.0,0.0,0.0,0.0,0.0,0.0,0.0,0.0,0.0,0.0,0.0,0.0,0.0,0.0,0.0,0.0,0.0,0.0,0.0,0.0,0.0,0.0,0.0,0.0,0.0,0.0,0.0,0.0,0.0,0.0,0.0,0.0,0.0,0.0,0.0,0.0,0.0,0.0,0.0,0.0,0.0,0.0,0.0,0.0,0.0,0.0,0.0,0.0,0.0,0.0,0.0,0.0,0.0,0.0,0.0,0.0,0.0,0.0,0.0,0.0,0.0,0.0,0.0,0.0,0.0,0.0,0.0,0.0,0.0,0.0,0.0,0.0,0.0,0.0,0.0,0.0,0.0,0.0,0.0,0.0,0.0,0.0,0.0,0.0,0.0,0.0,0.0,0.0,0.0,0.0,0.0,0.0,0.0,0.0,0.0,0.0,0.0,0.0,0.0,0.0,0.0,0.0,0.0,0.0,0.0,0.0,0.0,0.0,0.0,0.0,0.0,0.0,0.0,0.0,0.0,0.0,0.0,0.0,0.0,0.0,0.0,0.0,0.0,0.0,0.0,0.0,0.0,0.0,0.0,0.0,0.0,0.0,0.0,0.0,0.0,0.0,0.0,0.0,0.0,0.0,0.0,0.0,0.0,0.0,0.0,0.0,0.0,0.0,0.0,0.0,0.0,0.0,0.0,0.0,0.0,0.0,0.0,0.0,0.0,0.0,0.0,0.0,0.0,0.0,0.0,0.0,0.0,0.0,0.0,0.0,0.0,0.0,0.0,0.0,0.0,0.0,0.0,0.0,0.0,0.0,0.0,0.0,0.0,0.0,0.0,0.0,0.0,0.0,0.0,0.0,0.0,0.0,0.0,0.0,0.0,0.0,0.0,0.0,0.0,0.0,0.0,0.0,0.0,0.0,0.0,0.0,0.0,0.0,0.0,0.0,0.0,0.0,0.0,0.0,0.0,0.0,0.0,0.0,0.0,0.0,0.0,0.0,0.0,0.0,0.0,0.0,0.0,0.0,0.0,0.0,0.0,0.0,0.0,0.0,0.0,0.0,0.0,0.0,0.0,0.0,0.0,0.0,0.0,0.0,0.0,0.0,0.0,0.0,0.0,0.0,0.0,0.0,0.0,0.0,0.0,0.0,0.0,0.0,0.0,0.0,0.0,0.0,0.0,0.0,0.0,0.0,0.0,0.0,0.0,0.0,0.0,0.0,0.0,0.0,0.0,0.0,0.0,0.0,0.0,0.0,0.0,0.0,0.0,0.0,0.0,0.0,0.0,0.0,0.0,0.0,0.0,0.0,0.0,0.0,0.0,0.0,0.0,0.0,0.0,0.0,0.0,0.0,0.0,0.0,0.0,0.0,0.0,0.0,0.0,0.0,0.0,0.0,0.0,0.0,0.0,0.0,0.0,0.0,0.0,0.0,0.0,0.0,0.0,0.0,0.0,0.0,0.0,0.0,0.0,0.0,0.0,0.0,0.0,0.0,0.0,0.0,0.0,0.0,0.0,0.0,0.0,0.0,0.0,0.0,0.0,0.0,0.0,0.0,0.0,0.0,0.0,0.0,0.0,0.0,0.0,0.0,0.0,0.0,0.0,0.0,0.0,0.0,0.0,0.0,0.0,0.0,0.0,0.0,0.0,0.0,0.0,0.0,0.0,0.0,0.0,0.0,0.0,0.0,0.0,0.0,0.0,0.0,0.0,0.0,0.0,0.0,0.0,0.0,0.0,0.0,0.0,0.0,0.0,0.0,0.0,0.0,0.0,0.0,0.0,0.0,0.0,0.0,0.0,0.0,0.0,0.0,0.0,0.0,0.0,0.0,0.0,0.0,0.0,0.0,0.0,0.0,0.0,0.0,0.0,0.0,0.0,0.0,0.0,0.0,0.0,0.0,0.0,0.0,0.0,0.0,0.0,0.0,0.0,0.0,0.0,0.0,0.0,0.0,0.0,0.0,0.0,0.0,0.0,0.0,0.0,0.0,0.0,0.0,0.0,0.0,0.0,0.0,0.0,0.0,0.0,0.0,0.0,0.0,0.0,0.0,0.0,0.0,0.0,0.0,0.0,0.0,0.0,0.0,0.0,0.0,0.0,0.0,0.0,0.0,0.0,0.0,0.0,0.0,0.0,0.0,0.0,0.0,0.0]}]]]